<?xml version="1.0" encoding="UTF-8" standalone="no" ?>
<gpx xmlns="http://www.topografix.com/GPX/1/1" xmlns:xsi="http://www.w3.org/2001/XMLSchema-instance" xsi:schemaLocation="http://www.topografix.com/GPX/1/1 http://www.topografix.com/GPX/1/1/gpx.xsd" version="1.1" creator="VisuGPX - https://www.visugpx.com">
  <metadata>
    <name>StGuilhem_Fenestrelles_Lavagnes_Mehnir_Ermitage_20km_ 600m_7h30</name>
    <desc><![CDATA[Une randonnée superbe à faire... N'oubliez pas de prendre de l'eau (Possible aux Lavagnes, puis au Retour robinet et cloche derrière l'Ermitage...)
Par Laurent Aldon]]></desc>
  </metadata>
  <wpt lat="43.73515" lon="3.54749">
    <ele>109.347</ele>
    <name><![CDATA[St Guilhem]]></name>
  </wpt>
  <wpt lat="43.73637" lon="3.53792">
    <ele>241.987</ele>
    <name><![CDATA[Max Negre]]></name>
  </wpt>
  <wpt lat="43.73789" lon="3.53006">
    <ele>320.431</ele>
    <name><![CDATA[Fenestrelles]]></name>
  </wpt>
  <wpt lat="43.77339" lon="3.53505">
    <ele>510.138</ele>
    <name><![CDATA[Les Lavagnes]]></name>
  </wpt>
  <wpt lat="43.77857" lon="3.54291">
    <ele>564.898</ele>
    <name><![CDATA[Mehnir]]></name>
  </wpt>
  <wpt lat="43.75394" lon="3.54251">
    <ele>392.52</ele>
    <name><![CDATA[Ermitage]]></name>
  </wpt>
  <trk>
    <name><![CDATA[ACTIVE LOG094317]]></name>
    <cmt><![CDATA[10.4km en 2:51:28 (3.6km/h)
642.4m de montée et 240.6m de descente
Altitude minimum 108.9m, altitude maximum 516.6m]]></cmt>
    <trkseg>
      <trkpt lat="43.73511" lon="3.5475">
        <ele>109.309</ele>
        <time>2008-04-19T07:43:16Z</time>
      </trkpt>
      <trkpt lat="43.73512" lon="3.5475">
        <ele>109.309</ele>
        <time>2008-04-19T07:43:17Z</time>
      </trkpt>
      <trkpt lat="43.73513" lon="3.54749">
        <ele>108.899</ele>
        <time>2008-04-19T07:43:18Z</time>
      </trkpt>
      <trkpt lat="43.73515" lon="3.54749">
        <ele>109.347</ele>
        <time>2008-04-19T07:43:20Z</time>
      </trkpt>
      <trkpt lat="43.73528" lon="3.54742">
        <ele>109.259</ele>
        <time>2008-04-19T07:43:32Z</time>
      </trkpt>
      <trkpt lat="43.73528" lon="3.54741">
        <ele>109.633</ele>
        <time>2008-04-19T07:43:33Z</time>
      </trkpt>
      <trkpt lat="43.7354" lon="3.54742">
        <ele>110.878</ele>
        <time>2008-04-19T07:43:47Z</time>
      </trkpt>
      <trkpt lat="43.73542" lon="3.54742">
        <ele>110.174</ele>
        <time>2008-04-19T07:43:49Z</time>
      </trkpt>
      <trkpt lat="43.73543" lon="3.54742">
        <ele>109.702</ele>
        <time>2008-04-19T07:43:50Z</time>
      </trkpt>
      <trkpt lat="43.73551" lon="3.54746">
        <ele>111.093</ele>
        <time>2008-04-19T07:44:05Z</time>
      </trkpt>
      <trkpt lat="43.73568" lon="3.5475">
        <ele>110.902</ele>
        <time>2008-04-19T07:44:21Z</time>
      </trkpt>
      <trkpt lat="43.73585" lon="3.54753">
        <ele>111.086</ele>
        <time>2008-04-19T07:44:39Z</time>
      </trkpt>
      <trkpt lat="43.7361" lon="3.54755">
        <ele>109.227</ele>
        <time>2008-04-19T07:44:56Z</time>
      </trkpt>
      <trkpt lat="43.73617" lon="3.54754">
        <ele>112.609</ele>
        <time>2008-04-19T07:45:02Z</time>
      </trkpt>
      <trkpt lat="43.73614" lon="3.54751">
        <ele>109.481</ele>
        <time>2008-04-19T07:45:12Z</time>
      </trkpt>
      <trkpt lat="43.73613" lon="3.5475">
        <ele>112.956</ele>
        <time>2008-04-19T07:45:14Z</time>
      </trkpt>
      <trkpt lat="43.73614" lon="3.5475">
        <ele>109.367</ele>
        <time>2008-04-19T07:45:21Z</time>
      </trkpt>
      <trkpt lat="43.73633" lon="3.54754">
        <ele>111.636</ele>
        <time>2008-04-19T07:45:41Z</time>
      </trkpt>
      <trkpt lat="43.73655" lon="3.54756">
        <ele>112.776</ele>
        <time>2008-04-19T07:45:56Z</time>
      </trkpt>
      <trkpt lat="43.73658" lon="3.54752">
        <ele>112.422</ele>
        <time>2008-04-19T07:45:59Z</time>
      </trkpt>
      <trkpt lat="43.7367" lon="3.54727">
        <ele>113.617</ele>
        <time>2008-04-19T07:46:15Z</time>
      </trkpt>
      <trkpt lat="43.73674" lon="3.54705">
        <ele>113.822</ele>
        <time>2008-04-19T07:46:29Z</time>
      </trkpt>
      <trkpt lat="43.73678" lon="3.54676">
        <ele>113.986</ele>
        <time>2008-04-19T07:46:45Z</time>
      </trkpt>
      <trkpt lat="43.73683" lon="3.54654">
        <ele>113.786</ele>
        <time>2008-04-19T07:46:59Z</time>
      </trkpt>
      <trkpt lat="43.73677" lon="3.54659">
        <ele>114.055</ele>
        <time>2008-04-19T07:47:05Z</time>
      </trkpt>
      <trkpt lat="43.73655" lon="3.54652">
        <ele>114.479</ele>
        <time>2008-04-19T07:47:21Z</time>
      </trkpt>
      <trkpt lat="43.73648" lon="3.54635">
        <ele>116.096</ele>
        <time>2008-04-19T07:47:33Z</time>
      </trkpt>
      <trkpt lat="43.7365" lon="3.54621">
        <ele>117.197</ele>
        <time>2008-04-19T07:47:43Z</time>
      </trkpt>
      <trkpt lat="43.7366" lon="3.54613">
        <ele>119.223</ele>
        <time>2008-04-19T07:47:54Z</time>
      </trkpt>
      <trkpt lat="43.7366" lon="3.54604">
        <ele>121.239</ele>
        <time>2008-04-19T07:48:00Z</time>
      </trkpt>
      <trkpt lat="43.73649" lon="3.54591">
        <ele>123.632</ele>
        <time>2008-04-19T07:48:09Z</time>
      </trkpt>
      <trkpt lat="43.73644" lon="3.54583">
        <ele>124.77</ele>
        <time>2008-04-19T07:48:20Z</time>
      </trkpt>
      <trkpt lat="43.73642" lon="3.54567">
        <ele>128.166</ele>
        <time>2008-04-19T07:48:32Z</time>
      </trkpt>
      <trkpt lat="43.73641" lon="3.54553">
        <ele>129.625</ele>
        <time>2008-04-19T07:48:43Z</time>
      </trkpt>
      <trkpt lat="43.7364" lon="3.54541">
        <ele>132.069</ele>
        <time>2008-04-19T07:48:52Z</time>
      </trkpt>
      <trkpt lat="43.73638" lon="3.54522">
        <ele>135.586</ele>
        <time>2008-04-19T07:49:05Z</time>
      </trkpt>
      <trkpt lat="43.73638" lon="3.54521">
        <ele>135.67</ele>
        <time>2008-04-19T07:49:06Z</time>
      </trkpt>
      <trkpt lat="43.7364" lon="3.54505">
        <ele>136.516</ele>
        <time>2008-04-19T07:49:18Z</time>
      </trkpt>
      <trkpt lat="43.73641" lon="3.54482">
        <ele>138.879</ele>
        <time>2008-04-19T07:49:33Z</time>
      </trkpt>
      <trkpt lat="43.73644" lon="3.54458">
        <ele>140.694</ele>
        <time>2008-04-19T07:49:49Z</time>
      </trkpt>
      <trkpt lat="43.73644" lon="3.54441">
        <ele>142.439</ele>
        <time>2008-04-19T07:49:59Z</time>
      </trkpt>
      <trkpt lat="43.73645" lon="3.54436">
        <ele>142.794</ele>
        <time>2008-04-19T07:50:02Z</time>
      </trkpt>
      <trkpt lat="43.73647" lon="3.5442">
        <ele>142.98</ele>
        <time>2008-04-19T07:50:12Z</time>
      </trkpt>
      <trkpt lat="43.73648" lon="3.54415">
        <ele>143.95</ele>
        <time>2008-04-19T07:50:16Z</time>
      </trkpt>
      <trkpt lat="43.73643" lon="3.54406">
        <ele>144.7</ele>
        <time>2008-04-19T07:50:27Z</time>
      </trkpt>
      <trkpt lat="43.73642" lon="3.54407">
        <ele>144.802</ele>
        <time>2008-04-19T07:50:32Z</time>
      </trkpt>
      <trkpt lat="43.73641" lon="3.54417">
        <ele>145.691</ele>
        <time>2008-04-19T07:50:43Z</time>
      </trkpt>
      <trkpt lat="43.7364" lon="3.5442">
        <ele>146.621</ele>
        <time>2008-04-19T07:50:46Z</time>
      </trkpt>
      <trkpt lat="43.73635" lon="3.54429">
        <ele>146.718</ele>
        <time>2008-04-19T07:50:53Z</time>
      </trkpt>
      <trkpt lat="43.73631" lon="3.54443">
        <ele>147.427</ele>
        <time>2008-04-19T07:51:02Z</time>
      </trkpt>
      <trkpt lat="43.73628" lon="3.5445">
        <ele>149.906</ele>
        <time>2008-04-19T07:51:06Z</time>
      </trkpt>
      <trkpt lat="43.7362" lon="3.54469">
        <ele>152.62</ele>
        <time>2008-04-19T07:51:20Z</time>
      </trkpt>
      <trkpt lat="43.73612" lon="3.54476">
        <ele>154.886</ele>
        <time>2008-04-19T07:51:32Z</time>
      </trkpt>
      <trkpt lat="43.73613" lon="3.54456">
        <ele>157.71</ele>
        <time>2008-04-19T07:51:45Z</time>
      </trkpt>
      <trkpt lat="43.73613" lon="3.54451">
        <ele>158.103</ele>
        <time>2008-04-19T07:51:49Z</time>
      </trkpt>
      <trkpt lat="43.73614" lon="3.54433">
        <ele>160.681</ele>
        <time>2008-04-19T07:52:01Z</time>
      </trkpt>
      <trkpt lat="43.7362" lon="3.54413">
        <ele>161.215</ele>
        <time>2008-04-19T07:52:15Z</time>
      </trkpt>
      <trkpt lat="43.73618" lon="3.54397">
        <ele>163.161</ele>
        <time>2008-04-19T07:52:27Z</time>
      </trkpt>
      <trkpt lat="43.73615" lon="3.54393">
        <ele>163.631</ele>
        <time>2008-04-19T07:52:30Z</time>
      </trkpt>
      <trkpt lat="43.73611" lon="3.54373">
        <ele>165.065</ele>
        <time>2008-04-19T07:52:42Z</time>
      </trkpt>
      <trkpt lat="43.73615" lon="3.54366">
        <ele>165.558</ele>
        <time>2008-04-19T07:52:48Z</time>
      </trkpt>
      <trkpt lat="43.73614" lon="3.5435">
        <ele>166.62</ele>
        <time>2008-04-19T07:52:59Z</time>
      </trkpt>
      <trkpt lat="43.73617" lon="3.54338">
        <ele>168</ele>
        <time>2008-04-19T07:53:07Z</time>
      </trkpt>
      <trkpt lat="43.7362" lon="3.54329">
        <ele>168.634</ele>
        <time>2008-04-19T07:53:13Z</time>
      </trkpt>
      <trkpt lat="43.73626" lon="3.54317">
        <ele>169.993</ele>
        <time>2008-04-19T07:53:22Z</time>
      </trkpt>
      <trkpt lat="43.73631" lon="3.54305">
        <ele>170.96</ele>
        <time>2008-04-19T07:53:31Z</time>
      </trkpt>
      <trkpt lat="43.73631" lon="3.54297">
        <ele>172.469</ele>
        <time>2008-04-19T07:53:38Z</time>
      </trkpt>
      <trkpt lat="43.73633" lon="3.54287">
        <ele>173.122</ele>
        <time>2008-04-19T07:53:46Z</time>
      </trkpt>
      <trkpt lat="43.73638" lon="3.54283">
        <ele>173.712</ele>
        <time>2008-04-19T07:53:56Z</time>
      </trkpt>
      <trkpt lat="43.73641" lon="3.5428">
        <ele>173.741</ele>
        <time>2008-04-19T07:54:07Z</time>
      </trkpt>
      <trkpt lat="43.7364" lon="3.54277">
        <ele>173.729</ele>
        <time>2008-04-19T07:54:09Z</time>
      </trkpt>
      <trkpt lat="43.73638" lon="3.54272">
        <ele>174.716</ele>
        <time>2008-04-19T07:54:13Z</time>
      </trkpt>
      <trkpt lat="43.73639" lon="3.54268">
        <ele>175.24</ele>
        <time>2008-04-19T07:54:29Z</time>
      </trkpt>
      <trkpt lat="43.7364" lon="3.54261">
        <ele>175.5</ele>
        <time>2008-04-19T07:54:43Z</time>
      </trkpt>
      <trkpt lat="43.7364" lon="3.54253">
        <ele>174.775</ele>
        <time>2008-04-19T07:54:54Z</time>
      </trkpt>
      <trkpt lat="43.73638" lon="3.54244">
        <ele>175.545</ele>
        <time>2008-04-19T07:55:04Z</time>
      </trkpt>
      <trkpt lat="43.73639" lon="3.5423">
        <ele>177.32</ele>
        <time>2008-04-19T07:55:15Z</time>
      </trkpt>
      <trkpt lat="43.73639" lon="3.54224">
        <ele>177.534</ele>
        <time>2008-04-19T07:55:18Z</time>
      </trkpt>
      <trkpt lat="43.73637" lon="3.54216">
        <ele>178.352</ele>
        <time>2008-04-19T07:55:24Z</time>
      </trkpt>
      <trkpt lat="43.73636" lon="3.542">
        <ele>178.8</ele>
        <time>2008-04-19T07:55:35Z</time>
      </trkpt>
      <trkpt lat="43.73635" lon="3.54194">
        <ele>179.464</ele>
        <time>2008-04-19T07:55:46Z</time>
      </trkpt>
      <trkpt lat="43.73636" lon="3.54194">
        <ele>180.731</ele>
        <time>2008-04-19T07:55:48Z</time>
      </trkpt>
      <trkpt lat="43.73636" lon="3.54188">
        <ele>181.258</ele>
        <time>2008-04-19T07:55:53Z</time>
      </trkpt>
      <trkpt lat="43.73628" lon="3.54175">
        <ele>182.393</ele>
        <time>2008-04-19T07:56:02Z</time>
      </trkpt>
      <trkpt lat="43.73627" lon="3.54172">
        <ele>182.685</ele>
        <time>2008-04-19T07:56:05Z</time>
      </trkpt>
      <trkpt lat="43.73627" lon="3.54169">
        <ele>182.683</ele>
        <time>2008-04-19T07:56:07Z</time>
      </trkpt>
      <trkpt lat="43.73619" lon="3.54156">
        <ele>183.422</ele>
        <time>2008-04-19T07:56:16Z</time>
      </trkpt>
      <trkpt lat="43.73617" lon="3.54151">
        <ele>184.581</ele>
        <time>2008-04-19T07:56:21Z</time>
      </trkpt>
      <trkpt lat="43.73614" lon="3.54144">
        <ele>184.118</ele>
        <time>2008-04-19T07:56:33Z</time>
      </trkpt>
      <trkpt lat="43.7361" lon="3.54139">
        <ele>184.195</ele>
        <time>2008-04-19T07:56:49Z</time>
      </trkpt>
      <trkpt lat="43.73611" lon="3.54152">
        <ele>185.271</ele>
        <time>2008-04-19T07:56:59Z</time>
      </trkpt>
      <trkpt lat="43.7361" lon="3.54154">
        <ele>185.391</ele>
        <time>2008-04-19T07:57:00Z</time>
      </trkpt>
      <trkpt lat="43.7361" lon="3.54165">
        <ele>188.111</ele>
        <time>2008-04-19T07:57:09Z</time>
      </trkpt>
      <trkpt lat="43.73606" lon="3.5418">
        <ele>189.738</ele>
        <time>2008-04-19T07:57:18Z</time>
      </trkpt>
      <trkpt lat="43.73606" lon="3.54183">
        <ele>189.938</ele>
        <time>2008-04-19T07:57:20Z</time>
      </trkpt>
      <trkpt lat="43.73606" lon="3.54193">
        <ele>191.631</ele>
        <time>2008-04-19T07:57:28Z</time>
      </trkpt>
      <trkpt lat="43.73605" lon="3.54213">
        <ele>192.261</ele>
        <time>2008-04-19T07:57:43Z</time>
      </trkpt>
      <trkpt lat="43.73605" lon="3.54223">
        <ele>192.497</ele>
        <time>2008-04-19T07:57:50Z</time>
      </trkpt>
      <trkpt lat="43.73603" lon="3.54231">
        <ele>195.869</ele>
        <time>2008-04-19T07:57:55Z</time>
      </trkpt>
      <trkpt lat="43.73602" lon="3.54232">
        <ele>193.35</ele>
        <time>2008-04-19T07:57:56Z</time>
      </trkpt>
      <trkpt lat="43.73601" lon="3.54236">
        <ele>193.889</ele>
        <time>2008-04-19T07:57:59Z</time>
      </trkpt>
      <trkpt lat="43.736" lon="3.54251">
        <ele>195.116</ele>
        <time>2008-04-19T07:58:11Z</time>
      </trkpt>
      <trkpt lat="43.73598" lon="3.54256">
        <ele>195.795</ele>
        <time>2008-04-19T07:58:16Z</time>
      </trkpt>
      <trkpt lat="43.73595" lon="3.54259">
        <ele>197.379</ele>
        <time>2008-04-19T07:58:19Z</time>
      </trkpt>
      <trkpt lat="43.73594" lon="3.54258">
        <ele>197.431</ele>
        <time>2008-04-19T07:58:21Z</time>
      </trkpt>
      <trkpt lat="43.73596" lon="3.54245">
        <ele>198.366</ele>
        <time>2008-04-19T07:58:30Z</time>
      </trkpt>
      <trkpt lat="43.73594" lon="3.54233">
        <ele>199.271</ele>
        <time>2008-04-19T07:58:39Z</time>
      </trkpt>
      <trkpt lat="43.73594" lon="3.54231">
        <ele>200.583</ele>
        <time>2008-04-19T07:58:42Z</time>
      </trkpt>
      <trkpt lat="43.73592" lon="3.54227">
        <ele>201.163</ele>
        <time>2008-04-19T07:58:45Z</time>
      </trkpt>
      <trkpt lat="43.73589" lon="3.54217">
        <ele>202.201</ele>
        <time>2008-04-19T07:58:54Z</time>
      </trkpt>
      <trkpt lat="43.73584" lon="3.54207">
        <ele>202.263</ele>
        <time>2008-04-19T07:59:03Z</time>
      </trkpt>
      <trkpt lat="43.73581" lon="3.542">
        <ele>204.592</ele>
        <time>2008-04-19T07:59:09Z</time>
      </trkpt>
      <trkpt lat="43.73578" lon="3.54197">
        <ele>204.105</ele>
        <time>2008-04-19T07:59:13Z</time>
      </trkpt>
      <trkpt lat="43.73574" lon="3.54182">
        <ele>206.308</ele>
        <time>2008-04-19T07:59:24Z</time>
      </trkpt>
      <trkpt lat="43.73571" lon="3.54173">
        <ele>208.711</ele>
        <time>2008-04-19T07:59:31Z</time>
      </trkpt>
      <trkpt lat="43.73566" lon="3.54161">
        <ele>209.837</ele>
        <time>2008-04-19T07:59:41Z</time>
      </trkpt>
      <trkpt lat="43.73563" lon="3.54152">
        <ele>211.311</ele>
        <time>2008-04-19T07:59:49Z</time>
      </trkpt>
      <trkpt lat="43.73559" lon="3.54142">
        <ele>212.863</ele>
        <time>2008-04-19T07:59:58Z</time>
      </trkpt>
      <trkpt lat="43.73557" lon="3.54139">
        <ele>212.931</ele>
        <time>2008-04-19T08:00:03Z</time>
      </trkpt>
      <trkpt lat="43.73548" lon="3.54133">
        <ele>214.033</ele>
        <time>2008-04-19T08:00:13Z</time>
      </trkpt>
      <trkpt lat="43.73538" lon="3.54121">
        <ele>217.076</ele>
        <time>2008-04-19T08:00:30Z</time>
      </trkpt>
      <trkpt lat="43.73535" lon="3.54109">
        <ele>218.328</ele>
        <time>2008-04-19T08:00:39Z</time>
      </trkpt>
      <trkpt lat="43.73531" lon="3.54097">
        <ele>219.225</ele>
        <time>2008-04-19T08:00:48Z</time>
      </trkpt>
      <trkpt lat="43.73528" lon="3.54075">
        <ele>219.573</ele>
        <time>2008-04-19T08:01:01Z</time>
      </trkpt>
      <trkpt lat="43.73527" lon="3.54058">
        <ele>220.356</ele>
        <time>2008-04-19T08:01:11Z</time>
      </trkpt>
      <trkpt lat="43.73526" lon="3.54051">
        <ele>220.123</ele>
        <time>2008-04-19T08:01:16Z</time>
      </trkpt>
      <trkpt lat="43.73526" lon="3.54048">
        <ele>220.546</ele>
        <time>2008-04-19T08:01:18Z</time>
      </trkpt>
      <trkpt lat="43.73531" lon="3.54039">
        <ele>220.861</ele>
        <time>2008-04-19T08:01:32Z</time>
      </trkpt>
      <trkpt lat="43.7353" lon="3.54033">
        <ele>221.019</ele>
        <time>2008-04-19T08:01:37Z</time>
      </trkpt>
      <trkpt lat="43.73519" lon="3.5402">
        <ele>223.537</ele>
        <time>2008-04-19T08:01:49Z</time>
      </trkpt>
      <trkpt lat="43.73516" lon="3.54018">
        <ele>226.61</ele>
        <time>2008-04-19T08:01:56Z</time>
      </trkpt>
      <trkpt lat="43.73507" lon="3.54007">
        <ele>226.884</ele>
        <time>2008-04-19T08:02:04Z</time>
      </trkpt>
      <trkpt lat="43.73503" lon="3.53994">
        <ele>228.685</ele>
        <time>2008-04-19T08:02:13Z</time>
      </trkpt>
      <trkpt lat="43.73503" lon="3.53988">
        <ele>229.62</ele>
        <time>2008-04-19T08:02:17Z</time>
      </trkpt>
      <trkpt lat="43.73513" lon="3.53986">
        <ele>230.84</ele>
        <time>2008-04-19T08:02:27Z</time>
      </trkpt>
      <trkpt lat="43.73524" lon="3.53987">
        <ele>230.832</ele>
        <time>2008-04-19T08:02:37Z</time>
      </trkpt>
      <trkpt lat="43.73531" lon="3.53986">
        <ele>231.012</ele>
        <time>2008-04-19T08:02:41Z</time>
      </trkpt>
      <trkpt lat="43.7354" lon="3.53987">
        <ele>231.387</ele>
        <time>2008-04-19T08:02:54Z</time>
      </trkpt>
      <trkpt lat="43.73545" lon="3.53985">
        <ele>232.329</ele>
        <time>2008-04-19T08:03:04Z</time>
      </trkpt>
      <trkpt lat="43.73551" lon="3.53981">
        <ele>232.363</ele>
        <time>2008-04-19T08:03:10Z</time>
      </trkpt>
      <trkpt lat="43.73555" lon="3.53976">
        <ele>233.163</ele>
        <time>2008-04-19T08:03:14Z</time>
      </trkpt>
      <trkpt lat="43.73576" lon="3.53964">
        <ele>234.253</ele>
        <time>2008-04-19T08:03:32Z</time>
      </trkpt>
      <trkpt lat="43.73577" lon="3.53956">
        <ele>236.39</ele>
        <time>2008-04-19T08:03:52Z</time>
      </trkpt>
      <trkpt lat="43.73578" lon="3.53954">
        <ele>236.057</ele>
        <time>2008-04-19T08:04:03Z</time>
      </trkpt>
      <trkpt lat="43.73581" lon="3.53951">
        <ele>235.963</ele>
        <time>2008-04-19T08:04:06Z</time>
      </trkpt>
      <trkpt lat="43.73586" lon="3.53946">
        <ele>236.315</ele>
        <time>2008-04-19T08:04:11Z</time>
      </trkpt>
      <trkpt lat="43.73593" lon="3.53937">
        <ele>235.936</ele>
        <time>2008-04-19T08:04:19Z</time>
      </trkpt>
      <trkpt lat="43.73601" lon="3.53923">
        <ele>236.435</ele>
        <time>2008-04-19T08:04:32Z</time>
      </trkpt>
      <trkpt lat="43.73611" lon="3.53911">
        <ele>236.478</ele>
        <time>2008-04-19T08:04:43Z</time>
      </trkpt>
      <trkpt lat="43.73613" lon="3.53905">
        <ele>237.143</ele>
        <time>2008-04-19T08:04:53Z</time>
      </trkpt>
      <trkpt lat="43.7362" lon="3.53889">
        <ele>238.351</ele>
        <time>2008-04-19T08:05:05Z</time>
      </trkpt>
      <trkpt lat="43.73622" lon="3.53884">
        <ele>238.261</ele>
        <time>2008-04-19T08:05:08Z</time>
      </trkpt>
      <trkpt lat="43.73629" lon="3.53867">
        <ele>238.101</ele>
        <time>2008-04-19T08:05:17Z</time>
      </trkpt>
      <trkpt lat="43.73632" lon="3.53862">
        <ele>237.745</ele>
        <time>2008-04-19T08:05:20Z</time>
      </trkpt>
      <trkpt lat="43.7364" lon="3.53853">
        <ele>237.306</ele>
        <time>2008-04-19T08:05:26Z</time>
      </trkpt>
      <trkpt lat="43.73647" lon="3.53838">
        <ele>236.608</ele>
        <time>2008-04-19T08:05:35Z</time>
      </trkpt>
      <trkpt lat="43.73647" lon="3.5383">
        <ele>237.802</ele>
        <time>2008-04-19T08:05:40Z</time>
      </trkpt>
      <trkpt lat="43.73646" lon="3.53823">
        <ele>238.261</ele>
        <time>2008-04-19T08:05:44Z</time>
      </trkpt>
      <trkpt lat="43.73646" lon="3.53817">
        <ele>239.028</ele>
        <time>2008-04-19T08:05:48Z</time>
      </trkpt>
      <trkpt lat="43.73643" lon="3.53809">
        <ele>239.896</ele>
        <time>2008-04-19T08:05:53Z</time>
      </trkpt>
      <trkpt lat="43.73637" lon="3.53792">
        <ele>241.987</ele>
        <time>2008-04-19T08:06:05Z</time>
      </trkpt>
      <trkpt lat="43.73631" lon="3.5378">
        <ele>242.121</ele>
        <time>2008-04-19T08:06:13Z</time>
      </trkpt>
      <trkpt lat="43.73627" lon="3.53765">
        <ele>243.577</ele>
        <time>2008-04-19T08:06:23Z</time>
      </trkpt>
      <trkpt lat="43.73626" lon="3.53758">
        <ele>244.109</ele>
        <time>2008-04-19T08:06:28Z</time>
      </trkpt>
      <trkpt lat="43.73623" lon="3.53749">
        <ele>244.244</ele>
        <time>2008-04-19T08:06:34Z</time>
      </trkpt>
      <trkpt lat="43.7362" lon="3.5374">
        <ele>245.989</ele>
        <time>2008-04-19T08:06:40Z</time>
      </trkpt>
      <trkpt lat="43.7362" lon="3.53739">
        <ele>245.76</ele>
        <time>2008-04-19T08:06:44Z</time>
      </trkpt>
      <trkpt lat="43.7362" lon="3.53737">
        <ele>245.407</ele>
        <time>2008-04-19T08:06:52Z</time>
      </trkpt>
      <trkpt lat="43.7362" lon="3.5373">
        <ele>247.774</ele>
        <time>2008-04-19T08:07:00Z</time>
      </trkpt>
      <trkpt lat="43.73622" lon="3.53721">
        <ele>249.435</ele>
        <time>2008-04-19T08:07:06Z</time>
      </trkpt>
      <trkpt lat="43.73623" lon="3.53707">
        <ele>249.014</ele>
        <time>2008-04-19T08:07:15Z</time>
      </trkpt>
      <trkpt lat="43.73621" lon="3.53691">
        <ele>248.764</ele>
        <time>2008-04-19T08:07:26Z</time>
      </trkpt>
      <trkpt lat="43.73618" lon="3.53679">
        <ele>250.805</ele>
        <time>2008-04-19T08:07:37Z</time>
      </trkpt>
      <trkpt lat="43.73617" lon="3.53675">
        <ele>251.615</ele>
        <time>2008-04-19T08:07:41Z</time>
      </trkpt>
      <trkpt lat="43.73614" lon="3.53666">
        <ele>251.697</ele>
        <time>2008-04-19T08:07:49Z</time>
      </trkpt>
      <trkpt lat="43.73614" lon="3.53661">
        <ele>252.046</ele>
        <time>2008-04-19T08:07:52Z</time>
      </trkpt>
      <trkpt lat="43.73611" lon="3.53656">
        <ele>252.14</ele>
        <time>2008-04-19T08:07:56Z</time>
      </trkpt>
      <trkpt lat="43.73609" lon="3.53648">
        <ele>253.854</ele>
        <time>2008-04-19T08:08:03Z</time>
      </trkpt>
      <trkpt lat="43.73608" lon="3.53636">
        <ele>254.453</ele>
        <time>2008-04-19T08:08:12Z</time>
      </trkpt>
      <trkpt lat="43.73606" lon="3.53617">
        <ele>257.163</ele>
        <time>2008-04-19T08:08:24Z</time>
      </trkpt>
      <trkpt lat="43.73609" lon="3.53599">
        <ele>258.072</ele>
        <time>2008-04-19T08:08:36Z</time>
      </trkpt>
      <trkpt lat="43.73611" lon="3.53588">
        <ele>257.659</ele>
        <time>2008-04-19T08:08:42Z</time>
      </trkpt>
      <trkpt lat="43.73611" lon="3.53583">
        <ele>259.468</ele>
        <time>2008-04-19T08:08:46Z</time>
      </trkpt>
      <trkpt lat="43.73612" lon="3.5358">
        <ele>258.667</ele>
        <time>2008-04-19T08:08:59Z</time>
      </trkpt>
      <trkpt lat="43.73607" lon="3.53569">
        <ele>259.625</ele>
        <time>2008-04-19T08:09:08Z</time>
      </trkpt>
      <trkpt lat="43.73599" lon="3.5355">
        <ele>259.011</ele>
        <time>2008-04-19T08:09:20Z</time>
      </trkpt>
      <trkpt lat="43.73598" lon="3.53536">
        <ele>259.728</ele>
        <time>2008-04-19T08:09:29Z</time>
      </trkpt>
      <trkpt lat="43.73592" lon="3.53535">
        <ele>259.531</ele>
        <time>2008-04-19T08:09:33Z</time>
      </trkpt>
      <trkpt lat="43.73586" lon="3.5353">
        <ele>260.206</ele>
        <time>2008-04-19T08:09:37Z</time>
      </trkpt>
      <trkpt lat="43.7358" lon="3.53517">
        <ele>261.221</ele>
        <time>2008-04-19T08:09:47Z</time>
      </trkpt>
      <trkpt lat="43.7358" lon="3.53513">
        <ele>261.567</ele>
        <time>2008-04-19T08:09:50Z</time>
      </trkpt>
      <trkpt lat="43.73577" lon="3.53497">
        <ele>262.825</ele>
        <time>2008-04-19T08:10:01Z</time>
      </trkpt>
      <trkpt lat="43.73575" lon="3.5349">
        <ele>263.823</ele>
        <time>2008-04-19T08:10:06Z</time>
      </trkpt>
      <trkpt lat="43.73574" lon="3.53481">
        <ele>265.075</ele>
        <time>2008-04-19T08:10:12Z</time>
      </trkpt>
      <trkpt lat="43.73574" lon="3.53466">
        <ele>265.323</ele>
        <time>2008-04-19T08:10:23Z</time>
      </trkpt>
      <trkpt lat="43.73575" lon="3.53464">
        <ele>265.534</ele>
        <time>2008-04-19T08:10:24Z</time>
      </trkpt>
      <trkpt lat="43.73577" lon="3.53452">
        <ele>265.291</ele>
        <time>2008-04-19T08:10:32Z</time>
      </trkpt>
      <trkpt lat="43.73576" lon="3.53444">
        <ele>264.521</ele>
        <time>2008-04-19T08:10:36Z</time>
      </trkpt>
      <trkpt lat="43.73574" lon="3.53436">
        <ele>264.909</ele>
        <time>2008-04-19T08:10:42Z</time>
      </trkpt>
      <trkpt lat="43.73572" lon="3.5343">
        <ele>264.073</ele>
        <time>2008-04-19T08:10:57Z</time>
      </trkpt>
      <trkpt lat="43.73574" lon="3.53419">
        <ele>263.389</ele>
        <time>2008-04-19T08:11:05Z</time>
      </trkpt>
      <trkpt lat="43.73574" lon="3.53419">
        <ele>264.271</ele>
        <time>2008-04-19T08:11:06Z</time>
      </trkpt>
      <trkpt lat="43.73574" lon="3.53414">
        <ele>264.08</ele>
        <time>2008-04-19T08:11:09Z</time>
      </trkpt>
      <trkpt lat="43.73581" lon="3.53404">
        <ele>264.175</ele>
        <time>2008-04-19T08:11:15Z</time>
      </trkpt>
      <trkpt lat="43.73582" lon="3.53391">
        <ele>264.097</ele>
        <time>2008-04-19T08:11:26Z</time>
      </trkpt>
      <trkpt lat="43.73587" lon="3.53382">
        <ele>263.47</ele>
        <time>2008-04-19T08:11:33Z</time>
      </trkpt>
      <trkpt lat="43.73591" lon="3.53375">
        <ele>263.288</ele>
        <time>2008-04-19T08:11:37Z</time>
      </trkpt>
      <trkpt lat="43.73603" lon="3.53363">
        <ele>262.965</ele>
        <time>2008-04-19T08:11:45Z</time>
      </trkpt>
      <trkpt lat="43.73609" lon="3.53347">
        <ele>264.771</ele>
        <time>2008-04-19T08:11:55Z</time>
      </trkpt>
      <trkpt lat="43.73612" lon="3.53334">
        <ele>265.912</ele>
        <time>2008-04-19T08:12:03Z</time>
      </trkpt>
      <trkpt lat="43.73614" lon="3.53334">
        <ele>266.937</ele>
        <time>2008-04-19T08:12:14Z</time>
      </trkpt>
      <trkpt lat="43.7361" lon="3.53319">
        <ele>267.116</ele>
        <time>2008-04-19T08:12:50Z</time>
      </trkpt>
      <trkpt lat="43.73609" lon="3.53321">
        <ele>266.85</ele>
        <time>2008-04-19T08:13:40Z</time>
      </trkpt>
      <trkpt lat="43.73615" lon="3.53308">
        <ele>268.327</ele>
        <time>2008-04-19T08:13:57Z</time>
      </trkpt>
      <trkpt lat="43.73618" lon="3.53301">
        <ele>268.191</ele>
        <time>2008-04-19T08:14:02Z</time>
      </trkpt>
      <trkpt lat="43.73616" lon="3.5329">
        <ele>269.103</ele>
        <time>2008-04-19T08:14:09Z</time>
      </trkpt>
      <trkpt lat="43.73617" lon="3.53276">
        <ele>271.279</ele>
        <time>2008-04-19T08:14:18Z</time>
      </trkpt>
      <trkpt lat="43.73624" lon="3.53261">
        <ele>272.765</ele>
        <time>2008-04-19T08:14:30Z</time>
      </trkpt>
      <trkpt lat="43.73624" lon="3.53256">
        <ele>273.094</ele>
        <time>2008-04-19T08:14:34Z</time>
      </trkpt>
      <trkpt lat="43.73625" lon="3.53247">
        <ele>274.426</ele>
        <time>2008-04-19T08:14:40Z</time>
      </trkpt>
      <trkpt lat="43.73629" lon="3.53238">
        <ele>275.098</ele>
        <time>2008-04-19T08:14:50Z</time>
      </trkpt>
      <trkpt lat="43.7363" lon="3.53233">
        <ele>275.169</ele>
        <time>2008-04-19T08:15:04Z</time>
      </trkpt>
      <trkpt lat="43.73628" lon="3.53219">
        <ele>277.138</ele>
        <time>2008-04-19T08:15:17Z</time>
      </trkpt>
      <trkpt lat="43.73599" lon="3.53222">
        <ele>276.899</ele>
        <time>2008-04-19T08:15:45Z</time>
      </trkpt>
      <trkpt lat="43.73608" lon="3.53221">
        <ele>276.56</ele>
        <time>2008-04-19T08:15:56Z</time>
      </trkpt>
      <trkpt lat="43.73615" lon="3.53215">
        <ele>276.378</ele>
        <time>2008-04-19T08:16:23Z</time>
      </trkpt>
      <trkpt lat="43.73621" lon="3.53208">
        <ele>277.527</ele>
        <time>2008-04-19T08:16:46Z</time>
      </trkpt>
      <trkpt lat="43.73625" lon="3.53199">
        <ele>279.072</ele>
        <time>2008-04-19T08:16:55Z</time>
      </trkpt>
      <trkpt lat="43.73623" lon="3.53192">
        <ele>280.039</ele>
        <time>2008-04-19T08:17:03Z</time>
      </trkpt>
      <trkpt lat="43.73625" lon="3.53185">
        <ele>280.7</ele>
        <time>2008-04-19T08:17:07Z</time>
      </trkpt>
      <trkpt lat="43.73633" lon="3.53168">
        <ele>281.145</ele>
        <time>2008-04-19T08:17:18Z</time>
      </trkpt>
      <trkpt lat="43.73637" lon="3.53161">
        <ele>280.883</ele>
        <time>2008-04-19T08:17:23Z</time>
      </trkpt>
      <trkpt lat="43.73642" lon="3.53148">
        <ele>281.022</ele>
        <time>2008-04-19T08:17:31Z</time>
      </trkpt>
      <trkpt lat="43.73664" lon="3.53135">
        <ele>281.264</ele>
        <time>2008-04-19T08:17:45Z</time>
      </trkpt>
      <trkpt lat="43.73676" lon="3.53134">
        <ele>281.199</ele>
        <time>2008-04-19T08:17:47Z</time>
      </trkpt>
      <trkpt lat="43.73676" lon="3.53121">
        <ele>282.23</ele>
        <time>2008-04-19T08:18:05Z</time>
      </trkpt>
      <trkpt lat="43.73678" lon="3.53113">
        <ele>283.075</ele>
        <time>2008-04-19T08:18:15Z</time>
      </trkpt>
      <trkpt lat="43.73682" lon="3.53099">
        <ele>285.787</ele>
        <time>2008-04-19T08:18:26Z</time>
      </trkpt>
      <trkpt lat="43.73683" lon="3.53098">
        <ele>285.199</ele>
        <time>2008-04-19T08:18:27Z</time>
      </trkpt>
      <trkpt lat="43.73685" lon="3.53085">
        <ele>286.854</ele>
        <time>2008-04-19T08:18:36Z</time>
      </trkpt>
      <trkpt lat="43.73686" lon="3.53084">
        <ele>288.073</ele>
        <time>2008-04-19T08:18:38Z</time>
      </trkpt>
      <trkpt lat="43.73688" lon="3.53082">
        <ele>288.841</ele>
        <time>2008-04-19T08:18:40Z</time>
      </trkpt>
      <trkpt lat="43.73689" lon="3.5308">
        <ele>289.334</ele>
        <time>2008-04-19T08:18:42Z</time>
      </trkpt>
      <trkpt lat="43.73692" lon="3.53077">
        <ele>290.626</ele>
        <time>2008-04-19T08:18:46Z</time>
      </trkpt>
      <trkpt lat="43.73699" lon="3.53071">
        <ele>292.127</ele>
        <time>2008-04-19T08:18:54Z</time>
      </trkpt>
      <trkpt lat="43.73705" lon="3.53072">
        <ele>292.581</ele>
        <time>2008-04-19T08:18:59Z</time>
      </trkpt>
      <trkpt lat="43.73708" lon="3.53071">
        <ele>291.214</ele>
        <time>2008-04-19T08:19:03Z</time>
      </trkpt>
      <trkpt lat="43.73715" lon="3.53064">
        <ele>291.808</ele>
        <time>2008-04-19T08:19:09Z</time>
      </trkpt>
      <trkpt lat="43.73716" lon="3.5306">
        <ele>294.855</ele>
        <time>2008-04-19T08:19:12Z</time>
      </trkpt>
      <trkpt lat="43.73717" lon="3.5306">
        <ele>291.366</ele>
        <time>2008-04-19T08:19:13Z</time>
      </trkpt>
      <trkpt lat="43.73725" lon="3.53059">
        <ele>290.783</ele>
        <time>2008-04-19T08:19:22Z</time>
      </trkpt>
      <trkpt lat="43.73732" lon="3.53053">
        <ele>290.684</ele>
        <time>2008-04-19T08:19:29Z</time>
      </trkpt>
      <trkpt lat="43.73742" lon="3.53058">
        <ele>292.008</ele>
        <time>2008-04-19T08:19:41Z</time>
      </trkpt>
      <trkpt lat="43.73745" lon="3.53052">
        <ele>292.323</ele>
        <time>2008-04-19T08:19:54Z</time>
      </trkpt>
      <trkpt lat="43.73754" lon="3.53043">
        <ele>293.732</ele>
        <time>2008-04-19T08:20:07Z</time>
      </trkpt>
      <trkpt lat="43.7376" lon="3.53036">
        <ele>295.719</ele>
        <time>2008-04-19T08:20:17Z</time>
      </trkpt>
      <trkpt lat="43.73763" lon="3.53033">
        <ele>296.622</ele>
        <time>2008-04-19T08:20:36Z</time>
      </trkpt>
      <trkpt lat="43.73768" lon="3.5302">
        <ele>298.71</ele>
        <time>2008-04-19T08:20:48Z</time>
      </trkpt>
      <trkpt lat="43.73772" lon="3.53008">
        <ele>300.629</ele>
        <time>2008-04-19T08:20:58Z</time>
      </trkpt>
      <trkpt lat="43.73778" lon="3.53004">
        <ele>303.039</ele>
        <time>2008-04-19T08:21:07Z</time>
      </trkpt>
      <trkpt lat="43.73779" lon="3.53004">
        <ele>303.545</ele>
        <time>2008-04-19T08:21:08Z</time>
      </trkpt>
      <trkpt lat="43.73784" lon="3.53003">
        <ele>304.856</ele>
        <time>2008-04-19T08:21:13Z</time>
      </trkpt>
      <trkpt lat="43.73795" lon="3.53002">
        <ele>305.736</ele>
        <time>2008-04-19T08:21:21Z</time>
      </trkpt>
      <trkpt lat="43.73805" lon="3.53008">
        <ele>307.932</ele>
        <time>2008-04-19T08:21:35Z</time>
      </trkpt>
      <trkpt lat="43.7381" lon="3.53017">
        <ele>311.105</ele>
        <time>2008-04-19T08:22:00Z</time>
      </trkpt>
      <trkpt lat="43.73811" lon="3.53021">
        <ele>311.781</ele>
        <time>2008-04-19T08:22:10Z</time>
      </trkpt>
      <trkpt lat="43.73813" lon="3.53009">
        <ele>314.947</ele>
        <time>2008-04-19T08:22:22Z</time>
      </trkpt>
      <trkpt lat="43.738" lon="3.52993">
        <ele>318.385</ele>
        <time>2008-04-19T08:22:40Z</time>
      </trkpt>
      <trkpt lat="43.73793" lon="3.52989">
        <ele>320.691</ele>
        <time>2008-04-19T08:22:52Z</time>
      </trkpt>
      <trkpt lat="43.73789" lon="3.53006">
        <ele>320.431</ele>
        <time>2008-04-19T08:23:28Z</time>
      </trkpt>
      <trkpt lat="43.73808" lon="3.5299">
        <ele>323.696</ele>
        <time>2008-04-19T08:23:55Z</time>
      </trkpt>
      <trkpt lat="43.738" lon="3.52985">
        <ele>326.13</ele>
        <time>2008-04-19T08:24:18Z</time>
      </trkpt>
      <trkpt lat="43.738" lon="3.53027">
        <ele>325.934</ele>
        <time>2008-04-19T08:24:30Z</time>
      </trkpt>
      <trkpt lat="43.73796" lon="3.53014">
        <ele>326.785</ele>
        <time>2008-04-19T08:24:37Z</time>
      </trkpt>
      <trkpt lat="43.7379" lon="3.53006">
        <ele>328.07</ele>
        <time>2008-04-19T08:24:46Z</time>
      </trkpt>
      <trkpt lat="43.73796" lon="3.53004">
        <ele>329.695</ele>
        <time>2008-04-19T08:25:05Z</time>
      </trkpt>
      <trkpt lat="43.73817" lon="3.52988">
        <ele>329.957</ele>
        <time>2008-04-19T08:25:29Z</time>
      </trkpt>
      <trkpt lat="43.73807" lon="3.52992">
        <ele>329.622</ele>
        <time>2008-04-19T08:25:37Z</time>
      </trkpt>
      <trkpt lat="43.73785" lon="3.52993">
        <ele>331.619</ele>
        <time>2008-04-19T08:25:48Z</time>
      </trkpt>
      <trkpt lat="43.73785" lon="3.52992">
        <ele>333.275</ele>
        <time>2008-04-19T08:26:11Z</time>
      </trkpt>
      <trkpt lat="43.7378" lon="3.52988">
        <ele>332.335</ele>
        <time>2008-04-19T08:26:28Z</time>
      </trkpt>
      <trkpt lat="43.73775" lon="3.52988">
        <ele>333.315</ele>
        <time>2008-04-19T08:26:38Z</time>
      </trkpt>
      <trkpt lat="43.73773" lon="3.52976">
        <ele>334.929</ele>
        <time>2008-04-19T08:26:45Z</time>
      </trkpt>
      <trkpt lat="43.73769" lon="3.52958">
        <ele>337.478</ele>
        <time>2008-04-19T08:26:56Z</time>
      </trkpt>
      <trkpt lat="43.73767" lon="3.52956">
        <ele>338.727</ele>
        <time>2008-04-19T08:26:59Z</time>
      </trkpt>
      <trkpt lat="43.73776" lon="3.52964">
        <ele>341.654</ele>
        <time>2008-04-19T08:27:10Z</time>
      </trkpt>
      <trkpt lat="43.73776" lon="3.52966">
        <ele>341.384</ele>
        <time>2008-04-19T08:27:11Z</time>
      </trkpt>
      <trkpt lat="43.7378" lon="3.52971">
        <ele>342.218</ele>
        <time>2008-04-19T08:27:15Z</time>
      </trkpt>
      <trkpt lat="43.73786" lon="3.52976">
        <ele>344.115</ele>
        <time>2008-04-19T08:27:24Z</time>
      </trkpt>
      <trkpt lat="43.73784" lon="3.52976">
        <ele>342.74</ele>
        <time>2008-04-19T08:27:30Z</time>
      </trkpt>
      <trkpt lat="43.73781" lon="3.52972">
        <ele>344.149</ele>
        <time>2008-04-19T08:27:47Z</time>
      </trkpt>
      <trkpt lat="43.7379" lon="3.52966">
        <ele>344.529</ele>
        <time>2008-04-19T08:28:10Z</time>
      </trkpt>
      <trkpt lat="43.73794" lon="3.52972">
        <ele>343.03</ele>
        <time>2008-04-19T08:28:15Z</time>
      </trkpt>
      <trkpt lat="43.73805" lon="3.5298">
        <ele>341.146</ele>
        <time>2008-04-19T08:28:26Z</time>
      </trkpt>
      <trkpt lat="43.73809" lon="3.52978">
        <ele>341.45</ele>
        <time>2008-04-19T08:28:29Z</time>
      </trkpt>
      <trkpt lat="43.73819" lon="3.52967">
        <ele>342.068</ele>
        <time>2008-04-19T08:28:36Z</time>
      </trkpt>
      <trkpt lat="43.73825" lon="3.52932">
        <ele>344.136</ele>
        <time>2008-04-19T08:28:47Z</time>
      </trkpt>
      <trkpt lat="43.7383" lon="3.52957">
        <ele>347.645</ele>
        <time>2008-04-19T08:28:59Z</time>
      </trkpt>
      <trkpt lat="43.73824" lon="3.53017">
        <ele>348.749</ele>
        <time>2008-04-19T08:29:08Z</time>
      </trkpt>
      <trkpt lat="43.73825" lon="3.5303">
        <ele>349.225</ele>
        <time>2008-04-19T08:29:18Z</time>
      </trkpt>
      <trkpt lat="43.73834" lon="3.53035">
        <ele>351.132</ele>
        <time>2008-04-19T08:29:29Z</time>
      </trkpt>
      <trkpt lat="43.73833" lon="3.53034">
        <ele>351.183</ele>
        <time>2008-04-19T08:29:50Z</time>
      </trkpt>
      <trkpt lat="43.73831" lon="3.5304">
        <ele>350.595</ele>
        <time>2008-04-19T08:30:06Z</time>
      </trkpt>
      <trkpt lat="43.73829" lon="3.53038">
        <ele>349.414</ele>
        <time>2008-04-19T08:30:41Z</time>
      </trkpt>
      <trkpt lat="43.73831" lon="3.5304">
        <ele>348.081</ele>
        <time>2008-04-19T08:30:57Z</time>
      </trkpt>
      <trkpt lat="43.73831" lon="3.5304">
        <ele>348.846</ele>
        <time>2008-04-19T08:30:58Z</time>
      </trkpt>
      <trkpt lat="43.7383" lon="3.53041">
        <ele>350.114</ele>
        <time>2008-04-19T08:31:37Z</time>
      </trkpt>
      <trkpt lat="43.7383" lon="3.53042">
        <ele>350.403</ele>
        <time>2008-04-19T08:35:23Z</time>
      </trkpt>
      <trkpt lat="43.73831" lon="3.53042">
        <ele>349.641</ele>
        <time>2008-04-19T08:36:54Z</time>
      </trkpt>
      <trkpt lat="43.7383" lon="3.53044">
        <ele>348.982</ele>
        <time>2008-04-19T08:38:13Z</time>
      </trkpt>
      <trkpt lat="43.7383" lon="3.53047">
        <ele>349.403</ele>
        <time>2008-04-19T08:38:57Z</time>
      </trkpt>
      <trkpt lat="43.73831" lon="3.53041">
        <ele>348.933</ele>
        <time>2008-04-19T08:39:27Z</time>
      </trkpt>
      <trkpt lat="43.7383" lon="3.53045">
        <ele>348.74</ele>
        <time>2008-04-19T08:40:07Z</time>
      </trkpt>
      <trkpt lat="43.7383" lon="3.53046">
        <ele>348.461</ele>
        <time>2008-04-19T08:40:22Z</time>
      </trkpt>
      <trkpt lat="43.73834" lon="3.53044">
        <ele>347.672</ele>
        <time>2008-04-19T08:40:38Z</time>
      </trkpt>
      <trkpt lat="43.73839" lon="3.53037">
        <ele>348.521</ele>
        <time>2008-04-19T08:41:00Z</time>
      </trkpt>
      <trkpt lat="43.73836" lon="3.53038">
        <ele>347.863</ele>
        <time>2008-04-19T08:41:27Z</time>
      </trkpt>
      <trkpt lat="43.73835" lon="3.5304">
        <ele>348.669</ele>
        <time>2008-04-19T08:42:05Z</time>
      </trkpt>
      <trkpt lat="43.7383" lon="3.53045">
        <ele>349.393</ele>
        <time>2008-04-19T08:43:43Z</time>
      </trkpt>
      <trkpt lat="43.73828" lon="3.53044">
        <ele>349.273</ele>
        <time>2008-04-19T08:45:11Z</time>
      </trkpt>
      <trkpt lat="43.73831" lon="3.53043">
        <ele>348.773</ele>
        <time>2008-04-19T08:46:03Z</time>
      </trkpt>
      <trkpt lat="43.73833" lon="3.53038">
        <ele>350.907</ele>
        <time>2008-04-19T08:48:15Z</time>
      </trkpt>
      <trkpt lat="43.7384" lon="3.53042">
        <ele>350.336</ele>
        <time>2008-04-19T08:48:22Z</time>
      </trkpt>
      <trkpt lat="43.73845" lon="3.53047">
        <ele>348.534</ele>
        <time>2008-04-19T08:48:28Z</time>
      </trkpt>
      <trkpt lat="43.73854" lon="3.53047">
        <ele>347.225</ele>
        <time>2008-04-19T08:48:39Z</time>
      </trkpt>
      <trkpt lat="43.73856" lon="3.53047">
        <ele>347.458</ele>
        <time>2008-04-19T08:48:42Z</time>
      </trkpt>
      <trkpt lat="43.73861" lon="3.53049">
        <ele>346.071</ele>
        <time>2008-04-19T08:48:49Z</time>
      </trkpt>
      <trkpt lat="43.73865" lon="3.53048">
        <ele>345.313</ele>
        <time>2008-04-19T08:48:52Z</time>
      </trkpt>
      <trkpt lat="43.7387" lon="3.5305">
        <ele>344.713</ele>
        <time>2008-04-19T08:48:57Z</time>
      </trkpt>
      <trkpt lat="43.73874" lon="3.53046">
        <ele>343.97</ele>
        <time>2008-04-19T08:49:00Z</time>
      </trkpt>
      <trkpt lat="43.73882" lon="3.53045">
        <ele>342.278</ele>
        <time>2008-04-19T08:49:10Z</time>
      </trkpt>
      <trkpt lat="43.73888" lon="3.53045">
        <ele>342.07</ele>
        <time>2008-04-19T08:49:14Z</time>
      </trkpt>
      <trkpt lat="43.73898" lon="3.53045">
        <ele>340.055</ele>
        <time>2008-04-19T08:49:25Z</time>
      </trkpt>
      <trkpt lat="43.73905" lon="3.53043">
        <ele>339.865</ele>
        <time>2008-04-19T08:49:32Z</time>
      </trkpt>
      <trkpt lat="43.73913" lon="3.53045">
        <ele>337.445</ele>
        <time>2008-04-19T08:49:39Z</time>
      </trkpt>
      <trkpt lat="43.73926" lon="3.53039">
        <ele>336.126</ele>
        <time>2008-04-19T08:49:50Z</time>
      </trkpt>
      <trkpt lat="43.73937" lon="3.53031">
        <ele>334.948</ele>
        <time>2008-04-19T08:50:01Z</time>
      </trkpt>
      <trkpt lat="43.73939" lon="3.53028">
        <ele>334.65</ele>
        <time>2008-04-19T08:50:03Z</time>
      </trkpt>
      <trkpt lat="43.73944" lon="3.53014">
        <ele>334.125</ele>
        <time>2008-04-19T08:50:13Z</time>
      </trkpt>
      <trkpt lat="43.73945" lon="3.53013">
        <ele>334.096</ele>
        <time>2008-04-19T08:50:14Z</time>
      </trkpt>
      <trkpt lat="43.73945" lon="3.53007">
        <ele>334.237</ele>
        <time>2008-04-19T08:50:17Z</time>
      </trkpt>
      <trkpt lat="43.73945" lon="3.52986">
        <ele>333.514</ele>
        <time>2008-04-19T08:50:28Z</time>
      </trkpt>
      <trkpt lat="43.73945" lon="3.52967">
        <ele>333.173</ele>
        <time>2008-04-19T08:50:40Z</time>
      </trkpt>
      <trkpt lat="43.73945" lon="3.52956">
        <ele>332.932</ele>
        <time>2008-04-19T08:50:46Z</time>
      </trkpt>
      <trkpt lat="43.7395" lon="3.52939">
        <ele>331.33</ele>
        <time>2008-04-19T08:50:57Z</time>
      </trkpt>
      <trkpt lat="43.73949" lon="3.5293">
        <ele>330.163</ele>
        <time>2008-04-19T08:51:02Z</time>
      </trkpt>
      <trkpt lat="43.7395" lon="3.52911">
        <ele>329.798</ele>
        <time>2008-04-19T08:51:14Z</time>
      </trkpt>
      <trkpt lat="43.73953" lon="3.52891">
        <ele>330.299</ele>
        <time>2008-04-19T08:51:29Z</time>
      </trkpt>
      <trkpt lat="43.73957" lon="3.5287">
        <ele>331</ele>
        <time>2008-04-19T08:51:41Z</time>
      </trkpt>
      <trkpt lat="43.73958" lon="3.52863">
        <ele>330.056</ele>
        <time>2008-04-19T08:51:45Z</time>
      </trkpt>
      <trkpt lat="43.73957" lon="3.52856">
        <ele>329.884</ele>
        <time>2008-04-19T08:51:50Z</time>
      </trkpt>
      <trkpt lat="43.73961" lon="3.52846">
        <ele>329.909</ele>
        <time>2008-04-19T08:51:55Z</time>
      </trkpt>
      <trkpt lat="43.73961" lon="3.52837">
        <ele>329.396</ele>
        <time>2008-04-19T08:52:00Z</time>
      </trkpt>
      <trkpt lat="43.73958" lon="3.52815">
        <ele>327.65</ele>
        <time>2008-04-19T08:52:13Z</time>
      </trkpt>
      <trkpt lat="43.7397" lon="3.528">
        <ele>326.157</ele>
        <time>2008-04-19T08:52:25Z</time>
      </trkpt>
      <trkpt lat="43.73975" lon="3.52785">
        <ele>324.239</ele>
        <time>2008-04-19T08:52:37Z</time>
      </trkpt>
      <trkpt lat="43.73972" lon="3.52764">
        <ele>324.066</ele>
        <time>2008-04-19T08:52:49Z</time>
      </trkpt>
      <trkpt lat="43.73973" lon="3.52758">
        <ele>322.792</ele>
        <time>2008-04-19T08:52:52Z</time>
      </trkpt>
      <trkpt lat="43.73973" lon="3.52752">
        <ele>321.739</ele>
        <time>2008-04-19T08:52:55Z</time>
      </trkpt>
      <trkpt lat="43.73974" lon="3.52744">
        <ele>322.082</ele>
        <time>2008-04-19T08:52:59Z</time>
      </trkpt>
      <trkpt lat="43.73974" lon="3.52731">
        <ele>321.251</ele>
        <time>2008-04-19T08:53:06Z</time>
      </trkpt>
      <trkpt lat="43.73975" lon="3.52716">
        <ele>319.945</ele>
        <time>2008-04-19T08:53:14Z</time>
      </trkpt>
      <trkpt lat="43.73975" lon="3.5271">
        <ele>320.093</ele>
        <time>2008-04-19T08:53:17Z</time>
      </trkpt>
      <trkpt lat="43.73973" lon="3.52694">
        <ele>319.507</ele>
        <time>2008-04-19T08:53:26Z</time>
      </trkpt>
      <trkpt lat="43.73974" lon="3.52682">
        <ele>318.614</ele>
        <time>2008-04-19T08:53:32Z</time>
      </trkpt>
      <trkpt lat="43.73971" lon="3.52679">
        <ele>319.079</ele>
        <time>2008-04-19T08:53:35Z</time>
      </trkpt>
      <trkpt lat="43.73969" lon="3.52672">
        <ele>317.982</ele>
        <time>2008-04-19T08:53:39Z</time>
      </trkpt>
      <trkpt lat="43.73965" lon="3.52664">
        <ele>318.549</ele>
        <time>2008-04-19T08:53:44Z</time>
      </trkpt>
      <trkpt lat="43.73956" lon="3.52644">
        <ele>317.346</ele>
        <time>2008-04-19T08:53:57Z</time>
      </trkpt>
      <trkpt lat="43.7395" lon="3.52616">
        <ele>316.217</ele>
        <time>2008-04-19T08:54:15Z</time>
      </trkpt>
      <trkpt lat="43.73938" lon="3.52595">
        <ele>315.874</ele>
        <time>2008-04-19T08:54:30Z</time>
      </trkpt>
      <trkpt lat="43.73925" lon="3.52582">
        <ele>315.679</ele>
        <time>2008-04-19T08:54:43Z</time>
      </trkpt>
      <trkpt lat="43.73923" lon="3.52581">
        <ele>314.422</ele>
        <time>2008-04-19T08:54:46Z</time>
      </trkpt>
      <trkpt lat="43.73917" lon="3.52568">
        <ele>312.655</ele>
        <time>2008-04-19T08:54:56Z</time>
      </trkpt>
      <trkpt lat="43.73919" lon="3.52566">
        <ele>313.043</ele>
        <time>2008-04-19T08:54:58Z</time>
      </trkpt>
      <trkpt lat="43.73922" lon="3.52564">
        <ele>310.891</ele>
        <time>2008-04-19T08:55:01Z</time>
      </trkpt>
      <trkpt lat="43.73937" lon="3.52556">
        <ele>310.523</ele>
        <time>2008-04-19T08:55:15Z</time>
      </trkpt>
      <trkpt lat="43.73944" lon="3.52533">
        <ele>310.821</ele>
        <time>2008-04-19T08:55:29Z</time>
      </trkpt>
      <trkpt lat="43.73934" lon="3.52503">
        <ele>310.216</ele>
        <time>2008-04-19T08:55:47Z</time>
      </trkpt>
      <trkpt lat="43.7393" lon="3.52492">
        <ele>309.802</ele>
        <time>2008-04-19T08:55:55Z</time>
      </trkpt>
      <trkpt lat="43.73934" lon="3.52474">
        <ele>309.501</ele>
        <time>2008-04-19T08:56:06Z</time>
      </trkpt>
      <trkpt lat="43.73931" lon="3.52442">
        <ele>308.485</ele>
        <time>2008-04-19T08:56:26Z</time>
      </trkpt>
      <trkpt lat="43.7393" lon="3.52423">
        <ele>307.429</ele>
        <time>2008-04-19T08:56:38Z</time>
      </trkpt>
      <trkpt lat="43.73925" lon="3.52409">
        <ele>307.477</ele>
        <time>2008-04-19T08:56:53Z</time>
      </trkpt>
      <trkpt lat="43.73923" lon="3.52403">
        <ele>307.423</ele>
        <time>2008-04-19T08:57:02Z</time>
      </trkpt>
      <trkpt lat="43.73922" lon="3.52394">
        <ele>307.276</ele>
        <time>2008-04-19T08:57:07Z</time>
      </trkpt>
      <trkpt lat="43.73922" lon="3.52384">
        <ele>306.529</ele>
        <time>2008-04-19T08:57:13Z</time>
      </trkpt>
      <trkpt lat="43.73922" lon="3.52366">
        <ele>305.524</ele>
        <time>2008-04-19T08:57:24Z</time>
      </trkpt>
      <trkpt lat="43.73922" lon="3.52356">
        <ele>305.008</ele>
        <time>2008-04-19T08:57:29Z</time>
      </trkpt>
      <trkpt lat="43.73919" lon="3.5234">
        <ele>304.244</ele>
        <time>2008-04-19T08:57:38Z</time>
      </trkpt>
      <trkpt lat="43.73918" lon="3.52332">
        <ele>303.578</ele>
        <time>2008-04-19T08:57:48Z</time>
      </trkpt>
      <trkpt lat="43.73922" lon="3.52329">
        <ele>303.433</ele>
        <time>2008-04-19T08:57:57Z</time>
      </trkpt>
      <trkpt lat="43.73926" lon="3.52321">
        <ele>303.682</ele>
        <time>2008-04-19T08:58:02Z</time>
      </trkpt>
      <trkpt lat="43.73931" lon="3.52313">
        <ele>302.822</ele>
        <time>2008-04-19T08:58:07Z</time>
      </trkpt>
      <trkpt lat="43.73937" lon="3.52304">
        <ele>301.987</ele>
        <time>2008-04-19T08:58:21Z</time>
      </trkpt>
      <trkpt lat="43.73938" lon="3.52298">
        <ele>301.669</ele>
        <time>2008-04-19T08:58:36Z</time>
      </trkpt>
      <trkpt lat="43.7394" lon="3.52298">
        <ele>301.591</ele>
        <time>2008-04-19T08:58:47Z</time>
      </trkpt>
      <trkpt lat="43.73942" lon="3.52295">
        <ele>301.619</ele>
        <time>2008-04-19T08:58:50Z</time>
      </trkpt>
      <trkpt lat="43.73953" lon="3.52281">
        <ele>300.909</ele>
        <time>2008-04-19T08:59:02Z</time>
      </trkpt>
      <trkpt lat="43.73955" lon="3.52278">
        <ele>300.161</ele>
        <time>2008-04-19T08:59:06Z</time>
      </trkpt>
      <trkpt lat="43.73961" lon="3.52273">
        <ele>300.103</ele>
        <time>2008-04-19T08:59:11Z</time>
      </trkpt>
      <trkpt lat="43.73968" lon="3.52259">
        <ele>300.431</ele>
        <time>2008-04-19T08:59:23Z</time>
      </trkpt>
      <trkpt lat="43.73975" lon="3.52249">
        <ele>300.293</ele>
        <time>2008-04-19T08:59:36Z</time>
      </trkpt>
      <trkpt lat="43.73978" lon="3.52238">
        <ele>300.181</ele>
        <time>2008-04-19T08:59:58Z</time>
      </trkpt>
      <trkpt lat="43.73985" lon="3.52222">
        <ele>300.809</ele>
        <time>2008-04-19T09:00:09Z</time>
      </trkpt>
      <trkpt lat="43.73987" lon="3.52203">
        <ele>300.702</ele>
        <time>2008-04-19T09:00:18Z</time>
      </trkpt>
      <trkpt lat="43.73988" lon="3.522">
        <ele>300.921</ele>
        <time>2008-04-19T09:00:20Z</time>
      </trkpt>
      <trkpt lat="43.73991" lon="3.52188">
        <ele>300.667</ele>
        <time>2008-04-19T09:00:27Z</time>
      </trkpt>
      <trkpt lat="43.73989" lon="3.52177">
        <ele>300.829</ele>
        <time>2008-04-19T09:00:33Z</time>
      </trkpt>
      <trkpt lat="43.73992" lon="3.5217">
        <ele>300.775</ele>
        <time>2008-04-19T09:00:37Z</time>
      </trkpt>
      <trkpt lat="43.73992" lon="3.52165">
        <ele>301.384</ele>
        <time>2008-04-19T09:00:40Z</time>
      </trkpt>
      <trkpt lat="43.73993" lon="3.52154">
        <ele>301.254</ele>
        <time>2008-04-19T09:00:45Z</time>
      </trkpt>
      <trkpt lat="43.73993" lon="3.52146">
        <ele>300.753</ele>
        <time>2008-04-19T09:00:49Z</time>
      </trkpt>
      <trkpt lat="43.73991" lon="3.5214">
        <ele>301.359</ele>
        <time>2008-04-19T09:00:54Z</time>
      </trkpt>
      <trkpt lat="43.73988" lon="3.52123">
        <ele>300.777</ele>
        <time>2008-04-19T09:01:05Z</time>
      </trkpt>
      <trkpt lat="43.73991" lon="3.52106">
        <ele>301.707</ele>
        <time>2008-04-19T09:01:14Z</time>
      </trkpt>
      <trkpt lat="43.74003" lon="3.52083">
        <ele>301.873</ele>
        <time>2008-04-19T09:01:25Z</time>
      </trkpt>
      <trkpt lat="43.74012" lon="3.5207">
        <ele>302.174</ele>
        <time>2008-04-19T09:01:32Z</time>
      </trkpt>
      <trkpt lat="43.74015" lon="3.52056">
        <ele>302.884</ele>
        <time>2008-04-19T09:01:44Z</time>
      </trkpt>
      <trkpt lat="43.74023" lon="3.52045">
        <ele>303.136</ele>
        <time>2008-04-19T09:01:52Z</time>
      </trkpt>
      <trkpt lat="43.74025" lon="3.5204">
        <ele>302.858</ele>
        <time>2008-04-19T09:01:55Z</time>
      </trkpt>
      <trkpt lat="43.74028" lon="3.52038">
        <ele>302.734</ele>
        <time>2008-04-19T09:01:59Z</time>
      </trkpt>
      <trkpt lat="43.7403" lon="3.52033">
        <ele>302.972</ele>
        <time>2008-04-19T09:02:03Z</time>
      </trkpt>
      <trkpt lat="43.74036" lon="3.52023">
        <ele>303.897</ele>
        <time>2008-04-19T09:02:12Z</time>
      </trkpt>
      <trkpt lat="43.74037" lon="3.52018">
        <ele>304.038</ele>
        <time>2008-04-19T09:02:14Z</time>
      </trkpt>
      <trkpt lat="43.74045" lon="3.52016">
        <ele>305.127</ele>
        <time>2008-04-19T09:02:22Z</time>
      </trkpt>
      <trkpt lat="43.74051" lon="3.52015">
        <ele>304.606</ele>
        <time>2008-04-19T09:02:27Z</time>
      </trkpt>
      <trkpt lat="43.74065" lon="3.52001">
        <ele>306.408</ele>
        <time>2008-04-19T09:02:39Z</time>
      </trkpt>
      <trkpt lat="43.74069" lon="3.51988">
        <ele>306.811</ele>
        <time>2008-04-19T09:02:49Z</time>
      </trkpt>
      <trkpt lat="43.74072" lon="3.51984">
        <ele>306.705</ele>
        <time>2008-04-19T09:02:53Z</time>
      </trkpt>
      <trkpt lat="43.74079" lon="3.51976">
        <ele>307.514</ele>
        <time>2008-04-19T09:03:00Z</time>
      </trkpt>
      <trkpt lat="43.74086" lon="3.51965">
        <ele>307.767</ele>
        <time>2008-04-19T09:03:10Z</time>
      </trkpt>
      <trkpt lat="43.74089" lon="3.51962">
        <ele>307.925</ele>
        <time>2008-04-19T09:03:13Z</time>
      </trkpt>
      <trkpt lat="43.74095" lon="3.51952">
        <ele>308.151</ele>
        <time>2008-04-19T09:03:22Z</time>
      </trkpt>
      <trkpt lat="43.74096" lon="3.51946">
        <ele>308.303</ele>
        <time>2008-04-19T09:03:25Z</time>
      </trkpt>
      <trkpt lat="43.74101" lon="3.51937">
        <ele>308.521</ele>
        <time>2008-04-19T09:03:31Z</time>
      </trkpt>
      <trkpt lat="43.74105" lon="3.51928">
        <ele>308.842</ele>
        <time>2008-04-19T09:03:36Z</time>
      </trkpt>
      <trkpt lat="43.74107" lon="3.51912">
        <ele>310.315</ele>
        <time>2008-04-19T09:03:47Z</time>
      </trkpt>
      <trkpt lat="43.74107" lon="3.51911">
        <ele>309.445</ele>
        <time>2008-04-19T09:03:48Z</time>
      </trkpt>
      <trkpt lat="43.74106" lon="3.51896">
        <ele>309.46</ele>
        <time>2008-04-19T09:03:57Z</time>
      </trkpt>
      <trkpt lat="43.741" lon="3.51878">
        <ele>312.548</ele>
        <time>2008-04-19T09:04:09Z</time>
      </trkpt>
      <trkpt lat="43.74099" lon="3.51876">
        <ele>312.559</ele>
        <time>2008-04-19T09:04:10Z</time>
      </trkpt>
      <trkpt lat="43.74094" lon="3.51873">
        <ele>307.527</ele>
        <time>2008-04-19T09:04:16Z</time>
      </trkpt>
      <trkpt lat="43.74082" lon="3.51872">
        <ele>310.498</ele>
        <time>2008-04-19T09:04:20Z</time>
      </trkpt>
      <trkpt lat="43.74082" lon="3.51858">
        <ele>310.797</ele>
        <time>2008-04-19T09:04:29Z</time>
      </trkpt>
      <trkpt lat="43.74082" lon="3.5185">
        <ele>310.94</ele>
        <time>2008-04-19T09:04:33Z</time>
      </trkpt>
      <trkpt lat="43.74082" lon="3.51835">
        <ele>312.692</ele>
        <time>2008-04-19T09:04:43Z</time>
      </trkpt>
      <trkpt lat="43.74084" lon="3.51823">
        <ele>315.475</ele>
        <time>2008-04-19T09:04:52Z</time>
      </trkpt>
      <trkpt lat="43.74083" lon="3.51813">
        <ele>315.894</ele>
        <time>2008-04-19T09:04:59Z</time>
      </trkpt>
      <trkpt lat="43.74084" lon="3.51808">
        <ele>316.649</ele>
        <time>2008-04-19T09:05:02Z</time>
      </trkpt>
      <trkpt lat="43.74087" lon="3.51803">
        <ele>317.584</ele>
        <time>2008-04-19T09:05:05Z</time>
      </trkpt>
      <trkpt lat="43.74088" lon="3.51797">
        <ele>317.799</ele>
        <time>2008-04-19T09:05:14Z</time>
      </trkpt>
      <trkpt lat="43.74095" lon="3.51785">
        <ele>318.103</ele>
        <time>2008-04-19T09:05:23Z</time>
      </trkpt>
      <trkpt lat="43.74101" lon="3.51776">
        <ele>318.097</ele>
        <time>2008-04-19T09:05:28Z</time>
      </trkpt>
      <trkpt lat="43.74103" lon="3.51773">
        <ele>318.618</ele>
        <time>2008-04-19T09:05:30Z</time>
      </trkpt>
      <trkpt lat="43.74108" lon="3.5176">
        <ele>321.241</ele>
        <time>2008-04-19T09:05:41Z</time>
      </trkpt>
      <trkpt lat="43.74112" lon="3.51756">
        <ele>321.96</ele>
        <time>2008-04-19T09:05:45Z</time>
      </trkpt>
      <trkpt lat="43.74119" lon="3.51746">
        <ele>323.931</ele>
        <time>2008-04-19T09:05:54Z</time>
      </trkpt>
      <trkpt lat="43.74123" lon="3.51741">
        <ele>324.044</ele>
        <time>2008-04-19T09:05:57Z</time>
      </trkpt>
      <trkpt lat="43.74127" lon="3.51736">
        <ele>324.794</ele>
        <time>2008-04-19T09:06:04Z</time>
      </trkpt>
      <trkpt lat="43.7413" lon="3.51733">
        <ele>324.332</ele>
        <time>2008-04-19T09:06:06Z</time>
      </trkpt>
      <trkpt lat="43.74132" lon="3.51726">
        <ele>324.503</ele>
        <time>2008-04-19T09:06:11Z</time>
      </trkpt>
      <trkpt lat="43.74134" lon="3.51717">
        <ele>324.321</ele>
        <time>2008-04-19T09:06:17Z</time>
      </trkpt>
      <trkpt lat="43.74138" lon="3.51707">
        <ele>323.926</ele>
        <time>2008-04-19T09:06:23Z</time>
      </trkpt>
      <trkpt lat="43.74143" lon="3.51699">
        <ele>324.165</ele>
        <time>2008-04-19T09:06:28Z</time>
      </trkpt>
      <trkpt lat="43.74154" lon="3.51682">
        <ele>324.914</ele>
        <time>2008-04-19T09:06:40Z</time>
      </trkpt>
      <trkpt lat="43.74162" lon="3.5167">
        <ele>325.448</ele>
        <time>2008-04-19T09:06:51Z</time>
      </trkpt>
      <trkpt lat="43.7417" lon="3.51663">
        <ele>325.927</ele>
        <time>2008-04-19T09:07:01Z</time>
      </trkpt>
      <trkpt lat="43.7418" lon="3.51656">
        <ele>326.52</ele>
        <time>2008-04-19T09:07:07Z</time>
      </trkpt>
      <trkpt lat="43.74186" lon="3.51638">
        <ele>326.5</ele>
        <time>2008-04-19T09:07:21Z</time>
      </trkpt>
      <trkpt lat="43.74186" lon="3.51637">
        <ele>326.359</ele>
        <time>2008-04-19T09:07:23Z</time>
      </trkpt>
      <trkpt lat="43.74194" lon="3.51623">
        <ele>326.086</ele>
        <time>2008-04-19T09:07:35Z</time>
      </trkpt>
      <trkpt lat="43.74199" lon="3.51615">
        <ele>326.577</ele>
        <time>2008-04-19T09:07:40Z</time>
      </trkpt>
      <trkpt lat="43.74194" lon="3.516">
        <ele>327.579</ele>
        <time>2008-04-19T09:07:51Z</time>
      </trkpt>
      <trkpt lat="43.74196" lon="3.51583">
        <ele>328.769</ele>
        <time>2008-04-19T09:08:08Z</time>
      </trkpt>
      <trkpt lat="43.74195" lon="3.51579">
        <ele>328.928</ele>
        <time>2008-04-19T09:08:10Z</time>
      </trkpt>
      <trkpt lat="43.74197" lon="3.51564">
        <ele>330.933</ele>
        <time>2008-04-19T09:08:23Z</time>
      </trkpt>
      <trkpt lat="43.74209" lon="3.51555">
        <ele>332.131</ele>
        <time>2008-04-19T09:08:47Z</time>
      </trkpt>
      <trkpt lat="43.74206" lon="3.51556">
        <ele>332.118</ele>
        <time>2008-04-19T09:09:09Z</time>
      </trkpt>
      <trkpt lat="43.74216" lon="3.51549">
        <ele>331.461</ele>
        <time>2008-04-19T09:09:33Z</time>
      </trkpt>
      <trkpt lat="43.74207" lon="3.51556">
        <ele>331.379</ele>
        <time>2008-04-19T09:09:49Z</time>
      </trkpt>
      <trkpt lat="43.74206" lon="3.51556">
        <ele>327.687</ele>
        <time>2008-04-19T09:09:59Z</time>
      </trkpt>
      <trkpt lat="43.74206" lon="3.51556">
        <ele>327.688</ele>
        <time>2008-04-19T09:10:00Z</time>
      </trkpt>
      <trkpt lat="43.74206" lon="3.51556">
        <ele>332.295</ele>
        <time>2008-04-19T09:10:01Z</time>
      </trkpt>
      <trkpt lat="43.74207" lon="3.51556">
        <ele>331.481</ele>
        <time>2008-04-19T09:10:02Z</time>
      </trkpt>
      <trkpt lat="43.74214" lon="3.51558">
        <ele>330.594</ele>
        <time>2008-04-19T09:10:29Z</time>
      </trkpt>
      <trkpt lat="43.74224" lon="3.51567">
        <ele>329.649</ele>
        <time>2008-04-19T09:10:41Z</time>
      </trkpt>
      <trkpt lat="43.74239" lon="3.51571">
        <ele>329.66</ele>
        <time>2008-04-19T09:10:55Z</time>
      </trkpt>
      <trkpt lat="43.74251" lon="3.51574">
        <ele>329.615</ele>
        <time>2008-04-19T09:11:06Z</time>
      </trkpt>
      <trkpt lat="43.74261" lon="3.51582">
        <ele>330.273</ele>
        <time>2008-04-19T09:11:24Z</time>
      </trkpt>
      <trkpt lat="43.74268" lon="3.51587">
        <ele>331.301</ele>
        <time>2008-04-19T09:11:31Z</time>
      </trkpt>
      <trkpt lat="43.74279" lon="3.51599">
        <ele>331.711</ele>
        <time>2008-04-19T09:11:46Z</time>
      </trkpt>
      <trkpt lat="43.74283" lon="3.51601">
        <ele>331.039</ele>
        <time>2008-04-19T09:12:00Z</time>
      </trkpt>
      <trkpt lat="43.74281" lon="3.51604">
        <ele>331.128</ele>
        <time>2008-04-19T09:12:15Z</time>
      </trkpt>
      <trkpt lat="43.74285" lon="3.51606">
        <ele>330.954</ele>
        <time>2008-04-19T09:12:28Z</time>
      </trkpt>
      <trkpt lat="43.74292" lon="3.51616">
        <ele>331.85</ele>
        <time>2008-04-19T09:12:39Z</time>
      </trkpt>
      <trkpt lat="43.74298" lon="3.51622">
        <ele>332.056</ele>
        <time>2008-04-19T09:12:45Z</time>
      </trkpt>
      <trkpt lat="43.74301" lon="3.51623">
        <ele>331.551</ele>
        <time>2008-04-19T09:12:48Z</time>
      </trkpt>
      <trkpt lat="43.74307" lon="3.51626">
        <ele>331.998</ele>
        <time>2008-04-19T09:12:55Z</time>
      </trkpt>
      <trkpt lat="43.74322" lon="3.51623">
        <ele>334.099</ele>
        <time>2008-04-19T09:13:05Z</time>
      </trkpt>
      <trkpt lat="43.74327" lon="3.51625">
        <ele>335.78</ele>
        <time>2008-04-19T09:13:09Z</time>
      </trkpt>
      <trkpt lat="43.74338" lon="3.51633">
        <ele>336.862</ele>
        <time>2008-04-19T09:13:19Z</time>
      </trkpt>
      <trkpt lat="43.74345" lon="3.51641">
        <ele>340.544</ele>
        <time>2008-04-19T09:13:30Z</time>
      </trkpt>
      <trkpt lat="43.74346" lon="3.51643">
        <ele>340.684</ele>
        <time>2008-04-19T09:13:31Z</time>
      </trkpt>
      <trkpt lat="43.74355" lon="3.51655">
        <ele>342.89</ele>
        <time>2008-04-19T09:13:42Z</time>
      </trkpt>
      <trkpt lat="43.74357" lon="3.51658">
        <ele>344.146</ele>
        <time>2008-04-19T09:13:45Z</time>
      </trkpt>
      <trkpt lat="43.74378" lon="3.51664">
        <ele>345.76</ele>
        <time>2008-04-19T09:14:01Z</time>
      </trkpt>
      <trkpt lat="43.7439" lon="3.51666">
        <ele>347.085</ele>
        <time>2008-04-19T09:14:10Z</time>
      </trkpt>
      <trkpt lat="43.74404" lon="3.51668">
        <ele>347.141</ele>
        <time>2008-04-19T09:14:22Z</time>
      </trkpt>
      <trkpt lat="43.74405" lon="3.51669">
        <ele>347.45</ele>
        <time>2008-04-19T09:14:23Z</time>
      </trkpt>
      <trkpt lat="43.74414" lon="3.51672">
        <ele>347.057</ele>
        <time>2008-04-19T09:14:31Z</time>
      </trkpt>
      <trkpt lat="43.74417" lon="3.51674">
        <ele>346.917</ele>
        <time>2008-04-19T09:14:34Z</time>
      </trkpt>
      <trkpt lat="43.74429" lon="3.51679">
        <ele>346.806</ele>
        <time>2008-04-19T09:14:47Z</time>
      </trkpt>
      <trkpt lat="43.7443" lon="3.51679">
        <ele>347.271</ele>
        <time>2008-04-19T09:14:48Z</time>
      </trkpt>
      <trkpt lat="43.74433" lon="3.51684">
        <ele>347.34</ele>
        <time>2008-04-19T09:14:52Z</time>
      </trkpt>
      <trkpt lat="43.74452" lon="3.51686">
        <ele>348.129</ele>
        <time>2008-04-19T09:15:08Z</time>
      </trkpt>
      <trkpt lat="43.74453" lon="3.51686">
        <ele>348.084</ele>
        <time>2008-04-19T09:15:09Z</time>
      </trkpt>
      <trkpt lat="43.74454" lon="3.5169">
        <ele>348.348</ele>
        <time>2008-04-19T09:15:12Z</time>
      </trkpt>
      <trkpt lat="43.74459" lon="3.5169">
        <ele>350.03</ele>
        <time>2008-04-19T09:15:29Z</time>
      </trkpt>
      <trkpt lat="43.74463" lon="3.51689">
        <ele>349.868</ele>
        <time>2008-04-19T09:15:35Z</time>
      </trkpt>
      <trkpt lat="43.74467" lon="3.51689">
        <ele>349.627</ele>
        <time>2008-04-19T09:15:38Z</time>
      </trkpt>
      <trkpt lat="43.74474" lon="3.51696">
        <ele>349.497</ele>
        <time>2008-04-19T09:15:44Z</time>
      </trkpt>
      <trkpt lat="43.7448" lon="3.51696">
        <ele>350.091</ele>
        <time>2008-04-19T09:15:48Z</time>
      </trkpt>
      <trkpt lat="43.74483" lon="3.51699">
        <ele>350.372</ele>
        <time>2008-04-19T09:15:51Z</time>
      </trkpt>
      <trkpt lat="43.7449" lon="3.51705">
        <ele>352.045</ele>
        <time>2008-04-19T09:15:57Z</time>
      </trkpt>
      <trkpt lat="43.74495" lon="3.51709">
        <ele>354.805</ele>
        <time>2008-04-19T09:16:03Z</time>
      </trkpt>
      <trkpt lat="43.74502" lon="3.51709">
        <ele>354.241</ele>
        <time>2008-04-19T09:16:09Z</time>
      </trkpt>
      <trkpt lat="43.7452" lon="3.51706">
        <ele>357.226</ele>
        <time>2008-04-19T09:16:23Z</time>
      </trkpt>
      <trkpt lat="43.74541" lon="3.51704">
        <ele>357.642</ele>
        <time>2008-04-19T09:16:40Z</time>
      </trkpt>
      <trkpt lat="43.74555" lon="3.517">
        <ele>358.105</ele>
        <time>2008-04-19T09:16:50Z</time>
      </trkpt>
      <trkpt lat="43.74557" lon="3.51699">
        <ele>358.847</ele>
        <time>2008-04-19T09:16:51Z</time>
      </trkpt>
      <trkpt lat="43.74576" lon="3.51691">
        <ele>359.371</ele>
        <time>2008-04-19T09:17:05Z</time>
      </trkpt>
      <trkpt lat="43.74582" lon="3.51693">
        <ele>359.553</ele>
        <time>2008-04-19T09:17:11Z</time>
      </trkpt>
      <trkpt lat="43.74599" lon="3.51704">
        <ele>361.769</ele>
        <time>2008-04-19T09:17:25Z</time>
      </trkpt>
      <trkpt lat="43.74617" lon="3.51716">
        <ele>363.021</ele>
        <time>2008-04-19T09:17:42Z</time>
      </trkpt>
      <trkpt lat="43.74629" lon="3.51734">
        <ele>363.486</ele>
        <time>2008-04-19T09:17:55Z</time>
      </trkpt>
      <trkpt lat="43.74645" lon="3.51742">
        <ele>364.949</ele>
        <time>2008-04-19T09:18:08Z</time>
      </trkpt>
      <trkpt lat="43.7465" lon="3.51744">
        <ele>365.39</ele>
        <time>2008-04-19T09:18:12Z</time>
      </trkpt>
      <trkpt lat="43.74664" lon="3.5175">
        <ele>365.326</ele>
        <time>2008-04-19T09:18:21Z</time>
      </trkpt>
      <trkpt lat="43.7467" lon="3.51765">
        <ele>365.455</ele>
        <time>2008-04-19T09:18:34Z</time>
      </trkpt>
      <trkpt lat="43.74679" lon="3.51771">
        <ele>365.485</ele>
        <time>2008-04-19T09:18:46Z</time>
      </trkpt>
      <trkpt lat="43.74684" lon="3.51781">
        <ele>365.393</ele>
        <time>2008-04-19T09:18:54Z</time>
      </trkpt>
      <trkpt lat="43.74687" lon="3.51782">
        <ele>365.146</ele>
        <time>2008-04-19T09:18:56Z</time>
      </trkpt>
      <trkpt lat="43.7469" lon="3.5179">
        <ele>365.924</ele>
        <time>2008-04-19T09:19:03Z</time>
      </trkpt>
      <trkpt lat="43.74691" lon="3.51793">
        <ele>366.157</ele>
        <time>2008-04-19T09:19:05Z</time>
      </trkpt>
      <trkpt lat="43.74695" lon="3.51797">
        <ele>366.275</ele>
        <time>2008-04-19T09:19:11Z</time>
      </trkpt>
      <trkpt lat="43.74702" lon="3.51798">
        <ele>366.532</ele>
        <time>2008-04-19T09:19:17Z</time>
      </trkpt>
      <trkpt lat="43.74709" lon="3.51806">
        <ele>366.429</ele>
        <time>2008-04-19T09:19:27Z</time>
      </trkpt>
      <trkpt lat="43.74714" lon="3.5181">
        <ele>367.203</ele>
        <time>2008-04-19T09:19:35Z</time>
      </trkpt>
      <trkpt lat="43.74721" lon="3.51819">
        <ele>367.634</ele>
        <time>2008-04-19T09:19:42Z</time>
      </trkpt>
      <trkpt lat="43.74733" lon="3.51832">
        <ele>369.123</ele>
        <time>2008-04-19T09:19:54Z</time>
      </trkpt>
      <trkpt lat="43.74748" lon="3.51839">
        <ele>368.917</ele>
        <time>2008-04-19T09:20:09Z</time>
      </trkpt>
      <trkpt lat="43.74749" lon="3.5184">
        <ele>367.529</ele>
        <time>2008-04-19T09:20:10Z</time>
      </trkpt>
      <trkpt lat="43.74767" lon="3.51851">
        <ele>369.207</ele>
        <time>2008-04-19T09:20:26Z</time>
      </trkpt>
      <trkpt lat="43.74776" lon="3.51853">
        <ele>369.81</ele>
        <time>2008-04-19T09:20:34Z</time>
      </trkpt>
      <trkpt lat="43.74787" lon="3.51858">
        <ele>371.712</ele>
        <time>2008-04-19T09:20:43Z</time>
      </trkpt>
      <trkpt lat="43.74789" lon="3.51859">
        <ele>371.421</ele>
        <time>2008-04-19T09:20:45Z</time>
      </trkpt>
      <trkpt lat="43.74803" lon="3.51868">
        <ele>373.014</ele>
        <time>2008-04-19T09:20:57Z</time>
      </trkpt>
      <trkpt lat="43.74804" lon="3.5187">
        <ele>372.95</ele>
        <time>2008-04-19T09:20:58Z</time>
      </trkpt>
      <trkpt lat="43.74817" lon="3.51887">
        <ele>373.291</ele>
        <time>2008-04-19T09:21:11Z</time>
      </trkpt>
      <trkpt lat="43.74826" lon="3.51893">
        <ele>372.561</ele>
        <time>2008-04-19T09:21:18Z</time>
      </trkpt>
      <trkpt lat="43.74831" lon="3.51897">
        <ele>374.067</ele>
        <time>2008-04-19T09:21:21Z</time>
      </trkpt>
      <trkpt lat="43.74832" lon="3.51899">
        <ele>373.553</ele>
        <time>2008-04-19T09:21:22Z</time>
      </trkpt>
      <trkpt lat="43.74833" lon="3.51901">
        <ele>373.986</ele>
        <time>2008-04-19T09:21:24Z</time>
      </trkpt>
      <trkpt lat="43.74839" lon="3.51914">
        <ele>374.775</ele>
        <time>2008-04-19T09:21:34Z</time>
      </trkpt>
      <trkpt lat="43.74845" lon="3.51926">
        <ele>375.837</ele>
        <time>2008-04-19T09:21:42Z</time>
      </trkpt>
      <trkpt lat="43.74849" lon="3.51932">
        <ele>375.929</ele>
        <time>2008-04-19T09:21:46Z</time>
      </trkpt>
      <trkpt lat="43.74853" lon="3.51938">
        <ele>376.912</ele>
        <time>2008-04-19T09:21:50Z</time>
      </trkpt>
      <trkpt lat="43.74862" lon="3.51948">
        <ele>377.556</ele>
        <time>2008-04-19T09:21:58Z</time>
      </trkpt>
      <trkpt lat="43.74863" lon="3.51951">
        <ele>377.818</ele>
        <time>2008-04-19T09:22:00Z</time>
      </trkpt>
      <trkpt lat="43.74869" lon="3.51958">
        <ele>378.654</ele>
        <time>2008-04-19T09:22:13Z</time>
      </trkpt>
      <trkpt lat="43.7487" lon="3.51957">
        <ele>378.743</ele>
        <time>2008-04-19T09:22:29Z</time>
      </trkpt>
      <trkpt lat="43.74873" lon="3.51958">
        <ele>379.934</ele>
        <time>2008-04-19T09:22:39Z</time>
      </trkpt>
      <trkpt lat="43.74872" lon="3.51958">
        <ele>379.427</ele>
        <time>2008-04-19T09:22:59Z</time>
      </trkpt>
      <trkpt lat="43.74874" lon="3.51965">
        <ele>379.749</ele>
        <time>2008-04-19T09:23:04Z</time>
      </trkpt>
      <trkpt lat="43.74876" lon="3.51972">
        <ele>381.339</ele>
        <time>2008-04-19T09:23:08Z</time>
      </trkpt>
      <trkpt lat="43.74876" lon="3.51978">
        <ele>381.398</ele>
        <time>2008-04-19T09:23:12Z</time>
      </trkpt>
      <trkpt lat="43.74876" lon="3.51981">
        <ele>381.501</ele>
        <time>2008-04-19T09:23:14Z</time>
      </trkpt>
      <trkpt lat="43.74878" lon="3.51985">
        <ele>381.827</ele>
        <time>2008-04-19T09:23:17Z</time>
      </trkpt>
      <trkpt lat="43.74872" lon="3.52001">
        <ele>384.672</ele>
        <time>2008-04-19T09:23:25Z</time>
      </trkpt>
      <trkpt lat="43.74872" lon="3.52002">
        <ele>384.427</ele>
        <time>2008-04-19T09:23:26Z</time>
      </trkpt>
      <trkpt lat="43.74863" lon="3.52022">
        <ele>388.131</ele>
        <time>2008-04-19T09:23:37Z</time>
      </trkpt>
      <trkpt lat="43.74862" lon="3.52026">
        <ele>386.513</ele>
        <time>2008-04-19T09:23:39Z</time>
      </trkpt>
      <trkpt lat="43.74864" lon="3.52036">
        <ele>387.432</ele>
        <time>2008-04-19T09:23:45Z</time>
      </trkpt>
      <trkpt lat="43.74866" lon="3.52052">
        <ele>388.902</ele>
        <time>2008-04-19T09:23:54Z</time>
      </trkpt>
      <trkpt lat="43.74866" lon="3.52053">
        <ele>388.518</ele>
        <time>2008-04-19T09:23:59Z</time>
      </trkpt>
      <trkpt lat="43.74866" lon="3.52065">
        <ele>389.672</ele>
        <time>2008-04-19T09:24:07Z</time>
      </trkpt>
      <trkpt lat="43.7486" lon="3.52074">
        <ele>390.831</ele>
        <time>2008-04-19T09:24:14Z</time>
      </trkpt>
      <trkpt lat="43.74854" lon="3.5208">
        <ele>390.638</ele>
        <time>2008-04-19T09:24:19Z</time>
      </trkpt>
      <trkpt lat="43.7485" lon="3.52086">
        <ele>392.186</ele>
        <time>2008-04-19T09:24:24Z</time>
      </trkpt>
      <trkpt lat="43.74842" lon="3.52087">
        <ele>392.879</ele>
        <time>2008-04-19T09:24:29Z</time>
      </trkpt>
      <trkpt lat="43.74837" lon="3.52112">
        <ele>394.228</ele>
        <time>2008-04-19T09:24:44Z</time>
      </trkpt>
      <trkpt lat="43.74842" lon="3.52128">
        <ele>394.91</ele>
        <time>2008-04-19T09:24:53Z</time>
      </trkpt>
      <trkpt lat="43.74845" lon="3.52144">
        <ele>395.192</ele>
        <time>2008-04-19T09:25:01Z</time>
      </trkpt>
      <trkpt lat="43.74846" lon="3.5217">
        <ele>396.034</ele>
        <time>2008-04-19T09:25:16Z</time>
      </trkpt>
      <trkpt lat="43.74848" lon="3.52194">
        <ele>396.641</ele>
        <time>2008-04-19T09:25:30Z</time>
      </trkpt>
      <trkpt lat="43.74853" lon="3.52211">
        <ele>398.515</ele>
        <time>2008-04-19T09:25:40Z</time>
      </trkpt>
      <trkpt lat="43.74859" lon="3.52228">
        <ele>400.225</ele>
        <time>2008-04-19T09:25:52Z</time>
      </trkpt>
      <trkpt lat="43.74869" lon="3.52244">
        <ele>401.982</ele>
        <time>2008-04-19T09:26:04Z</time>
      </trkpt>
      <trkpt lat="43.74875" lon="3.52253">
        <ele>401.635</ele>
        <time>2008-04-19T09:26:11Z</time>
      </trkpt>
      <trkpt lat="43.74876" lon="3.5227">
        <ele>402.997</ele>
        <time>2008-04-19T09:26:22Z</time>
      </trkpt>
      <trkpt lat="43.74875" lon="3.52278">
        <ele>403.165</ele>
        <time>2008-04-19T09:26:26Z</time>
      </trkpt>
      <trkpt lat="43.74871" lon="3.52301">
        <ele>403.894</ele>
        <time>2008-04-19T09:26:38Z</time>
      </trkpt>
      <trkpt lat="43.74858" lon="3.52322">
        <ele>403.256</ele>
        <time>2008-04-19T09:26:51Z</time>
      </trkpt>
      <trkpt lat="43.74852" lon="3.52334">
        <ele>403.854</ele>
        <time>2008-04-19T09:27:00Z</time>
      </trkpt>
      <trkpt lat="43.74847" lon="3.52355">
        <ele>404.081</ele>
        <time>2008-04-19T09:27:11Z</time>
      </trkpt>
      <trkpt lat="43.74845" lon="3.52361">
        <ele>404.623</ele>
        <time>2008-04-19T09:27:14Z</time>
      </trkpt>
      <trkpt lat="43.74839" lon="3.52384">
        <ele>405.358</ele>
        <time>2008-04-19T09:27:26Z</time>
      </trkpt>
      <trkpt lat="43.74838" lon="3.52388">
        <ele>405.062</ele>
        <time>2008-04-19T09:27:28Z</time>
      </trkpt>
      <trkpt lat="43.74839" lon="3.52409">
        <ele>406.154</ele>
        <time>2008-04-19T09:27:40Z</time>
      </trkpt>
      <trkpt lat="43.74839" lon="3.52415">
        <ele>405.847</ele>
        <time>2008-04-19T09:27:43Z</time>
      </trkpt>
      <trkpt lat="43.74848" lon="3.52427">
        <ele>406.428</ele>
        <time>2008-04-19T09:27:53Z</time>
      </trkpt>
      <trkpt lat="43.74871" lon="3.52434">
        <ele>406.627</ele>
        <time>2008-04-19T09:28:10Z</time>
      </trkpt>
      <trkpt lat="43.74875" lon="3.52434">
        <ele>407.143</ele>
        <time>2008-04-19T09:28:13Z</time>
      </trkpt>
      <trkpt lat="43.74888" lon="3.52442">
        <ele>407.05</ele>
        <time>2008-04-19T09:28:24Z</time>
      </trkpt>
      <trkpt lat="43.74898" lon="3.52447">
        <ele>407.447</ele>
        <time>2008-04-19T09:28:32Z</time>
      </trkpt>
      <trkpt lat="43.7491" lon="3.52452">
        <ele>407.126</ele>
        <time>2008-04-19T09:28:42Z</time>
      </trkpt>
      <trkpt lat="43.74916" lon="3.52457">
        <ele>406.957</ele>
        <time>2008-04-19T09:28:47Z</time>
      </trkpt>
      <trkpt lat="43.74919" lon="3.52462">
        <ele>408.074</ele>
        <time>2008-04-19T09:28:50Z</time>
      </trkpt>
      <trkpt lat="43.7493" lon="3.52476">
        <ele>407.863</ele>
        <time>2008-04-19T09:29:05Z</time>
      </trkpt>
      <trkpt lat="43.74933" lon="3.52482">
        <ele>407.985</ele>
        <time>2008-04-19T09:29:13Z</time>
      </trkpt>
      <trkpt lat="43.74937" lon="3.52489">
        <ele>408.359</ele>
        <time>2008-04-19T09:29:18Z</time>
      </trkpt>
      <trkpt lat="43.74941" lon="3.52492">
        <ele>408.351</ele>
        <time>2008-04-19T09:29:22Z</time>
      </trkpt>
      <trkpt lat="43.74944" lon="3.52497">
        <ele>408.693</ele>
        <time>2008-04-19T09:29:25Z</time>
      </trkpt>
      <trkpt lat="43.74957" lon="3.52514">
        <ele>408.517</ele>
        <time>2008-04-19T09:29:39Z</time>
      </trkpt>
      <trkpt lat="43.74958" lon="3.52522">
        <ele>409.223</ele>
        <time>2008-04-19T09:29:44Z</time>
      </trkpt>
      <trkpt lat="43.74957" lon="3.52532">
        <ele>410.303</ele>
        <time>2008-04-19T09:29:49Z</time>
      </trkpt>
      <trkpt lat="43.74957" lon="3.52535">
        <ele>410.359</ele>
        <time>2008-04-19T09:29:51Z</time>
      </trkpt>
      <trkpt lat="43.74958" lon="3.52538">
        <ele>410.068</ele>
        <time>2008-04-19T09:29:53Z</time>
      </trkpt>
      <trkpt lat="43.74963" lon="3.52542">
        <ele>410.19</ele>
        <time>2008-04-19T09:30:02Z</time>
      </trkpt>
      <trkpt lat="43.74971" lon="3.52563">
        <ele>410.018</ele>
        <time>2008-04-19T09:30:16Z</time>
      </trkpt>
      <trkpt lat="43.74978" lon="3.52584">
        <ele>410.157</ele>
        <time>2008-04-19T09:30:29Z</time>
      </trkpt>
      <trkpt lat="43.74982" lon="3.52595">
        <ele>410.457</ele>
        <time>2008-04-19T09:30:40Z</time>
      </trkpt>
      <trkpt lat="43.74996" lon="3.52612">
        <ele>411.699</ele>
        <time>2008-04-19T09:30:56Z</time>
      </trkpt>
      <trkpt lat="43.75005" lon="3.52626">
        <ele>412.116</ele>
        <time>2008-04-19T09:31:08Z</time>
      </trkpt>
      <trkpt lat="43.75006" lon="3.52628">
        <ele>412.729</ele>
        <time>2008-04-19T09:31:10Z</time>
      </trkpt>
      <trkpt lat="43.75019" lon="3.52639">
        <ele>413.456</ele>
        <time>2008-04-19T09:31:22Z</time>
      </trkpt>
      <trkpt lat="43.75029" lon="3.52645">
        <ele>414.141</ele>
        <time>2008-04-19T09:31:30Z</time>
      </trkpt>
      <trkpt lat="43.75051" lon="3.52656">
        <ele>416.08</ele>
        <time>2008-04-19T09:31:49Z</time>
      </trkpt>
      <trkpt lat="43.75055" lon="3.52659">
        <ele>416.658</ele>
        <time>2008-04-19T09:31:59Z</time>
      </trkpt>
      <trkpt lat="43.7506" lon="3.52658">
        <ele>416.648</ele>
        <time>2008-04-19T09:32:03Z</time>
      </trkpt>
      <trkpt lat="43.75069" lon="3.5265">
        <ele>414.449</ele>
        <time>2008-04-19T09:32:16Z</time>
      </trkpt>
      <trkpt lat="43.75069" lon="3.52648">
        <ele>415.043</ele>
        <time>2008-04-19T09:32:25Z</time>
      </trkpt>
      <trkpt lat="43.75073" lon="3.52639">
        <ele>415.372</ele>
        <time>2008-04-19T09:32:38Z</time>
      </trkpt>
      <trkpt lat="43.75076" lon="3.52633">
        <ele>415.755</ele>
        <time>2008-04-19T09:32:42Z</time>
      </trkpt>
      <trkpt lat="43.75082" lon="3.52625">
        <ele>416.652</ele>
        <time>2008-04-19T09:32:56Z</time>
      </trkpt>
      <trkpt lat="43.75093" lon="3.52616">
        <ele>419.765</ele>
        <time>2008-04-19T09:33:07Z</time>
      </trkpt>
      <trkpt lat="43.75115" lon="3.52617">
        <ele>421.597</ele>
        <time>2008-04-19T09:33:24Z</time>
      </trkpt>
      <trkpt lat="43.75116" lon="3.52617">
        <ele>422.101</ele>
        <time>2008-04-19T09:33:25Z</time>
      </trkpt>
      <trkpt lat="43.75122" lon="3.52617">
        <ele>421.995</ele>
        <time>2008-04-19T09:33:29Z</time>
      </trkpt>
      <trkpt lat="43.75126" lon="3.52615">
        <ele>421.614</ele>
        <time>2008-04-19T09:33:32Z</time>
      </trkpt>
      <trkpt lat="43.75131" lon="3.52612">
        <ele>422.862</ele>
        <time>2008-04-19T09:33:36Z</time>
      </trkpt>
      <trkpt lat="43.75145" lon="3.52599">
        <ele>424.274</ele>
        <time>2008-04-19T09:33:47Z</time>
      </trkpt>
      <trkpt lat="43.75155" lon="3.52584">
        <ele>425.223</ele>
        <time>2008-04-19T09:33:58Z</time>
      </trkpt>
      <trkpt lat="43.75158" lon="3.52578">
        <ele>426.904</ele>
        <time>2008-04-19T09:34:02Z</time>
      </trkpt>
      <trkpt lat="43.7516" lon="3.52571">
        <ele>427.034</ele>
        <time>2008-04-19T09:34:07Z</time>
      </trkpt>
      <trkpt lat="43.75163" lon="3.52565">
        <ele>428.187</ele>
        <time>2008-04-19T09:34:11Z</time>
      </trkpt>
      <trkpt lat="43.75163" lon="3.52564">
        <ele>427.923</ele>
        <time>2008-04-19T09:34:12Z</time>
      </trkpt>
      <trkpt lat="43.75166" lon="3.52553">
        <ele>428.891</ele>
        <time>2008-04-19T09:34:18Z</time>
      </trkpt>
      <trkpt lat="43.7517" lon="3.52541">
        <ele>429.414</ele>
        <time>2008-04-19T09:34:24Z</time>
      </trkpt>
      <trkpt lat="43.75173" lon="3.52534">
        <ele>430.676</ele>
        <time>2008-04-19T09:34:36Z</time>
      </trkpt>
      <trkpt lat="43.75173" lon="3.52534">
        <ele>430.534</ele>
        <time>2008-04-19T09:34:37Z</time>
      </trkpt>
      <trkpt lat="43.75175" lon="3.52528">
        <ele>429.942</ele>
        <time>2008-04-19T09:34:42Z</time>
      </trkpt>
      <trkpt lat="43.75179" lon="3.52522">
        <ele>430.941</ele>
        <time>2008-04-19T09:34:48Z</time>
      </trkpt>
      <trkpt lat="43.75189" lon="3.52519">
        <ele>431.53</ele>
        <time>2008-04-19T09:34:56Z</time>
      </trkpt>
      <trkpt lat="43.75199" lon="3.52531">
        <ele>433.83</ele>
        <time>2008-04-19T09:35:07Z</time>
      </trkpt>
      <trkpt lat="43.7521" lon="3.52542">
        <ele>436.958</ele>
        <time>2008-04-19T09:35:19Z</time>
      </trkpt>
      <trkpt lat="43.75211" lon="3.52544">
        <ele>437.154</ele>
        <time>2008-04-19T09:35:25Z</time>
      </trkpt>
      <trkpt lat="43.75216" lon="3.52546">
        <ele>437.975</ele>
        <time>2008-04-19T09:35:34Z</time>
      </trkpt>
      <trkpt lat="43.75235" lon="3.52536">
        <ele>439.564</ele>
        <time>2008-04-19T09:35:50Z</time>
      </trkpt>
      <trkpt lat="43.75246" lon="3.5251">
        <ele>441.468</ele>
        <time>2008-04-19T09:36:06Z</time>
      </trkpt>
      <trkpt lat="43.75246" lon="3.52506">
        <ele>441.065</ele>
        <time>2008-04-19T09:36:09Z</time>
      </trkpt>
      <trkpt lat="43.75239" lon="3.525">
        <ele>443.625</ele>
        <time>2008-04-19T09:36:15Z</time>
      </trkpt>
      <trkpt lat="43.75231" lon="3.52489">
        <ele>446.079</ele>
        <time>2008-04-19T09:36:20Z</time>
      </trkpt>
      <trkpt lat="43.75228" lon="3.52478">
        <ele>446.283</ele>
        <time>2008-04-19T09:36:29Z</time>
      </trkpt>
      <trkpt lat="43.75226" lon="3.52479">
        <ele>447.776</ele>
        <time>2008-04-19T09:36:41Z</time>
      </trkpt>
      <trkpt lat="43.75226" lon="3.5248">
        <ele>447.511</ele>
        <time>2008-04-19T09:36:57Z</time>
      </trkpt>
      <trkpt lat="43.75226" lon="3.52476">
        <ele>446.798</ele>
        <time>2008-04-19T09:37:19Z</time>
      </trkpt>
      <trkpt lat="43.75226" lon="3.52483">
        <ele>445.811</ele>
        <time>2008-04-19T09:37:31Z</time>
      </trkpt>
      <trkpt lat="43.75227" lon="3.52485">
        <ele>445.724</ele>
        <time>2008-04-19T09:37:35Z</time>
      </trkpt>
      <trkpt lat="43.75231" lon="3.52491">
        <ele>444.116</ele>
        <time>2008-04-19T09:37:41Z</time>
      </trkpt>
      <trkpt lat="43.75232" lon="3.52493">
        <ele>444.487</ele>
        <time>2008-04-19T09:37:44Z</time>
      </trkpt>
      <trkpt lat="43.75233" lon="3.52503">
        <ele>442.81</ele>
        <time>2008-04-19T09:37:58Z</time>
      </trkpt>
      <trkpt lat="43.75232" lon="3.52505">
        <ele>442.943</ele>
        <time>2008-04-19T09:38:10Z</time>
      </trkpt>
      <trkpt lat="43.75228" lon="3.52508">
        <ele>443.779</ele>
        <time>2008-04-19T09:38:26Z</time>
      </trkpt>
      <trkpt lat="43.7523" lon="3.52507">
        <ele>443.478</ele>
        <time>2008-04-19T09:38:47Z</time>
      </trkpt>
      <trkpt lat="43.75234" lon="3.52503">
        <ele>442.997</ele>
        <time>2008-04-19T09:39:06Z</time>
      </trkpt>
      <trkpt lat="43.75234" lon="3.52503">
        <ele>442.208</ele>
        <time>2008-04-19T09:39:21Z</time>
      </trkpt>
      <trkpt lat="43.75234" lon="3.525">
        <ele>443.002</ele>
        <time>2008-04-19T09:39:43Z</time>
      </trkpt>
      <trkpt lat="43.75232" lon="3.52501">
        <ele>443.727</ele>
        <time>2008-04-19T09:39:59Z</time>
      </trkpt>
      <trkpt lat="43.75228" lon="3.52501">
        <ele>444.746</ele>
        <time>2008-04-19T09:40:12Z</time>
      </trkpt>
      <trkpt lat="43.75227" lon="3.52501">
        <ele>444.392</ele>
        <time>2008-04-19T09:40:32Z</time>
      </trkpt>
      <trkpt lat="43.75229" lon="3.52506">
        <ele>442.446</ele>
        <time>2008-04-19T09:40:48Z</time>
      </trkpt>
      <trkpt lat="43.7523" lon="3.525">
        <ele>444.341</ele>
        <time>2008-04-19T09:40:59Z</time>
      </trkpt>
      <trkpt lat="43.75232" lon="3.52499">
        <ele>443.077</ele>
        <time>2008-04-19T09:41:12Z</time>
      </trkpt>
      <trkpt lat="43.75237" lon="3.525">
        <ele>442.291</ele>
        <time>2008-04-19T09:41:16Z</time>
      </trkpt>
      <trkpt lat="43.75239" lon="3.52501">
        <ele>442.032</ele>
        <time>2008-04-19T09:41:18Z</time>
      </trkpt>
      <trkpt lat="43.75255" lon="3.52498">
        <ele>440.173</ele>
        <time>2008-04-19T09:41:31Z</time>
      </trkpt>
      <trkpt lat="43.75259" lon="3.52495">
        <ele>438.749</ele>
        <time>2008-04-19T09:41:34Z</time>
      </trkpt>
      <trkpt lat="43.75264" lon="3.52493">
        <ele>437.917</ele>
        <time>2008-04-19T09:41:38Z</time>
      </trkpt>
      <trkpt lat="43.75278" lon="3.52486">
        <ele>436.492</ele>
        <time>2008-04-19T09:41:51Z</time>
      </trkpt>
      <trkpt lat="43.75279" lon="3.52485">
        <ele>436.182</ele>
        <time>2008-04-19T09:41:52Z</time>
      </trkpt>
      <trkpt lat="43.75296" lon="3.52483">
        <ele>434.887</ele>
        <time>2008-04-19T09:42:05Z</time>
      </trkpt>
      <trkpt lat="43.75299" lon="3.52483">
        <ele>434.441</ele>
        <time>2008-04-19T09:42:08Z</time>
      </trkpt>
      <trkpt lat="43.75304" lon="3.5248">
        <ele>434.524</ele>
        <time>2008-04-19T09:42:12Z</time>
      </trkpt>
      <trkpt lat="43.75321" lon="3.52462">
        <ele>431.897</ele>
        <time>2008-04-19T09:42:27Z</time>
      </trkpt>
      <trkpt lat="43.75334" lon="3.52459">
        <ele>431.006</ele>
        <time>2008-04-19T09:42:37Z</time>
      </trkpt>
      <trkpt lat="43.75342" lon="3.52454">
        <ele>429.446</ele>
        <time>2008-04-19T09:42:43Z</time>
      </trkpt>
      <trkpt lat="43.75352" lon="3.52434">
        <ele>427.938</ele>
        <time>2008-04-19T09:42:57Z</time>
      </trkpt>
      <trkpt lat="43.75352" lon="3.5243">
        <ele>427.647</ele>
        <time>2008-04-19T09:43:01Z</time>
      </trkpt>
      <trkpt lat="43.7535" lon="3.52425">
        <ele>428.023</ele>
        <time>2008-04-19T09:43:10Z</time>
      </trkpt>
      <trkpt lat="43.75351" lon="3.52424">
        <ele>427.521</ele>
        <time>2008-04-19T09:43:15Z</time>
      </trkpt>
      <trkpt lat="43.75351" lon="3.52419">
        <ele>427.399</ele>
        <time>2008-04-19T09:43:18Z</time>
      </trkpt>
      <trkpt lat="43.75351" lon="3.52407">
        <ele>426.065</ele>
        <time>2008-04-19T09:43:25Z</time>
      </trkpt>
      <trkpt lat="43.75353" lon="3.524">
        <ele>425.614</ele>
        <time>2008-04-19T09:43:29Z</time>
      </trkpt>
      <trkpt lat="43.75352" lon="3.52396">
        <ele>425.327</ele>
        <time>2008-04-19T09:43:44Z</time>
      </trkpt>
      <trkpt lat="43.75352" lon="3.52397">
        <ele>425.428</ele>
        <time>2008-04-19T09:43:45Z</time>
      </trkpt>
      <trkpt lat="43.75351" lon="3.52403">
        <ele>424.892</ele>
        <time>2008-04-19T09:43:51Z</time>
      </trkpt>
      <trkpt lat="43.75352" lon="3.52402">
        <ele>426.11</ele>
        <time>2008-04-19T09:44:19Z</time>
      </trkpt>
      <trkpt lat="43.75353" lon="3.52401">
        <ele>426.302</ele>
        <time>2008-04-19T09:44:39Z</time>
      </trkpt>
      <trkpt lat="43.75353" lon="3.524">
        <ele>426.567</ele>
        <time>2008-04-19T09:44:48Z</time>
      </trkpt>
      <trkpt lat="43.75356" lon="3.52392">
        <ele>425.29</ele>
        <time>2008-04-19T09:44:53Z</time>
      </trkpt>
      <trkpt lat="43.7536" lon="3.52387">
        <ele>424.77</ele>
        <time>2008-04-19T09:44:57Z</time>
      </trkpt>
      <trkpt lat="43.75374" lon="3.52371">
        <ele>422.658</ele>
        <time>2008-04-19T09:45:11Z</time>
      </trkpt>
      <trkpt lat="43.75387" lon="3.52362">
        <ele>421.528</ele>
        <time>2008-04-19T09:45:23Z</time>
      </trkpt>
      <trkpt lat="43.75399" lon="3.52372">
        <ele>420.806</ele>
        <time>2008-04-19T09:45:34Z</time>
      </trkpt>
      <trkpt lat="43.75408" lon="3.52388">
        <ele>418.179</ele>
        <time>2008-04-19T09:45:45Z</time>
      </trkpt>
      <trkpt lat="43.75424" lon="3.52403">
        <ele>417.279</ele>
        <time>2008-04-19T09:45:58Z</time>
      </trkpt>
      <trkpt lat="43.75427" lon="3.52405">
        <ele>416.966</ele>
        <time>2008-04-19T09:46:01Z</time>
      </trkpt>
      <trkpt lat="43.75431" lon="3.52407">
        <ele>416.89</ele>
        <time>2008-04-19T09:46:04Z</time>
      </trkpt>
      <trkpt lat="43.75438" lon="3.5241">
        <ele>415.14</ele>
        <time>2008-04-19T09:46:09Z</time>
      </trkpt>
      <trkpt lat="43.75455" lon="3.52411">
        <ele>414.22</ele>
        <time>2008-04-19T09:46:22Z</time>
      </trkpt>
      <trkpt lat="43.75459" lon="3.52409">
        <ele>414.652</ele>
        <time>2008-04-19T09:46:26Z</time>
      </trkpt>
      <trkpt lat="43.75469" lon="3.52404">
        <ele>413.076</ele>
        <time>2008-04-19T09:46:34Z</time>
      </trkpt>
      <trkpt lat="43.75485" lon="3.52394">
        <ele>413.161</ele>
        <time>2008-04-19T09:46:47Z</time>
      </trkpt>
      <trkpt lat="43.75495" lon="3.52387">
        <ele>414.669</ele>
        <time>2008-04-19T09:46:55Z</time>
      </trkpt>
      <trkpt lat="43.75498" lon="3.52385">
        <ele>416.327</ele>
        <time>2008-04-19T09:46:58Z</time>
      </trkpt>
      <trkpt lat="43.75506" lon="3.52381">
        <ele>416.532</ele>
        <time>2008-04-19T09:47:06Z</time>
      </trkpt>
      <trkpt lat="43.75519" lon="3.52385">
        <ele>416.898</ele>
        <time>2008-04-19T09:47:17Z</time>
      </trkpt>
      <trkpt lat="43.75528" lon="3.52391">
        <ele>418.055</ele>
        <time>2008-04-19T09:47:25Z</time>
      </trkpt>
      <trkpt lat="43.75535" lon="3.52395">
        <ele>418.563</ele>
        <time>2008-04-19T09:47:31Z</time>
      </trkpt>
      <trkpt lat="43.75551" lon="3.52403">
        <ele>419.129</ele>
        <time>2008-04-19T09:47:43Z</time>
      </trkpt>
      <trkpt lat="43.75564" lon="3.52405">
        <ele>418.382</ele>
        <time>2008-04-19T09:47:55Z</time>
      </trkpt>
      <trkpt lat="43.75573" lon="3.52405">
        <ele>418.13</ele>
        <time>2008-04-19T09:48:01Z</time>
      </trkpt>
      <trkpt lat="43.75592" lon="3.52407">
        <ele>417.829</ele>
        <time>2008-04-19T09:48:16Z</time>
      </trkpt>
      <trkpt lat="43.75607" lon="3.5241">
        <ele>417.67</ele>
        <time>2008-04-19T09:48:28Z</time>
      </trkpt>
      <trkpt lat="43.75615" lon="3.5241">
        <ele>417.75</ele>
        <time>2008-04-19T09:48:33Z</time>
      </trkpt>
      <trkpt lat="43.75624" lon="3.52412">
        <ele>417.801</ele>
        <time>2008-04-19T09:48:40Z</time>
      </trkpt>
      <trkpt lat="43.75638" lon="3.52414">
        <ele>418.713</ele>
        <time>2008-04-19T09:48:50Z</time>
      </trkpt>
      <trkpt lat="43.7565" lon="3.52415">
        <ele>418.865</ele>
        <time>2008-04-19T09:48:59Z</time>
      </trkpt>
      <trkpt lat="43.75657" lon="3.52418">
        <ele>418.796</ele>
        <time>2008-04-19T09:49:04Z</time>
      </trkpt>
      <trkpt lat="43.75667" lon="3.5242">
        <ele>418.707</ele>
        <time>2008-04-19T09:49:11Z</time>
      </trkpt>
      <trkpt lat="43.75677" lon="3.52421">
        <ele>418.795</ele>
        <time>2008-04-19T09:49:18Z</time>
      </trkpt>
      <trkpt lat="43.75687" lon="3.52426">
        <ele>419.221</ele>
        <time>2008-04-19T09:49:26Z</time>
      </trkpt>
      <trkpt lat="43.75692" lon="3.52429">
        <ele>419.478</ele>
        <time>2008-04-19T09:49:30Z</time>
      </trkpt>
      <trkpt lat="43.75701" lon="3.52436">
        <ele>419.579</ele>
        <time>2008-04-19T09:49:37Z</time>
      </trkpt>
      <trkpt lat="43.75703" lon="3.52439">
        <ele>419.748</ele>
        <time>2008-04-19T09:49:39Z</time>
      </trkpt>
      <trkpt lat="43.7572" lon="3.52461">
        <ele>420.811</ele>
        <time>2008-04-19T09:49:56Z</time>
      </trkpt>
      <trkpt lat="43.75727" lon="3.52482">
        <ele>420.556</ele>
        <time>2008-04-19T09:50:07Z</time>
      </trkpt>
      <trkpt lat="43.75728" lon="3.52499">
        <ele>420.694</ele>
        <time>2008-04-19T09:50:15Z</time>
      </trkpt>
      <trkpt lat="43.75727" lon="3.52503">
        <ele>421.489</ele>
        <time>2008-04-19T09:50:18Z</time>
      </trkpt>
      <trkpt lat="43.75718" lon="3.52521">
        <ele>421.01</ele>
        <time>2008-04-19T09:50:27Z</time>
      </trkpt>
      <trkpt lat="43.75713" lon="3.5254">
        <ele>420.8</ele>
        <time>2008-04-19T09:50:37Z</time>
      </trkpt>
      <trkpt lat="43.7571" lon="3.52546">
        <ele>421.075</ele>
        <time>2008-04-19T09:50:41Z</time>
      </trkpt>
      <trkpt lat="43.75709" lon="3.5255">
        <ele>421.386</ele>
        <time>2008-04-19T09:50:43Z</time>
      </trkpt>
      <trkpt lat="43.75704" lon="3.52573">
        <ele>421.556</ele>
        <time>2008-04-19T09:50:55Z</time>
      </trkpt>
      <trkpt lat="43.75704" lon="3.52576">
        <ele>421.606</ele>
        <time>2008-04-19T09:50:57Z</time>
      </trkpt>
      <trkpt lat="43.75705" lon="3.52585">
        <ele>421.18</ele>
        <time>2008-04-19T09:51:02Z</time>
      </trkpt>
      <trkpt lat="43.75703" lon="3.52596">
        <ele>421.17</ele>
        <time>2008-04-19T09:51:08Z</time>
      </trkpt>
      <trkpt lat="43.75705" lon="3.52618">
        <ele>421.564</ele>
        <time>2008-04-19T09:51:20Z</time>
      </trkpt>
      <trkpt lat="43.75705" lon="3.52619">
        <ele>422.008</ele>
        <time>2008-04-19T09:51:21Z</time>
      </trkpt>
      <trkpt lat="43.75707" lon="3.52624">
        <ele>422.226</ele>
        <time>2008-04-19T09:51:30Z</time>
      </trkpt>
      <trkpt lat="43.75712" lon="3.52635">
        <ele>422.885</ele>
        <time>2008-04-19T09:51:38Z</time>
      </trkpt>
      <trkpt lat="43.75722" lon="3.52648">
        <ele>422.303</ele>
        <time>2008-04-19T09:51:48Z</time>
      </trkpt>
      <trkpt lat="43.75727" lon="3.52652">
        <ele>422.653</ele>
        <time>2008-04-19T09:51:54Z</time>
      </trkpt>
      <trkpt lat="43.75746" lon="3.52666">
        <ele>423.089</ele>
        <time>2008-04-19T09:52:11Z</time>
      </trkpt>
      <trkpt lat="43.75763" lon="3.52672">
        <ele>423.961</ele>
        <time>2008-04-19T09:52:24Z</time>
      </trkpt>
      <trkpt lat="43.75786" lon="3.52677">
        <ele>424.832</ele>
        <time>2008-04-19T09:52:42Z</time>
      </trkpt>
      <trkpt lat="43.75801" lon="3.52682">
        <ele>426.033</ele>
        <time>2008-04-19T09:52:55Z</time>
      </trkpt>
      <trkpt lat="43.75809" lon="3.52687">
        <ele>427.693</ele>
        <time>2008-04-19T09:53:01Z</time>
      </trkpt>
      <trkpt lat="43.75824" lon="3.52699">
        <ele>428.535</ele>
        <time>2008-04-19T09:53:14Z</time>
      </trkpt>
      <trkpt lat="43.75836" lon="3.52703">
        <ele>429.818</ele>
        <time>2008-04-19T09:53:24Z</time>
      </trkpt>
      <trkpt lat="43.75859" lon="3.52695">
        <ele>431.89</ele>
        <time>2008-04-19T09:53:40Z</time>
      </trkpt>
      <trkpt lat="43.7587" lon="3.52702">
        <ele>432.462</ele>
        <time>2008-04-19T09:53:49Z</time>
      </trkpt>
      <trkpt lat="43.75872" lon="3.52703">
        <ele>430.611</ele>
        <time>2008-04-19T09:53:51Z</time>
      </trkpt>
      <trkpt lat="43.75873" lon="3.52704">
        <ele>434.409</ele>
        <time>2008-04-19T09:53:52Z</time>
      </trkpt>
      <trkpt lat="43.75874" lon="3.52705">
        <ele>432.564</ele>
        <time>2008-04-19T09:53:53Z</time>
      </trkpt>
      <trkpt lat="43.75878" lon="3.52709">
        <ele>433.888</ele>
        <time>2008-04-19T09:53:57Z</time>
      </trkpt>
      <trkpt lat="43.75892" lon="3.52719">
        <ele>434.846</ele>
        <time>2008-04-19T09:54:08Z</time>
      </trkpt>
      <trkpt lat="43.75899" lon="3.52722">
        <ele>436.183</ele>
        <time>2008-04-19T09:54:13Z</time>
      </trkpt>
      <trkpt lat="43.75914" lon="3.52729">
        <ele>438.65</ele>
        <time>2008-04-19T09:54:27Z</time>
      </trkpt>
      <trkpt lat="43.75917" lon="3.5273">
        <ele>439.44</ele>
        <time>2008-04-19T09:54:30Z</time>
      </trkpt>
      <trkpt lat="43.75923" lon="3.52734">
        <ele>439.721</ele>
        <time>2008-04-19T09:54:35Z</time>
      </trkpt>
      <trkpt lat="43.75941" lon="3.52748">
        <ele>441.155</ele>
        <time>2008-04-19T09:54:52Z</time>
      </trkpt>
      <trkpt lat="43.75949" lon="3.52748">
        <ele>442.28</ele>
        <time>2008-04-19T09:54:58Z</time>
      </trkpt>
      <trkpt lat="43.75955" lon="3.52745">
        <ele>443.024</ele>
        <time>2008-04-19T09:55:04Z</time>
      </trkpt>
      <trkpt lat="43.75976" lon="3.52731">
        <ele>444.349</ele>
        <time>2008-04-19T09:55:23Z</time>
      </trkpt>
      <trkpt lat="43.75991" lon="3.52719">
        <ele>444.872</ele>
        <time>2008-04-19T09:55:36Z</time>
      </trkpt>
      <trkpt lat="43.75993" lon="3.52718">
        <ele>445.402</ele>
        <time>2008-04-19T09:55:38Z</time>
      </trkpt>
      <trkpt lat="43.76009" lon="3.52713">
        <ele>447.261</ele>
        <time>2008-04-19T09:55:53Z</time>
      </trkpt>
      <trkpt lat="43.76025" lon="3.52709">
        <ele>447.77</ele>
        <time>2008-04-19T09:56:06Z</time>
      </trkpt>
      <trkpt lat="43.7603" lon="3.52708">
        <ele>448.272</ele>
        <time>2008-04-19T09:56:10Z</time>
      </trkpt>
      <trkpt lat="43.76034" lon="3.52709">
        <ele>448.626</ele>
        <time>2008-04-19T09:56:14Z</time>
      </trkpt>
      <trkpt lat="43.76049" lon="3.52706">
        <ele>450.444</ele>
        <time>2008-04-19T09:56:26Z</time>
      </trkpt>
      <trkpt lat="43.76058" lon="3.52701">
        <ele>452.061</ele>
        <time>2008-04-19T09:56:34Z</time>
      </trkpt>
      <trkpt lat="43.76062" lon="3.52699">
        <ele>453.274</ele>
        <time>2008-04-19T09:56:37Z</time>
      </trkpt>
      <trkpt lat="43.76067" lon="3.52694">
        <ele>453.342</ele>
        <time>2008-04-19T09:56:45Z</time>
      </trkpt>
      <trkpt lat="43.76074" lon="3.5269">
        <ele>454.225</ele>
        <time>2008-04-19T09:56:56Z</time>
      </trkpt>
      <trkpt lat="43.76083" lon="3.52687">
        <ele>455.387</ele>
        <time>2008-04-19T09:57:07Z</time>
      </trkpt>
      <trkpt lat="43.76083" lon="3.52686">
        <ele>454.969</ele>
        <time>2008-04-19T09:57:08Z</time>
      </trkpt>
      <trkpt lat="43.76095" lon="3.52681">
        <ele>456.11</ele>
        <time>2008-04-19T09:57:17Z</time>
      </trkpt>
      <trkpt lat="43.76105" lon="3.52672">
        <ele>456.774</ele>
        <time>2008-04-19T09:57:27Z</time>
      </trkpt>
      <trkpt lat="43.76102" lon="3.52664">
        <ele>457.534</ele>
        <time>2008-04-19T09:57:35Z</time>
      </trkpt>
      <trkpt lat="43.761" lon="3.52664">
        <ele>457.377</ele>
        <time>2008-04-19T09:57:37Z</time>
      </trkpt>
      <trkpt lat="43.76095" lon="3.52668">
        <ele>457.059</ele>
        <time>2008-04-19T09:57:42Z</time>
      </trkpt>
      <trkpt lat="43.76076" lon="3.52669">
        <ele>457.952</ele>
        <time>2008-04-19T09:57:56Z</time>
      </trkpt>
      <trkpt lat="43.76065" lon="3.52667">
        <ele>458.206</ele>
        <time>2008-04-19T09:58:11Z</time>
      </trkpt>
      <trkpt lat="43.76054" lon="3.52669">
        <ele>459.852</ele>
        <time>2008-04-19T09:58:25Z</time>
      </trkpt>
      <trkpt lat="43.76052" lon="3.5267">
        <ele>459.849</ele>
        <time>2008-04-19T09:58:27Z</time>
      </trkpt>
      <trkpt lat="43.7605" lon="3.52671">
        <ele>459.996</ele>
        <time>2008-04-19T09:58:29Z</time>
      </trkpt>
      <trkpt lat="43.76033" lon="3.52672">
        <ele>460.592</ele>
        <time>2008-04-19T09:58:42Z</time>
      </trkpt>
      <trkpt lat="43.76027" lon="3.52673">
        <ele>460.847</ele>
        <time>2008-04-19T09:58:46Z</time>
      </trkpt>
      <trkpt lat="43.76011" lon="3.52666">
        <ele>461.518</ele>
        <time>2008-04-19T09:58:58Z</time>
      </trkpt>
      <trkpt lat="43.76006" lon="3.52662">
        <ele>462.465</ele>
        <time>2008-04-19T09:59:03Z</time>
      </trkpt>
      <trkpt lat="43.76" lon="3.5265">
        <ele>461.733</ele>
        <time>2008-04-19T09:59:10Z</time>
      </trkpt>
      <trkpt lat="43.76" lon="3.52641">
        <ele>462.394</ele>
        <time>2008-04-19T09:59:15Z</time>
      </trkpt>
      <trkpt lat="43.76001" lon="3.52628">
        <ele>462.914</ele>
        <time>2008-04-19T09:59:22Z</time>
      </trkpt>
      <trkpt lat="43.76003" lon="3.52619">
        <ele>462.533</ele>
        <time>2008-04-19T09:59:27Z</time>
      </trkpt>
      <trkpt lat="43.76004" lon="3.52611">
        <ele>462.306</ele>
        <time>2008-04-19T09:59:32Z</time>
      </trkpt>
      <trkpt lat="43.76002" lon="3.52601">
        <ele>462.498</ele>
        <time>2008-04-19T09:59:46Z</time>
      </trkpt>
      <trkpt lat="43.76002" lon="3.52594">
        <ele>461.913</ele>
        <time>2008-04-19T09:59:51Z</time>
      </trkpt>
      <trkpt lat="43.76001" lon="3.52583">
        <ele>462.183</ele>
        <time>2008-04-19T10:00:03Z</time>
      </trkpt>
      <trkpt lat="43.76004" lon="3.52581">
        <ele>462.396</ele>
        <time>2008-04-19T10:00:14Z</time>
      </trkpt>
      <trkpt lat="43.76002" lon="3.52569">
        <ele>462.549</ele>
        <time>2008-04-19T10:00:25Z</time>
      </trkpt>
      <trkpt lat="43.76001" lon="3.52562">
        <ele>462.284</ele>
        <time>2008-04-19T10:00:28Z</time>
      </trkpt>
      <trkpt lat="43.76001" lon="3.52555">
        <ele>462.961</ele>
        <time>2008-04-19T10:00:33Z</time>
      </trkpt>
      <trkpt lat="43.76002" lon="3.52545">
        <ele>463.722</ele>
        <time>2008-04-19T10:00:39Z</time>
      </trkpt>
      <trkpt lat="43.76002" lon="3.52542">
        <ele>463.217</ele>
        <time>2008-04-19T10:00:41Z</time>
      </trkpt>
      <trkpt lat="43.75999" lon="3.52524">
        <ele>464.676</ele>
        <time>2008-04-19T10:00:53Z</time>
      </trkpt>
      <trkpt lat="43.75997" lon="3.52509">
        <ele>464.181</ele>
        <time>2008-04-19T10:01:02Z</time>
      </trkpt>
      <trkpt lat="43.75992" lon="3.52498">
        <ele>463.879</ele>
        <time>2008-04-19T10:01:11Z</time>
      </trkpt>
      <trkpt lat="43.75983" lon="3.52483">
        <ele>463.982</ele>
        <time>2008-04-19T10:01:21Z</time>
      </trkpt>
      <trkpt lat="43.75979" lon="3.52471">
        <ele>463.62</ele>
        <time>2008-04-19T10:01:28Z</time>
      </trkpt>
      <trkpt lat="43.75977" lon="3.52463">
        <ele>464.456</ele>
        <time>2008-04-19T10:01:33Z</time>
      </trkpt>
      <trkpt lat="43.75974" lon="3.52454">
        <ele>464.776</ele>
        <time>2008-04-19T10:01:39Z</time>
      </trkpt>
      <trkpt lat="43.75968" lon="3.52432">
        <ele>464.993</ele>
        <time>2008-04-19T10:01:53Z</time>
      </trkpt>
      <trkpt lat="43.75963" lon="3.52411">
        <ele>464.712</ele>
        <time>2008-04-19T10:02:04Z</time>
      </trkpt>
      <trkpt lat="43.75968" lon="3.52393">
        <ele>465.066</ele>
        <time>2008-04-19T10:02:15Z</time>
      </trkpt>
      <trkpt lat="43.75973" lon="3.52389">
        <ele>465.923</ele>
        <time>2008-04-19T10:02:19Z</time>
      </trkpt>
      <trkpt lat="43.75978" lon="3.52382">
        <ele>466.305</ele>
        <time>2008-04-19T10:02:25Z</time>
      </trkpt>
      <trkpt lat="43.75985" lon="3.52362">
        <ele>467.414</ele>
        <time>2008-04-19T10:02:39Z</time>
      </trkpt>
      <trkpt lat="43.75989" lon="3.52338">
        <ele>469.969</ele>
        <time>2008-04-19T10:02:52Z</time>
      </trkpt>
      <trkpt lat="43.75992" lon="3.52319">
        <ele>471.018</ele>
        <time>2008-04-19T10:03:04Z</time>
      </trkpt>
      <trkpt lat="43.76001" lon="3.52309">
        <ele>472.418</ele>
        <time>2008-04-19T10:03:15Z</time>
      </trkpt>
      <trkpt lat="43.76001" lon="3.52308">
        <ele>472.5</ele>
        <time>2008-04-19T10:03:17Z</time>
      </trkpt>
      <trkpt lat="43.76015" lon="3.52308">
        <ele>472.815</ele>
        <time>2008-04-19T10:03:29Z</time>
      </trkpt>
      <trkpt lat="43.76024" lon="3.52308">
        <ele>472.964</ele>
        <time>2008-04-19T10:03:43Z</time>
      </trkpt>
      <trkpt lat="43.76026" lon="3.52308">
        <ele>472.75</ele>
        <time>2008-04-19T10:03:45Z</time>
      </trkpt>
      <trkpt lat="43.76044" lon="3.52299">
        <ele>473.546</ele>
        <time>2008-04-19T10:03:59Z</time>
      </trkpt>
      <trkpt lat="43.76054" lon="3.52291">
        <ele>474.613</ele>
        <time>2008-04-19T10:04:12Z</time>
      </trkpt>
      <trkpt lat="43.76056" lon="3.52288">
        <ele>475.036</ele>
        <time>2008-04-19T10:04:35Z</time>
      </trkpt>
      <trkpt lat="43.76058" lon="3.52283">
        <ele>476.096</ele>
        <time>2008-04-19T10:05:11Z</time>
      </trkpt>
      <trkpt lat="43.76064" lon="3.5228">
        <ele>475.635</ele>
        <time>2008-04-19T10:05:22Z</time>
      </trkpt>
      <trkpt lat="43.76072" lon="3.52276">
        <ele>476.455</ele>
        <time>2008-04-19T10:05:32Z</time>
      </trkpt>
      <trkpt lat="43.76089" lon="3.52281">
        <ele>477.144</ele>
        <time>2008-04-19T10:05:48Z</time>
      </trkpt>
      <trkpt lat="43.76099" lon="3.52285">
        <ele>478.412</ele>
        <time>2008-04-19T10:06:00Z</time>
      </trkpt>
      <trkpt lat="43.76118" lon="3.52291">
        <ele>480.416</ele>
        <time>2008-04-19T10:06:14Z</time>
      </trkpt>
      <trkpt lat="43.76133" lon="3.52274">
        <ele>482.412</ele>
        <time>2008-04-19T10:06:28Z</time>
      </trkpt>
      <trkpt lat="43.76135" lon="3.52271">
        <ele>482.914</ele>
        <time>2008-04-19T10:06:30Z</time>
      </trkpt>
      <trkpt lat="43.76137" lon="3.52258">
        <ele>482.559</ele>
        <time>2008-04-19T10:06:43Z</time>
      </trkpt>
      <trkpt lat="43.76138" lon="3.52259">
        <ele>483.95</ele>
        <time>2008-04-19T10:06:51Z</time>
      </trkpt>
      <trkpt lat="43.76141" lon="3.52258">
        <ele>482.422</ele>
        <time>2008-04-19T10:06:54Z</time>
      </trkpt>
      <trkpt lat="43.76144" lon="3.52256">
        <ele>485.623</ele>
        <time>2008-04-19T10:06:58Z</time>
      </trkpt>
      <trkpt lat="43.76152" lon="3.52249">
        <ele>485.993</ele>
        <time>2008-04-19T10:07:06Z</time>
      </trkpt>
      <trkpt lat="43.76167" lon="3.52258">
        <ele>485.851</ele>
        <time>2008-04-19T10:07:20Z</time>
      </trkpt>
      <trkpt lat="43.76167" lon="3.52259">
        <ele>485.55</ele>
        <time>2008-04-19T10:07:22Z</time>
      </trkpt>
      <trkpt lat="43.76168" lon="3.52281">
        <ele>485.735</ele>
        <time>2008-04-19T10:07:33Z</time>
      </trkpt>
      <trkpt lat="43.76169" lon="3.52287">
        <ele>485.421</ele>
        <time>2008-04-19T10:07:37Z</time>
      </trkpt>
      <trkpt lat="43.76176" lon="3.52295">
        <ele>485.711</ele>
        <time>2008-04-19T10:07:44Z</time>
      </trkpt>
      <trkpt lat="43.76178" lon="3.52303">
        <ele>485.287</ele>
        <time>2008-04-19T10:07:51Z</time>
      </trkpt>
      <trkpt lat="43.76193" lon="3.52314">
        <ele>485.399</ele>
        <time>2008-04-19T10:08:03Z</time>
      </trkpt>
      <trkpt lat="43.76193" lon="3.52313">
        <ele>485.576</ele>
        <time>2008-04-19T10:08:13Z</time>
      </trkpt>
      <trkpt lat="43.76191" lon="3.52311">
        <ele>485.041</ele>
        <time>2008-04-19T10:08:28Z</time>
      </trkpt>
      <trkpt lat="43.76209" lon="3.52321">
        <ele>486.008</ele>
        <time>2008-04-19T10:08:42Z</time>
      </trkpt>
      <trkpt lat="43.76216" lon="3.52325">
        <ele>485.122</ele>
        <time>2008-04-19T10:08:48Z</time>
      </trkpt>
      <trkpt lat="43.76221" lon="3.52328">
        <ele>485.364</ele>
        <time>2008-04-19T10:08:52Z</time>
      </trkpt>
      <trkpt lat="43.76225" lon="3.5233">
        <ele>485.998</ele>
        <time>2008-04-19T10:08:58Z</time>
      </trkpt>
      <trkpt lat="43.76236" lon="3.52338">
        <ele>486.957</ele>
        <time>2008-04-19T10:09:07Z</time>
      </trkpt>
      <trkpt lat="43.76239" lon="3.52344">
        <ele>487.302</ele>
        <time>2008-04-19T10:09:11Z</time>
      </trkpt>
      <trkpt lat="43.76251" lon="3.52364">
        <ele>487.538</ele>
        <time>2008-04-19T10:09:26Z</time>
      </trkpt>
      <trkpt lat="43.76261" lon="3.52372">
        <ele>488.862</ele>
        <time>2008-04-19T10:09:34Z</time>
      </trkpt>
      <trkpt lat="43.76279" lon="3.5238">
        <ele>490.35</ele>
        <time>2008-04-19T10:09:47Z</time>
      </trkpt>
      <trkpt lat="43.76297" lon="3.52385">
        <ele>490.817</ele>
        <time>2008-04-19T10:10:00Z</time>
      </trkpt>
      <trkpt lat="43.76309" lon="3.52377">
        <ele>490.696</ele>
        <time>2008-04-19T10:10:10Z</time>
      </trkpt>
      <trkpt lat="43.76313" lon="3.52372">
        <ele>490.829</ele>
        <time>2008-04-19T10:10:14Z</time>
      </trkpt>
      <trkpt lat="43.76318" lon="3.52363">
        <ele>491.539</ele>
        <time>2008-04-19T10:10:20Z</time>
      </trkpt>
      <trkpt lat="43.76344" lon="3.52348">
        <ele>491.467</ele>
        <time>2008-04-19T10:10:42Z</time>
      </trkpt>
      <trkpt lat="43.7636" lon="3.52345">
        <ele>491.68</ele>
        <time>2008-04-19T10:10:53Z</time>
      </trkpt>
      <trkpt lat="43.76372" lon="3.52342">
        <ele>493.48</ele>
        <time>2008-04-19T10:11:05Z</time>
      </trkpt>
      <trkpt lat="43.76372" lon="3.52342">
        <ele>496.582</ele>
        <time>2008-04-19T10:11:11Z</time>
      </trkpt>
      <trkpt lat="43.76383" lon="3.52338">
        <ele>495.293</ele>
        <time>2008-04-19T10:11:24Z</time>
      </trkpt>
      <trkpt lat="43.76391" lon="3.52336">
        <ele>495.277</ele>
        <time>2008-04-19T10:11:34Z</time>
      </trkpt>
      <trkpt lat="43.76395" lon="3.52336">
        <ele>495.68</ele>
        <time>2008-04-19T10:11:39Z</time>
      </trkpt>
      <trkpt lat="43.76403" lon="3.52334">
        <ele>496.357</ele>
        <time>2008-04-19T10:11:46Z</time>
      </trkpt>
      <trkpt lat="43.76406" lon="3.52335">
        <ele>496.795</ele>
        <time>2008-04-19T10:11:48Z</time>
      </trkpt>
      <trkpt lat="43.76422" lon="3.52332">
        <ele>497.851</ele>
        <time>2008-04-19T10:12:03Z</time>
      </trkpt>
      <trkpt lat="43.76444" lon="3.52331">
        <ele>498.282</ele>
        <time>2008-04-19T10:12:20Z</time>
      </trkpt>
      <trkpt lat="43.76455" lon="3.52332">
        <ele>498.558</ele>
        <time>2008-04-19T10:12:29Z</time>
      </trkpt>
      <trkpt lat="43.76461" lon="3.52333">
        <ele>499.165</ele>
        <time>2008-04-19T10:12:34Z</time>
      </trkpt>
      <trkpt lat="43.76468" lon="3.52336">
        <ele>498.89</ele>
        <time>2008-04-19T10:12:40Z</time>
      </trkpt>
      <trkpt lat="43.76489" lon="3.52353">
        <ele>500.694</ele>
        <time>2008-04-19T10:12:59Z</time>
      </trkpt>
      <trkpt lat="43.76508" lon="3.52366">
        <ele>501.603</ele>
        <time>2008-04-19T10:13:14Z</time>
      </trkpt>
      <trkpt lat="43.76512" lon="3.52369">
        <ele>501.675</ele>
        <time>2008-04-19T10:13:18Z</time>
      </trkpt>
      <trkpt lat="43.76519" lon="3.52376">
        <ele>501.667</ele>
        <time>2008-04-19T10:13:25Z</time>
      </trkpt>
      <trkpt lat="43.76525" lon="3.52385">
        <ele>501.765</ele>
        <time>2008-04-19T10:13:31Z</time>
      </trkpt>
      <trkpt lat="43.76526" lon="3.52391">
        <ele>502.077</ele>
        <time>2008-04-19T10:13:35Z</time>
      </trkpt>
      <trkpt lat="43.76527" lon="3.52399">
        <ele>502.553</ele>
        <time>2008-04-19T10:13:40Z</time>
      </trkpt>
      <trkpt lat="43.76547" lon="3.52419">
        <ele>502.78</ele>
        <time>2008-04-19T10:13:57Z</time>
      </trkpt>
      <trkpt lat="43.76567" lon="3.52426">
        <ele>502.812</ele>
        <time>2008-04-19T10:14:12Z</time>
      </trkpt>
      <trkpt lat="43.76579" lon="3.52429">
        <ele>503.602</ele>
        <time>2008-04-19T10:14:22Z</time>
      </trkpt>
      <trkpt lat="43.76584" lon="3.52429">
        <ele>504.838</ele>
        <time>2008-04-19T10:14:26Z</time>
      </trkpt>
      <trkpt lat="43.76606" lon="3.52432">
        <ele>505.1</ele>
        <time>2008-04-19T10:14:43Z</time>
      </trkpt>
      <trkpt lat="43.76622" lon="3.5244">
        <ele>506.317</ele>
        <time>2008-04-19T10:14:56Z</time>
      </trkpt>
      <trkpt lat="43.76626" lon="3.52442">
        <ele>507.541</ele>
        <time>2008-04-19T10:14:59Z</time>
      </trkpt>
      <trkpt lat="43.76644" lon="3.52451">
        <ele>508.395</ele>
        <time>2008-04-19T10:15:13Z</time>
      </trkpt>
      <trkpt lat="43.76658" lon="3.5246">
        <ele>508.06</ele>
        <time>2008-04-19T10:15:26Z</time>
      </trkpt>
      <trkpt lat="43.76679" lon="3.52473">
        <ele>508.768</ele>
        <time>2008-04-19T10:15:43Z</time>
      </trkpt>
      <trkpt lat="43.76694" lon="3.5249">
        <ele>508.461</ele>
        <time>2008-04-19T10:15:58Z</time>
      </trkpt>
      <trkpt lat="43.76697" lon="3.52496">
        <ele>507.547</ele>
        <time>2008-04-19T10:16:02Z</time>
      </trkpt>
      <trkpt lat="43.76699" lon="3.52501">
        <ele>508.116</ele>
        <time>2008-04-19T10:16:06Z</time>
      </trkpt>
      <trkpt lat="43.76703" lon="3.52535">
        <ele>508.288</ele>
        <time>2008-04-19T10:16:23Z</time>
      </trkpt>
      <trkpt lat="43.7671" lon="3.52555">
        <ele>508.232</ele>
        <time>2008-04-19T10:16:34Z</time>
      </trkpt>
      <trkpt lat="43.76724" lon="3.52575">
        <ele>508.05</ele>
        <time>2008-04-19T10:16:51Z</time>
      </trkpt>
      <trkpt lat="43.76729" lon="3.52584">
        <ele>507.415</ele>
        <time>2008-04-19T10:16:58Z</time>
      </trkpt>
      <trkpt lat="43.76741" lon="3.52597">
        <ele>507.944</ele>
        <time>2008-04-19T10:17:09Z</time>
      </trkpt>
      <trkpt lat="43.76754" lon="3.52606">
        <ele>508.689</ele>
        <time>2008-04-19T10:17:21Z</time>
      </trkpt>
      <trkpt lat="43.7676" lon="3.52612">
        <ele>507.218</ele>
        <time>2008-04-19T10:17:27Z</time>
      </trkpt>
      <trkpt lat="43.76775" lon="3.52623">
        <ele>506.204</ele>
        <time>2008-04-19T10:17:40Z</time>
      </trkpt>
      <trkpt lat="43.76786" lon="3.52632">
        <ele>505.165</ele>
        <time>2008-04-19T10:17:50Z</time>
      </trkpt>
      <trkpt lat="43.76804" lon="3.52648">
        <ele>504.726</ele>
        <time>2008-04-19T10:18:07Z</time>
      </trkpt>
      <trkpt lat="43.76812" lon="3.52651">
        <ele>504.256</ele>
        <time>2008-04-19T10:18:21Z</time>
      </trkpt>
      <trkpt lat="43.76813" lon="3.52655">
        <ele>503.703</ele>
        <time>2008-04-19T10:18:25Z</time>
      </trkpt>
      <trkpt lat="43.76821" lon="3.52663">
        <ele>504.082</ele>
        <time>2008-04-19T10:18:33Z</time>
      </trkpt>
      <trkpt lat="43.76828" lon="3.52668">
        <ele>503.617</ele>
        <time>2008-04-19T10:18:39Z</time>
      </trkpt>
      <trkpt lat="43.76839" lon="3.52674">
        <ele>503.333</ele>
        <time>2008-04-19T10:18:48Z</time>
      </trkpt>
      <trkpt lat="43.76855" lon="3.52682">
        <ele>503.629</ele>
        <time>2008-04-19T10:19:03Z</time>
      </trkpt>
      <trkpt lat="43.76856" lon="3.52683">
        <ele>503.955</ele>
        <time>2008-04-19T10:19:04Z</time>
      </trkpt>
      <trkpt lat="43.76872" lon="3.52695">
        <ele>503.416</ele>
        <time>2008-04-19T10:19:20Z</time>
      </trkpt>
      <trkpt lat="43.76882" lon="3.52707">
        <ele>503.028</ele>
        <time>2008-04-19T10:19:30Z</time>
      </trkpt>
      <trkpt lat="43.76893" lon="3.52723">
        <ele>504.105</ele>
        <time>2008-04-19T10:19:43Z</time>
      </trkpt>
      <trkpt lat="43.76893" lon="3.52725">
        <ele>504.028</ele>
        <time>2008-04-19T10:19:44Z</time>
      </trkpt>
      <trkpt lat="43.7689" lon="3.52734">
        <ele>503.459</ele>
        <time>2008-04-19T10:19:51Z</time>
      </trkpt>
      <trkpt lat="43.76888" lon="3.52742">
        <ele>502.708</ele>
        <time>2008-04-19T10:19:57Z</time>
      </trkpt>
      <trkpt lat="43.76885" lon="3.52753">
        <ele>503.953</ele>
        <time>2008-04-19T10:20:03Z</time>
      </trkpt>
      <trkpt lat="43.76884" lon="3.52781">
        <ele>501.77</ele>
        <time>2008-04-19T10:20:20Z</time>
      </trkpt>
      <trkpt lat="43.76885" lon="3.52815">
        <ele>502.475</ele>
        <time>2008-04-19T10:20:40Z</time>
      </trkpt>
      <trkpt lat="43.76891" lon="3.52829">
        <ele>503.64</ele>
        <time>2008-04-19T10:20:49Z</time>
      </trkpt>
      <trkpt lat="43.76905" lon="3.52848">
        <ele>503.799</ele>
        <time>2008-04-19T10:21:02Z</time>
      </trkpt>
      <trkpt lat="43.76907" lon="3.5285">
        <ele>502.745</ele>
        <time>2008-04-19T10:21:04Z</time>
      </trkpt>
      <trkpt lat="43.76912" lon="3.52856">
        <ele>503.104</ele>
        <time>2008-04-19T10:21:09Z</time>
      </trkpt>
      <trkpt lat="43.76923" lon="3.5287">
        <ele>504.675</ele>
        <time>2008-04-19T10:21:22Z</time>
      </trkpt>
      <trkpt lat="43.76926" lon="3.52874">
        <ele>502.743</ele>
        <time>2008-04-19T10:21:25Z</time>
      </trkpt>
      <trkpt lat="43.76937" lon="3.52889">
        <ele>502.47</ele>
        <time>2008-04-19T10:21:36Z</time>
      </trkpt>
      <trkpt lat="43.76932" lon="3.52898">
        <ele>500.743</ele>
        <time>2008-04-19T10:21:43Z</time>
      </trkpt>
      <trkpt lat="43.76929" lon="3.529">
        <ele>500.573</ele>
        <time>2008-04-19T10:21:46Z</time>
      </trkpt>
      <trkpt lat="43.76923" lon="3.52902">
        <ele>499.313</ele>
        <time>2008-04-19T10:21:51Z</time>
      </trkpt>
      <trkpt lat="43.76919" lon="3.52905">
        <ele>498.693</ele>
        <time>2008-04-19T10:21:55Z</time>
      </trkpt>
      <trkpt lat="43.76915" lon="3.52909">
        <ele>498.266</ele>
        <time>2008-04-19T10:22:00Z</time>
      </trkpt>
      <trkpt lat="43.76918" lon="3.52916">
        <ele>497.666</ele>
        <time>2008-04-19T10:22:04Z</time>
      </trkpt>
      <trkpt lat="43.76921" lon="3.52925">
        <ele>497.265</ele>
        <time>2008-04-19T10:22:09Z</time>
      </trkpt>
      <trkpt lat="43.76922" lon="3.52932">
        <ele>498.073</ele>
        <time>2008-04-19T10:22:13Z</time>
      </trkpt>
      <trkpt lat="43.76921" lon="3.52935">
        <ele>497.223</ele>
        <time>2008-04-19T10:22:15Z</time>
      </trkpt>
      <trkpt lat="43.76922" lon="3.52941">
        <ele>497.428</ele>
        <time>2008-04-19T10:22:19Z</time>
      </trkpt>
      <trkpt lat="43.76925" lon="3.52954">
        <ele>497.527</ele>
        <time>2008-04-19T10:22:30Z</time>
      </trkpt>
      <trkpt lat="43.76947" lon="3.52974">
        <ele>498.238</ele>
        <time>2008-04-19T10:22:51Z</time>
      </trkpt>
      <trkpt lat="43.76956" lon="3.5298">
        <ele>498.102</ele>
        <time>2008-04-19T10:22:58Z</time>
      </trkpt>
      <trkpt lat="43.76962" lon="3.52983">
        <ele>497.888</ele>
        <time>2008-04-19T10:23:02Z</time>
      </trkpt>
      <trkpt lat="43.76985" lon="3.52983">
        <ele>498.759</ele>
        <time>2008-04-19T10:23:20Z</time>
      </trkpt>
      <trkpt lat="43.76989" lon="3.5298">
        <ele>500.189</ele>
        <time>2008-04-19T10:23:23Z</time>
      </trkpt>
      <trkpt lat="43.76986" lon="3.52982">
        <ele>499.947</ele>
        <time>2008-04-19T10:23:35Z</time>
      </trkpt>
      <trkpt lat="43.76985" lon="3.52985">
        <ele>499.64</ele>
        <time>2008-04-19T10:23:54Z</time>
      </trkpt>
      <trkpt lat="43.76985" lon="3.52988">
        <ele>498.96</ele>
        <time>2008-04-19T10:23:56Z</time>
      </trkpt>
      <trkpt lat="43.76986" lon="3.52995">
        <ele>498.809</ele>
        <time>2008-04-19T10:24:01Z</time>
      </trkpt>
      <trkpt lat="43.76996" lon="3.53015">
        <ele>498.494</ele>
        <time>2008-04-19T10:24:18Z</time>
      </trkpt>
      <trkpt lat="43.7698" lon="3.53025">
        <ele>496.77</ele>
        <time>2008-04-19T10:24:32Z</time>
      </trkpt>
      <trkpt lat="43.76973" lon="3.53031">
        <ele>495.328</ele>
        <time>2008-04-19T10:24:38Z</time>
      </trkpt>
      <trkpt lat="43.76967" lon="3.53035">
        <ele>495.459</ele>
        <time>2008-04-19T10:24:44Z</time>
      </trkpt>
      <trkpt lat="43.76966" lon="3.53037">
        <ele>494.269</ele>
        <time>2008-04-19T10:24:46Z</time>
      </trkpt>
      <trkpt lat="43.76965" lon="3.53045">
        <ele>493.161</ele>
        <time>2008-04-19T10:24:55Z</time>
      </trkpt>
      <trkpt lat="43.76968" lon="3.53064">
        <ele>492.063</ele>
        <time>2008-04-19T10:25:08Z</time>
      </trkpt>
      <trkpt lat="43.7698" lon="3.53081">
        <ele>491.118</ele>
        <time>2008-04-19T10:25:24Z</time>
      </trkpt>
      <trkpt lat="43.76997" lon="3.53094">
        <ele>490.408</ele>
        <time>2008-04-19T10:25:41Z</time>
      </trkpt>
      <trkpt lat="43.77003" lon="3.53102">
        <ele>490.793</ele>
        <time>2008-04-19T10:25:51Z</time>
      </trkpt>
      <trkpt lat="43.77017" lon="3.53117">
        <ele>490.837</ele>
        <time>2008-04-19T10:26:06Z</time>
      </trkpt>
      <trkpt lat="43.77024" lon="3.53135">
        <ele>491.268</ele>
        <time>2008-04-19T10:26:17Z</time>
      </trkpt>
      <trkpt lat="43.77028" lon="3.5314">
        <ele>491.237</ele>
        <time>2008-04-19T10:26:21Z</time>
      </trkpt>
      <trkpt lat="43.77038" lon="3.53154">
        <ele>491.927</ele>
        <time>2008-04-19T10:26:33Z</time>
      </trkpt>
      <trkpt lat="43.77042" lon="3.53154">
        <ele>492.883</ele>
        <time>2008-04-19T10:26:39Z</time>
      </trkpt>
      <trkpt lat="43.77062" lon="3.53145">
        <ele>494.651</ele>
        <time>2008-04-19T10:26:56Z</time>
      </trkpt>
      <trkpt lat="43.77064" lon="3.53145">
        <ele>495.093</ele>
        <time>2008-04-19T10:26:58Z</time>
      </trkpt>
      <trkpt lat="43.77073" lon="3.53142">
        <ele>495.854</ele>
        <time>2008-04-19T10:27:06Z</time>
      </trkpt>
      <trkpt lat="43.77089" lon="3.53138">
        <ele>497.575</ele>
        <time>2008-04-19T10:27:19Z</time>
      </trkpt>
      <trkpt lat="43.77108" lon="3.53143">
        <ele>499.372</ele>
        <time>2008-04-19T10:27:34Z</time>
      </trkpt>
      <trkpt lat="43.77123" lon="3.53147">
        <ele>500.016</ele>
        <time>2008-04-19T10:27:46Z</time>
      </trkpt>
      <trkpt lat="43.77143" lon="3.53152">
        <ele>500.656</ele>
        <time>2008-04-19T10:28:01Z</time>
      </trkpt>
      <trkpt lat="43.77157" lon="3.53164">
        <ele>502.935</ele>
        <time>2008-04-19T10:28:15Z</time>
      </trkpt>
      <trkpt lat="43.77161" lon="3.53171">
        <ele>502.944</ele>
        <time>2008-04-19T10:28:21Z</time>
      </trkpt>
      <trkpt lat="43.77163" lon="3.53174">
        <ele>503.176</ele>
        <time>2008-04-19T10:28:23Z</time>
      </trkpt>
      <trkpt lat="43.77166" lon="3.53179">
        <ele>503.689</ele>
        <time>2008-04-19T10:28:27Z</time>
      </trkpt>
      <trkpt lat="43.77171" lon="3.53188">
        <ele>504.584</ele>
        <time>2008-04-19T10:28:39Z</time>
      </trkpt>
      <trkpt lat="43.77175" lon="3.5319">
        <ele>504.913</ele>
        <time>2008-04-19T10:28:44Z</time>
      </trkpt>
      <trkpt lat="43.77188" lon="3.53187">
        <ele>507.103</ele>
        <time>2008-04-19T10:28:57Z</time>
      </trkpt>
      <trkpt lat="43.77199" lon="3.53185">
        <ele>508.26</ele>
        <time>2008-04-19T10:29:10Z</time>
      </trkpt>
      <trkpt lat="43.77203" lon="3.53187">
        <ele>509.134</ele>
        <time>2008-04-19T10:29:14Z</time>
      </trkpt>
      <trkpt lat="43.77214" lon="3.53203">
        <ele>509.422</ele>
        <time>2008-04-19T10:29:27Z</time>
      </trkpt>
      <trkpt lat="43.77222" lon="3.53214">
        <ele>509.863</ele>
        <time>2008-04-19T10:29:37Z</time>
      </trkpt>
      <trkpt lat="43.77227" lon="3.53218">
        <ele>510.967</ele>
        <time>2008-04-19T10:29:41Z</time>
      </trkpt>
      <trkpt lat="43.77236" lon="3.53235">
        <ele>512.173</ele>
        <time>2008-04-19T10:29:56Z</time>
      </trkpt>
      <trkpt lat="43.77237" lon="3.53236">
        <ele>511.704</ele>
        <time>2008-04-19T10:29:57Z</time>
      </trkpt>
      <trkpt lat="43.77238" lon="3.5324">
        <ele>512.215</ele>
        <time>2008-04-19T10:30:00Z</time>
      </trkpt>
      <trkpt lat="43.77244" lon="3.5325">
        <ele>512.896</ele>
        <time>2008-04-19T10:30:09Z</time>
      </trkpt>
      <trkpt lat="43.77244" lon="3.53256">
        <ele>513.565</ele>
        <time>2008-04-19T10:30:12Z</time>
      </trkpt>
      <trkpt lat="43.7725" lon="3.5327">
        <ele>513.799</ele>
        <time>2008-04-19T10:30:21Z</time>
      </trkpt>
      <trkpt lat="43.77262" lon="3.53271">
        <ele>514.71</ele>
        <time>2008-04-19T10:30:32Z</time>
      </trkpt>
      <trkpt lat="43.77271" lon="3.53287">
        <ele>515.708</ele>
        <time>2008-04-19T10:30:44Z</time>
      </trkpt>
      <trkpt lat="43.77271" lon="3.53291">
        <ele>516.309</ele>
        <time>2008-04-19T10:30:46Z</time>
      </trkpt>
      <trkpt lat="43.77276" lon="3.53312">
        <ele>516.492</ele>
        <time>2008-04-19T10:30:59Z</time>
      </trkpt>
      <trkpt lat="43.7728" lon="3.53316">
        <ele>516.145</ele>
        <time>2008-04-19T10:31:03Z</time>
      </trkpt>
      <trkpt lat="43.77283" lon="3.53321">
        <ele>516.6</ele>
        <time>2008-04-19T10:31:07Z</time>
      </trkpt>
      <trkpt lat="43.77286" lon="3.5333">
        <ele>516.21</ele>
        <time>2008-04-19T10:31:13Z</time>
      </trkpt>
      <trkpt lat="43.77288" lon="3.53349">
        <ele>515.428</ele>
        <time>2008-04-19T10:31:26Z</time>
      </trkpt>
      <trkpt lat="43.77277" lon="3.53368">
        <ele>513.562</ele>
        <time>2008-04-19T10:31:39Z</time>
      </trkpt>
      <trkpt lat="43.77274" lon="3.53382">
        <ele>513.034</ele>
        <time>2008-04-19T10:31:48Z</time>
      </trkpt>
      <trkpt lat="43.77277" lon="3.5339">
        <ele>513.343</ele>
        <time>2008-04-19T10:31:53Z</time>
      </trkpt>
      <trkpt lat="43.77282" lon="3.53397">
        <ele>512.585</ele>
        <time>2008-04-19T10:32:04Z</time>
      </trkpt>
      <trkpt lat="43.77284" lon="3.534">
        <ele>513.305</ele>
        <time>2008-04-19T10:32:07Z</time>
      </trkpt>
      <trkpt lat="43.77288" lon="3.53406">
        <ele>513.165</ele>
        <time>2008-04-19T10:32:11Z</time>
      </trkpt>
      <trkpt lat="43.77299" lon="3.53422">
        <ele>512.491</ele>
        <time>2008-04-19T10:32:25Z</time>
      </trkpt>
      <trkpt lat="43.77302" lon="3.53425">
        <ele>512.729</ele>
        <time>2008-04-19T10:32:29Z</time>
      </trkpt>
      <trkpt lat="43.77302" lon="3.5343">
        <ele>512.126</ele>
        <time>2008-04-19T10:32:31Z</time>
      </trkpt>
      <trkpt lat="43.77311" lon="3.53449">
        <ele>512.349</ele>
        <time>2008-04-19T10:32:44Z</time>
      </trkpt>
      <trkpt lat="43.77311" lon="3.53451">
        <ele>512.349</ele>
        <time>2008-04-19T10:32:45Z</time>
      </trkpt>
      <trkpt lat="43.7732" lon="3.53462">
        <ele>512.795</ele>
        <time>2008-04-19T10:32:55Z</time>
      </trkpt>
      <trkpt lat="43.77324" lon="3.53474">
        <ele>512.046</ele>
        <time>2008-04-19T10:33:02Z</time>
      </trkpt>
      <trkpt lat="43.77326" lon="3.53477">
        <ele>512.416</ele>
        <time>2008-04-19T10:33:05Z</time>
      </trkpt>
      <trkpt lat="43.77331" lon="3.53491">
        <ele>512.109</ele>
        <time>2008-04-19T10:33:15Z</time>
      </trkpt>
      <trkpt lat="43.77333" lon="3.53498">
        <ele>511.726</ele>
        <time>2008-04-19T10:33:19Z</time>
      </trkpt>
      <trkpt lat="43.77338" lon="3.53504">
        <ele>510.525</ele>
        <time>2008-04-19T10:33:31Z</time>
      </trkpt>
      <trkpt lat="43.77339" lon="3.53503">
        <ele>510.449</ele>
        <time>2008-04-19T10:33:42Z</time>
      </trkpt>
      <trkpt lat="43.77339" lon="3.53505">
        <ele>510.138</ele>
        <time>2008-04-19T10:33:58Z</time>
      </trkpt>
      <trkpt lat="43.77334" lon="3.53509">
        <ele>510.281</ele>
        <time>2008-04-19T10:34:25Z</time>
      </trkpt>
      <trkpt lat="43.77338" lon="3.53503">
        <ele>511.095</ele>
        <time>2008-04-19T10:34:45Z</time>
      </trkpt>
      <trkpt lat="43.77294" lon="3.53615">
        <ele>514.243</ele>
        <time>2008-04-19T12:17:38Z</time>
      </trkpt>
      <trkpt lat="43.77296" lon="3.53616">
        <ele>515.48</ele>
        <time>2008-04-19T12:17:40Z</time>
      </trkpt>
      <trkpt lat="43.7731" lon="3.53617">
        <ele>514.927</ele>
        <time>2008-04-19T12:17:47Z</time>
      </trkpt>
      <trkpt lat="43.77311" lon="3.53625">
        <ele>512.589</ele>
        <time>2008-04-19T12:17:53Z</time>
      </trkpt>
      <trkpt lat="43.77311" lon="3.53645">
        <ele>511.275</ele>
        <time>2008-04-19T12:18:05Z</time>
      </trkpt>
      <trkpt lat="43.77311" lon="3.53648">
        <ele>512.185</ele>
        <time>2008-04-19T12:18:07Z</time>
      </trkpt>
      <trkpt lat="43.77313" lon="3.53672">
        <ele>508.993</ele>
        <time>2008-04-19T12:18:22Z</time>
      </trkpt>
      <trkpt lat="43.77313" lon="3.53677">
        <ele>508.15</ele>
        <time>2008-04-19T12:18:25Z</time>
      </trkpt>
      <trkpt lat="43.77312" lon="3.53706">
        <ele>506.78</ele>
        <time>2008-04-19T12:18:42Z</time>
      </trkpt>
      <trkpt lat="43.77316" lon="3.53712">
        <ele>508.146</ele>
        <time>2008-04-19T12:18:46Z</time>
      </trkpt>
      <trkpt lat="43.77321" lon="3.53719">
        <ele>509.984</ele>
        <time>2008-04-19T12:18:52Z</time>
      </trkpt>
      <trkpt lat="43.77332" lon="3.53735">
        <ele>506.966</ele>
        <time>2008-04-19T12:19:05Z</time>
      </trkpt>
      <trkpt lat="43.77336" lon="3.53741">
        <ele>508.324</ele>
        <time>2008-04-19T12:19:10Z</time>
      </trkpt>
      <trkpt lat="43.77338" lon="3.53747">
        <ele>506.927</ele>
        <time>2008-04-19T12:19:14Z</time>
      </trkpt>
      <trkpt lat="43.77342" lon="3.53753">
        <ele>507.772</ele>
        <time>2008-04-19T12:19:18Z</time>
      </trkpt>
      <trkpt lat="43.77345" lon="3.5376">
        <ele>505.835</ele>
        <time>2008-04-19T12:19:22Z</time>
      </trkpt>
      <trkpt lat="43.77355" lon="3.5377">
        <ele>505.567</ele>
        <time>2008-04-19T12:19:39Z</time>
      </trkpt>
      <trkpt lat="43.77357" lon="3.53768">
        <ele>506.474</ele>
        <time>2008-04-19T12:20:12Z</time>
      </trkpt>
      <trkpt lat="43.77366" lon="3.53774">
        <ele>505.531</ele>
        <time>2008-04-19T12:20:26Z</time>
      </trkpt>
      <trkpt lat="43.77375" lon="3.53771">
        <ele>505.449</ele>
        <time>2008-04-19T12:20:34Z</time>
      </trkpt>
      <trkpt lat="43.77382" lon="3.53768">
        <ele>505.392</ele>
        <time>2008-04-19T12:20:39Z</time>
      </trkpt>
      <trkpt lat="43.77388" lon="3.53768">
        <ele>505.219</ele>
        <time>2008-04-19T12:20:44Z</time>
      </trkpt>
      <trkpt lat="43.77393" lon="3.53767">
        <ele>504.765</ele>
        <time>2008-04-19T12:20:48Z</time>
      </trkpt>
      <trkpt lat="43.77412" lon="3.53757">
        <ele>506.371</ele>
        <time>2008-04-19T12:21:03Z</time>
      </trkpt>
      <trkpt lat="43.77423" lon="3.53752">
        <ele>507.341</ele>
        <time>2008-04-19T12:21:11Z</time>
      </trkpt>
      <trkpt lat="43.77426" lon="3.5375">
        <ele>507.36</ele>
        <time>2008-04-19T12:21:14Z</time>
      </trkpt>
      <trkpt lat="43.77437" lon="3.53738">
        <ele>509.563</ele>
        <time>2008-04-19T12:21:25Z</time>
      </trkpt>
      <trkpt lat="43.77455" lon="3.53721">
        <ele>509.517</ele>
        <time>2008-04-19T12:21:41Z</time>
      </trkpt>
      <trkpt lat="43.77471" lon="3.53724">
        <ele>511.879</ele>
        <time>2008-04-19T12:21:52Z</time>
      </trkpt>
      <trkpt lat="43.77491" lon="3.53732">
        <ele>512.484</ele>
        <time>2008-04-19T12:22:07Z</time>
      </trkpt>
      <trkpt lat="43.77514" lon="3.53739">
        <ele>512.962</ele>
        <time>2008-04-19T12:22:24Z</time>
      </trkpt>
      <trkpt lat="43.77536" lon="3.53739">
        <ele>516.211</ele>
        <time>2008-04-19T12:22:39Z</time>
      </trkpt>
      <trkpt lat="43.77553" lon="3.53748">
        <ele>516.467</ele>
        <time>2008-04-19T12:22:52Z</time>
      </trkpt>
      <trkpt lat="43.77564" lon="3.53758">
        <ele>517.683</ele>
        <time>2008-04-19T12:23:02Z</time>
      </trkpt>
      <trkpt lat="43.77567" lon="3.5376">
        <ele>517.608</ele>
        <time>2008-04-19T12:23:05Z</time>
      </trkpt>
      <trkpt lat="43.77569" lon="3.53761">
        <ele>518.852</ele>
        <time>2008-04-19T12:23:07Z</time>
      </trkpt>
      <trkpt lat="43.77578" lon="3.53768">
        <ele>519.177</ele>
        <time>2008-04-19T12:23:18Z</time>
      </trkpt>
      <trkpt lat="43.77583" lon="3.53771">
        <ele>519.339</ele>
        <time>2008-04-19T12:23:22Z</time>
      </trkpt>
      <trkpt lat="43.77589" lon="3.53775">
        <ele>520.275</ele>
        <time>2008-04-19T12:23:28Z</time>
      </trkpt>
      <trkpt lat="43.77599" lon="3.53778">
        <ele>521.101</ele>
        <time>2008-04-19T12:23:36Z</time>
      </trkpt>
      <trkpt lat="43.77616" lon="3.53781">
        <ele>521.771</ele>
        <time>2008-04-19T12:23:49Z</time>
      </trkpt>
      <trkpt lat="43.77632" lon="3.53785">
        <ele>522.95</ele>
        <time>2008-04-19T12:24:03Z</time>
      </trkpt>
      <trkpt lat="43.77633" lon="3.53786">
        <ele>523.901</ele>
        <time>2008-04-19T12:24:04Z</time>
      </trkpt>
      <trkpt lat="43.77646" lon="3.53786">
        <ele>525.899</ele>
        <time>2008-04-19T12:24:17Z</time>
      </trkpt>
      <trkpt lat="43.77664" lon="3.53792">
        <ele>528.991</ele>
        <time>2008-04-19T12:24:30Z</time>
      </trkpt>
      <trkpt lat="43.77668" lon="3.53795">
        <ele>529.16</ele>
        <time>2008-04-19T12:24:42Z</time>
      </trkpt>
      <trkpt lat="43.77669" lon="3.53795">
        <ele>528.517</ele>
        <time>2008-04-19T12:24:53Z</time>
      </trkpt>
      <trkpt lat="43.7768" lon="3.53813">
        <ele>531.145</ele>
        <time>2008-04-19T12:25:05Z</time>
      </trkpt>
      <trkpt lat="43.77682" lon="3.53819">
        <ele>531.677</ele>
        <time>2008-04-19T12:25:08Z</time>
      </trkpt>
      <trkpt lat="43.77694" lon="3.53835">
        <ele>533.28</ele>
        <time>2008-04-19T12:25:21Z</time>
      </trkpt>
      <trkpt lat="43.77694" lon="3.53836">
        <ele>532.591</ele>
        <time>2008-04-19T12:25:22Z</time>
      </trkpt>
      <trkpt lat="43.77696" lon="3.53838">
        <ele>532.807</ele>
        <time>2008-04-19T12:25:24Z</time>
      </trkpt>
      <trkpt lat="43.77698" lon="3.53843">
        <ele>532.887</ele>
        <time>2008-04-19T12:25:28Z</time>
      </trkpt>
      <trkpt lat="43.77709" lon="3.53862">
        <ele>533.755</ele>
        <time>2008-04-19T12:25:42Z</time>
      </trkpt>
      <trkpt lat="43.77722" lon="3.5389">
        <ele>535.919</ele>
        <time>2008-04-19T12:26:02Z</time>
      </trkpt>
      <trkpt lat="43.7773" lon="3.53907">
        <ele>537.211</ele>
        <time>2008-04-19T12:26:16Z</time>
      </trkpt>
      <trkpt lat="43.77731" lon="3.53909">
        <ele>538.384</ele>
        <time>2008-04-19T12:26:28Z</time>
      </trkpt>
      <trkpt lat="43.77731" lon="3.5391">
        <ele>537.729</ele>
        <time>2008-04-19T12:26:47Z</time>
      </trkpt>
      <trkpt lat="43.77733" lon="3.53912">
        <ele>537.54</ele>
        <time>2008-04-19T12:27:03Z</time>
      </trkpt>
      <trkpt lat="43.77737" lon="3.53923">
        <ele>538.859</ele>
        <time>2008-04-19T12:27:20Z</time>
      </trkpt>
      <trkpt lat="43.7774" lon="3.53932">
        <ele>539.989</ele>
        <time>2008-04-19T12:27:27Z</time>
      </trkpt>
      <trkpt lat="43.77742" lon="3.53935">
        <ele>541.102</ele>
        <time>2008-04-19T12:27:30Z</time>
      </trkpt>
      <trkpt lat="43.77744" lon="3.53941">
        <ele>542.665</ele>
        <time>2008-04-19T12:27:34Z</time>
      </trkpt>
      <trkpt lat="43.77757" lon="3.53951">
        <ele>545.758</ele>
        <time>2008-04-19T12:27:47Z</time>
      </trkpt>
      <trkpt lat="43.77777" lon="3.53948">
        <ele>547.436</ele>
        <time>2008-04-19T12:28:05Z</time>
      </trkpt>
      <trkpt lat="43.77803" lon="3.53953">
        <ele>550.369</ele>
        <time>2008-04-19T12:28:24Z</time>
      </trkpt>
      <trkpt lat="43.77823" lon="3.53973">
        <ele>552.317</ele>
        <time>2008-04-19T12:28:43Z</time>
      </trkpt>
      <trkpt lat="43.77834" lon="3.53988">
        <ele>554.436</ele>
        <time>2008-04-19T12:28:54Z</time>
      </trkpt>
      <trkpt lat="43.77853" lon="3.5401">
        <ele>556.265</ele>
        <time>2008-04-19T12:29:12Z</time>
      </trkpt>
      <trkpt lat="43.77871" lon="3.5403">
        <ele>558.611</ele>
        <time>2008-04-19T12:29:29Z</time>
      </trkpt>
      <trkpt lat="43.77883" lon="3.54051">
        <ele>560.029</ele>
        <time>2008-04-19T12:29:43Z</time>
      </trkpt>
      <trkpt lat="43.77886" lon="3.54074">
        <ele>561.977</ele>
        <time>2008-04-19T12:29:58Z</time>
      </trkpt>
      <trkpt lat="43.77886" lon="3.54078">
        <ele>562.938</ele>
        <time>2008-04-19T12:30:00Z</time>
      </trkpt>
      <trkpt lat="43.7788" lon="3.54101">
        <ele>564.747</ele>
        <time>2008-04-19T12:30:12Z</time>
      </trkpt>
      <trkpt lat="43.77875" lon="3.5411">
        <ele>564.287</ele>
        <time>2008-04-19T12:30:18Z</time>
      </trkpt>
      <trkpt lat="43.77872" lon="3.54118">
        <ele>563.444</ele>
        <time>2008-04-19T12:30:22Z</time>
      </trkpt>
      <trkpt lat="43.77869" lon="3.5413">
        <ele>564.106</ele>
        <time>2008-04-19T12:30:28Z</time>
      </trkpt>
      <trkpt lat="43.77866" lon="3.54144">
        <ele>562.623</ele>
        <time>2008-04-19T12:30:36Z</time>
      </trkpt>
      <trkpt lat="43.77866" lon="3.54146">
        <ele>562.239</ele>
        <time>2008-04-19T12:30:38Z</time>
      </trkpt>
      <trkpt lat="43.77863" lon="3.54156">
        <ele>561.742</ele>
        <time>2008-04-19T12:30:49Z</time>
      </trkpt>
      <trkpt lat="43.77859" lon="3.5417">
        <ele>561.119</ele>
        <time>2008-04-19T12:30:59Z</time>
      </trkpt>
      <trkpt lat="43.77855" lon="3.54188">
        <ele>561.177</ele>
        <time>2008-04-19T12:31:14Z</time>
      </trkpt>
      <trkpt lat="43.77851" lon="3.54203">
        <ele>562.16</ele>
        <time>2008-04-19T12:31:26Z</time>
      </trkpt>
      <trkpt lat="43.7785" lon="3.54234">
        <ele>563.693</ele>
        <time>2008-04-19T12:31:42Z</time>
      </trkpt>
      <trkpt lat="43.77848" lon="3.54256">
        <ele>564.026</ele>
        <time>2008-04-19T12:31:52Z</time>
      </trkpt>
      <trkpt lat="43.77849" lon="3.54262">
        <ele>564.386</ele>
        <time>2008-04-19T12:31:56Z</time>
      </trkpt>
      <trkpt lat="43.77854" lon="3.5428">
        <ele>565.14</ele>
        <time>2008-04-19T12:32:07Z</time>
      </trkpt>
      <trkpt lat="43.77857" lon="3.54291">
        <ele>564.898</ele>
        <time>2008-04-19T12:32:22Z</time>
      </trkpt>
      <trkpt lat="43.77857" lon="3.54291">
        <ele>564.896</ele>
        <time>2008-04-19T12:32:23Z</time>
      </trkpt>
      <trkpt lat="43.77857" lon="3.54286">
        <ele>565.123</ele>
        <time>2008-04-19T12:32:37Z</time>
      </trkpt>
      <trkpt lat="43.77857" lon="3.54286">
        <ele>566.927</ele>
        <time>2008-04-19T12:32:40Z</time>
      </trkpt>
      <trkpt lat="43.77858" lon="3.54285">
        <ele>565.782</ele>
        <time>2008-04-19T12:32:57Z</time>
      </trkpt>
      <trkpt lat="43.77857" lon="3.54285">
        <ele>566.495</ele>
        <time>2008-04-19T12:33:00Z</time>
      </trkpt>
      <trkpt lat="43.77855" lon="3.54282">
        <ele>566.11</ele>
        <time>2008-04-19T12:33:03Z</time>
      </trkpt>
      <trkpt lat="43.77854" lon="3.54275">
        <ele>565.786</ele>
        <time>2008-04-19T12:33:07Z</time>
      </trkpt>
      <trkpt lat="43.77849" lon="3.5426">
        <ele>565.165</ele>
        <time>2008-04-19T12:33:22Z</time>
      </trkpt>
      <trkpt lat="43.77848" lon="3.54253">
        <ele>565.09</ele>
        <time>2008-04-19T12:33:28Z</time>
      </trkpt>
      <trkpt lat="43.77847" lon="3.54253">
        <ele>564.629</ele>
        <time>2008-04-19T12:33:40Z</time>
      </trkpt>
      <trkpt lat="43.77847" lon="3.54251">
        <ele>564.807</ele>
        <time>2008-04-19T12:33:54Z</time>
      </trkpt>
      <trkpt lat="43.77847" lon="3.5425">
        <ele>565.089</ele>
        <time>2008-04-19T12:33:59Z</time>
      </trkpt>
      <trkpt lat="43.77847" lon="3.54242">
        <ele>565.13</ele>
        <time>2008-04-19T12:34:05Z</time>
      </trkpt>
      <trkpt lat="43.77847" lon="3.54237">
        <ele>565.285</ele>
        <time>2008-04-19T12:34:09Z</time>
      </trkpt>
      <trkpt lat="43.77847" lon="3.54232">
        <ele>565.221</ele>
        <time>2008-04-19T12:34:12Z</time>
      </trkpt>
      <trkpt lat="43.77847" lon="3.54229">
        <ele>564.466</ele>
        <time>2008-04-19T12:34:15Z</time>
      </trkpt>
      <trkpt lat="43.77848" lon="3.54221">
        <ele>564.085</ele>
        <time>2008-04-19T12:34:20Z</time>
      </trkpt>
      <trkpt lat="43.77847" lon="3.54216">
        <ele>562.742</ele>
        <time>2008-04-19T12:34:23Z</time>
      </trkpt>
      <trkpt lat="43.77849" lon="3.54194">
        <ele>561.839</ele>
        <time>2008-04-19T12:34:39Z</time>
      </trkpt>
      <trkpt lat="43.77849" lon="3.54186">
        <ele>561.099</ele>
        <time>2008-04-19T12:34:48Z</time>
      </trkpt>
      <trkpt lat="43.77849" lon="3.54185">
        <ele>561.545</ele>
        <time>2008-04-19T12:34:49Z</time>
      </trkpt>
      <trkpt lat="43.77849" lon="3.54176">
        <ele>560.063</ele>
        <time>2008-04-19T12:34:58Z</time>
      </trkpt>
      <trkpt lat="43.77845" lon="3.5416">
        <ele>559.23</ele>
        <time>2008-04-19T12:35:10Z</time>
      </trkpt>
      <trkpt lat="43.77845" lon="3.54157">
        <ele>558.894</ele>
        <time>2008-04-19T12:35:12Z</time>
      </trkpt>
      <trkpt lat="43.77843" lon="3.54147">
        <ele>558.971</ele>
        <time>2008-04-19T12:35:19Z</time>
      </trkpt>
      <trkpt lat="43.77843" lon="3.54139">
        <ele>558.536</ele>
        <time>2008-04-19T12:35:25Z</time>
      </trkpt>
      <trkpt lat="43.77838" lon="3.54128">
        <ele>558.069</ele>
        <time>2008-04-19T12:35:36Z</time>
      </trkpt>
      <trkpt lat="43.77836" lon="3.54124">
        <ele>557.601</ele>
        <time>2008-04-19T12:35:39Z</time>
      </trkpt>
      <trkpt lat="43.77831" lon="3.54114">
        <ele>557.214</ele>
        <time>2008-04-19T12:35:48Z</time>
      </trkpt>
      <trkpt lat="43.77824" lon="3.54103">
        <ele>557.461</ele>
        <time>2008-04-19T12:36:00Z</time>
      </trkpt>
      <trkpt lat="43.77821" lon="3.54095">
        <ele>556.586</ele>
        <time>2008-04-19T12:36:09Z</time>
      </trkpt>
      <trkpt lat="43.77816" lon="3.54083">
        <ele>555.042</ele>
        <time>2008-04-19T12:36:21Z</time>
      </trkpt>
      <trkpt lat="43.77815" lon="3.54082">
        <ele>554.767</ele>
        <time>2008-04-19T12:36:22Z</time>
      </trkpt>
      <trkpt lat="43.77813" lon="3.54076">
        <ele>555.075</ele>
        <time>2008-04-19T12:36:26Z</time>
      </trkpt>
      <trkpt lat="43.77806" lon="3.54059">
        <ele>554.525</ele>
        <time>2008-04-19T12:36:42Z</time>
      </trkpt>
      <trkpt lat="43.77806" lon="3.54057">
        <ele>553.99</ele>
        <time>2008-04-19T12:36:59Z</time>
      </trkpt>
      <trkpt lat="43.77803" lon="3.54049">
        <ele>552.541</ele>
        <time>2008-04-19T12:37:04Z</time>
      </trkpt>
      <trkpt lat="43.77793" lon="3.54015">
        <ele>550.711</ele>
        <time>2008-04-19T12:37:25Z</time>
      </trkpt>
      <trkpt lat="43.77784" lon="3.53993">
        <ele>549.907</ele>
        <time>2008-04-19T12:37:41Z</time>
      </trkpt>
      <trkpt lat="43.77783" lon="3.53991">
        <ele>549.988</ele>
        <time>2008-04-19T12:37:43Z</time>
      </trkpt>
      <trkpt lat="43.77776" lon="3.53977">
        <ele>548.905</ele>
        <time>2008-04-19T12:37:54Z</time>
      </trkpt>
      <trkpt lat="43.77768" lon="3.5396">
        <ele>547.799</ele>
        <time>2008-04-19T12:38:04Z</time>
      </trkpt>
      <trkpt lat="43.77767" lon="3.53956">
        <ele>547.943</ele>
        <time>2008-04-19T12:38:07Z</time>
      </trkpt>
      <trkpt lat="43.77764" lon="3.53951">
        <ele>546.839</ele>
        <time>2008-04-19T12:38:11Z</time>
      </trkpt>
      <trkpt lat="43.77757" lon="3.53946">
        <ele>545.356</ele>
        <time>2008-04-19T12:38:24Z</time>
      </trkpt>
      <trkpt lat="43.77752" lon="3.53946">
        <ele>544.329</ele>
        <time>2008-04-19T12:38:29Z</time>
      </trkpt>
      <trkpt lat="43.77747" lon="3.53944">
        <ele>542.815</ele>
        <time>2008-04-19T12:38:33Z</time>
      </trkpt>
      <trkpt lat="43.77746" lon="3.53941">
        <ele>542.1</ele>
        <time>2008-04-19T12:38:35Z</time>
      </trkpt>
      <trkpt lat="43.77744" lon="3.53938">
        <ele>541.911</ele>
        <time>2008-04-19T12:38:38Z</time>
      </trkpt>
      <trkpt lat="43.7774" lon="3.53929">
        <ele>541.317</ele>
        <time>2008-04-19T12:38:44Z</time>
      </trkpt>
      <trkpt lat="43.77736" lon="3.53915">
        <ele>539.538</ele>
        <time>2008-04-19T12:38:53Z</time>
      </trkpt>
      <trkpt lat="43.77733" lon="3.53905">
        <ele>539.301</ele>
        <time>2008-04-19T12:39:01Z</time>
      </trkpt>
      <trkpt lat="43.77725" lon="3.53892">
        <ele>537.768</ele>
        <time>2008-04-19T12:39:10Z</time>
      </trkpt>
      <trkpt lat="43.77722" lon="3.53888">
        <ele>537.359</ele>
        <time>2008-04-19T12:39:18Z</time>
      </trkpt>
      <trkpt lat="43.77718" lon="3.53882">
        <ele>536.842</ele>
        <time>2008-04-19T12:39:24Z</time>
      </trkpt>
      <trkpt lat="43.77716" lon="3.53879">
        <ele>536.573</ele>
        <time>2008-04-19T12:39:28Z</time>
      </trkpt>
      <trkpt lat="43.77713" lon="3.53875">
        <ele>535.83</ele>
        <time>2008-04-19T12:39:34Z</time>
      </trkpt>
      <trkpt lat="43.77712" lon="3.5387">
        <ele>536.141</ele>
        <time>2008-04-19T12:39:37Z</time>
      </trkpt>
      <trkpt lat="43.77708" lon="3.5386">
        <ele>535.099</ele>
        <time>2008-04-19T12:39:44Z</time>
      </trkpt>
      <trkpt lat="43.777" lon="3.53847">
        <ele>534.315</ele>
        <time>2008-04-19T12:39:55Z</time>
      </trkpt>
      <trkpt lat="43.77698" lon="3.53843">
        <ele>534.068</ele>
        <time>2008-04-19T12:39:58Z</time>
      </trkpt>
      <trkpt lat="43.77695" lon="3.53835">
        <ele>533.953</ele>
        <time>2008-04-19T12:40:02Z</time>
      </trkpt>
      <trkpt lat="43.77694" lon="3.53827">
        <ele>532.82</ele>
        <time>2008-04-19T12:40:06Z</time>
      </trkpt>
      <trkpt lat="43.77684" lon="3.53814">
        <ele>531.075</ele>
        <time>2008-04-19T12:40:17Z</time>
      </trkpt>
      <trkpt lat="43.77676" lon="3.53802">
        <ele>531.188</ele>
        <time>2008-04-19T12:40:29Z</time>
      </trkpt>
      <trkpt lat="43.77674" lon="3.53798">
        <ele>530.627</ele>
        <time>2008-04-19T12:40:32Z</time>
      </trkpt>
      <trkpt lat="43.77666" lon="3.53787">
        <ele>529.832</ele>
        <time>2008-04-19T12:40:45Z</time>
      </trkpt>
      <trkpt lat="43.77663" lon="3.53787">
        <ele>529.085</ele>
        <time>2008-04-19T12:40:56Z</time>
      </trkpt>
      <trkpt lat="43.7766" lon="3.53785">
        <ele>529.147</ele>
        <time>2008-04-19T12:41:00Z</time>
      </trkpt>
      <trkpt lat="43.77641" lon="3.53784">
        <ele>526.862</ele>
        <time>2008-04-19T12:41:16Z</time>
      </trkpt>
      <trkpt lat="43.77629" lon="3.53782">
        <ele>524.729</ele>
        <time>2008-04-19T12:41:27Z</time>
      </trkpt>
      <trkpt lat="43.77611" lon="3.53778">
        <ele>522.442</ele>
        <time>2008-04-19T12:41:42Z</time>
      </trkpt>
      <trkpt lat="43.77608" lon="3.53779">
        <ele>521.893</ele>
        <time>2008-04-19T12:41:45Z</time>
      </trkpt>
      <trkpt lat="43.77599" lon="3.53779">
        <ele>520.728</ele>
        <time>2008-04-19T12:41:55Z</time>
      </trkpt>
      <trkpt lat="43.77596" lon="3.53777">
        <ele>520.04</ele>
        <time>2008-04-19T12:41:59Z</time>
      </trkpt>
      <trkpt lat="43.7758" lon="3.53763">
        <ele>518.99</ele>
        <time>2008-04-19T12:42:15Z</time>
      </trkpt>
      <trkpt lat="43.77577" lon="3.53762">
        <ele>518.579</ele>
        <time>2008-04-19T12:42:18Z</time>
      </trkpt>
      <trkpt lat="43.77571" lon="3.53755">
        <ele>517.786</ele>
        <time>2008-04-19T12:42:27Z</time>
      </trkpt>
      <trkpt lat="43.77556" lon="3.53746">
        <ele>516.302</ele>
        <time>2008-04-19T12:42:40Z</time>
      </trkpt>
      <trkpt lat="43.77548" lon="3.53742">
        <ele>516.05</ele>
        <time>2008-04-19T12:42:50Z</time>
      </trkpt>
      <trkpt lat="43.77538" lon="3.53741">
        <ele>515.36</ele>
        <time>2008-04-19T12:42:57Z</time>
      </trkpt>
      <trkpt lat="43.77534" lon="3.53741">
        <ele>515.306</ele>
        <time>2008-04-19T12:43:00Z</time>
      </trkpt>
      <trkpt lat="43.77522" lon="3.53742">
        <ele>514.332</ele>
        <time>2008-04-19T12:43:09Z</time>
      </trkpt>
      <trkpt lat="43.77515" lon="3.53741">
        <ele>513.793</ele>
        <time>2008-04-19T12:43:15Z</time>
      </trkpt>
      <trkpt lat="43.77498" lon="3.53734">
        <ele>513.429</ele>
        <time>2008-04-19T12:43:30Z</time>
      </trkpt>
      <trkpt lat="43.77487" lon="3.53729">
        <ele>512.372</ele>
        <time>2008-04-19T12:43:38Z</time>
      </trkpt>
      <trkpt lat="43.77466" lon="3.53722">
        <ele>511.629</ele>
        <time>2008-04-19T12:43:54Z</time>
      </trkpt>
      <trkpt lat="43.77463" lon="3.53722">
        <ele>511.48</ele>
        <time>2008-04-19T12:43:56Z</time>
      </trkpt>
      <trkpt lat="43.7746" lon="3.5372">
        <ele>511.313</ele>
        <time>2008-04-19T12:43:58Z</time>
      </trkpt>
      <trkpt lat="43.77442" lon="3.53726">
        <ele>510.257</ele>
        <time>2008-04-19T12:44:12Z</time>
      </trkpt>
      <trkpt lat="43.77441" lon="3.53727">
        <ele>510.42</ele>
        <time>2008-04-19T12:44:13Z</time>
      </trkpt>
      <trkpt lat="43.77428" lon="3.5374">
        <ele>509.277</ele>
        <time>2008-04-19T12:44:26Z</time>
      </trkpt>
      <trkpt lat="43.77424" lon="3.53742">
        <ele>508.635</ele>
        <time>2008-04-19T12:44:29Z</time>
      </trkpt>
      <trkpt lat="43.77421" lon="3.53746">
        <ele>507.981</ele>
        <time>2008-04-19T12:44:33Z</time>
      </trkpt>
      <trkpt lat="43.77398" lon="3.53761">
        <ele>504.131</ele>
        <time>2008-04-19T12:44:54Z</time>
      </trkpt>
      <trkpt lat="43.77391" lon="3.53763">
        <ele>504.67</ele>
        <time>2008-04-19T12:45:00Z</time>
      </trkpt>
      <trkpt lat="43.77387" lon="3.53765">
        <ele>504.769</ele>
        <time>2008-04-19T12:45:04Z</time>
      </trkpt>
      <trkpt lat="43.77384" lon="3.53769">
        <ele>504.799</ele>
        <time>2008-04-19T12:45:07Z</time>
      </trkpt>
      <trkpt lat="43.7737" lon="3.53773">
        <ele>504.073</ele>
        <time>2008-04-19T12:45:18Z</time>
      </trkpt>
      <trkpt lat="43.77368" lon="3.53774">
        <ele>503.89</ele>
        <time>2008-04-19T12:45:19Z</time>
      </trkpt>
      <trkpt lat="43.77365" lon="3.53775">
        <ele>503.784</ele>
        <time>2008-04-19T12:45:22Z</time>
      </trkpt>
      <trkpt lat="43.77352" lon="3.53771">
        <ele>505.763</ele>
        <time>2008-04-19T12:45:34Z</time>
      </trkpt>
      <trkpt lat="43.77349" lon="3.53768">
        <ele>505.931</ele>
        <time>2008-04-19T12:45:38Z</time>
      </trkpt>
      <trkpt lat="43.77339" lon="3.53753">
        <ele>507.594</ele>
        <time>2008-04-19T12:45:51Z</time>
      </trkpt>
      <trkpt lat="43.77335" lon="3.53745">
        <ele>506.924</ele>
        <time>2008-04-19T12:45:57Z</time>
      </trkpt>
      <trkpt lat="43.77331" lon="3.53736">
        <ele>506.043</ele>
        <time>2008-04-19T12:46:04Z</time>
      </trkpt>
      <trkpt lat="43.77327" lon="3.53727">
        <ele>506.034</ele>
        <time>2008-04-19T12:46:10Z</time>
      </trkpt>
      <trkpt lat="43.77321" lon="3.5372">
        <ele>505.447</ele>
        <time>2008-04-19T12:46:17Z</time>
      </trkpt>
      <trkpt lat="43.77313" lon="3.53706">
        <ele>503.625</ele>
        <time>2008-04-19T12:46:28Z</time>
      </trkpt>
      <trkpt lat="43.77312" lon="3.53695">
        <ele>502.63</ele>
        <time>2008-04-19T12:46:36Z</time>
      </trkpt>
      <trkpt lat="43.77313" lon="3.53692">
        <ele>502.002</ele>
        <time>2008-04-19T12:46:38Z</time>
      </trkpt>
      <trkpt lat="43.77314" lon="3.53685">
        <ele>501.947</ele>
        <time>2008-04-19T12:46:42Z</time>
      </trkpt>
      <trkpt lat="43.77314" lon="3.53681">
        <ele>501.872</ele>
        <time>2008-04-19T12:46:44Z</time>
      </trkpt>
      <trkpt lat="43.77314" lon="3.53674">
        <ele>502.445</ele>
        <time>2008-04-19T12:46:48Z</time>
      </trkpt>
      <trkpt lat="43.77315" lon="3.53664">
        <ele>502.517</ele>
        <time>2008-04-19T12:46:54Z</time>
      </trkpt>
      <trkpt lat="43.77314" lon="3.53643">
        <ele>504.639</ele>
        <time>2008-04-19T12:47:07Z</time>
      </trkpt>
      <trkpt lat="43.77313" lon="3.53611">
        <ele>505.956</ele>
        <time>2008-04-19T12:47:25Z</time>
      </trkpt>
      <trkpt lat="43.77314" lon="3.53609">
        <ele>505.957</ele>
        <time>2008-04-19T12:47:26Z</time>
      </trkpt>
      <trkpt lat="43.77314" lon="3.53597">
        <ele>506.088</ele>
        <time>2008-04-19T12:47:32Z</time>
      </trkpt>
      <trkpt lat="43.77315" lon="3.53594">
        <ele>506.006</ele>
        <time>2008-04-19T12:47:34Z</time>
      </trkpt>
      <trkpt lat="43.77312" lon="3.53576">
        <ele>507.7</ele>
        <time>2008-04-19T12:47:44Z</time>
      </trkpt>
      <trkpt lat="43.77303" lon="3.53557">
        <ele>507.582</ele>
        <time>2008-04-19T12:47:56Z</time>
      </trkpt>
      <trkpt lat="43.77301" lon="3.53545">
        <ele>507.468</ele>
        <time>2008-04-19T12:48:03Z</time>
      </trkpt>
      <trkpt lat="43.77297" lon="3.53537">
        <ele>507.172</ele>
        <time>2008-04-19T12:48:08Z</time>
      </trkpt>
      <trkpt lat="43.77294" lon="3.53528">
        <ele>507.773</ele>
        <time>2008-04-19T12:48:14Z</time>
      </trkpt>
      <trkpt lat="43.77289" lon="3.53499">
        <ele>507.695</ele>
        <time>2008-04-19T12:48:29Z</time>
      </trkpt>
      <trkpt lat="43.77282" lon="3.53461">
        <ele>508.771</ele>
        <time>2008-04-19T12:48:50Z</time>
      </trkpt>
      <trkpt lat="43.77282" lon="3.53456">
        <ele>509.187</ele>
        <time>2008-04-19T12:48:53Z</time>
      </trkpt>
      <trkpt lat="43.7728" lon="3.53447">
        <ele>509.329</ele>
        <time>2008-04-19T12:49:04Z</time>
      </trkpt>
      <trkpt lat="43.77279" lon="3.53442">
        <ele>508.779</ele>
        <time>2008-04-19T12:49:12Z</time>
      </trkpt>
      <trkpt lat="43.77275" lon="3.53424">
        <ele>509.207</ele>
        <time>2008-04-19T12:49:25Z</time>
      </trkpt>
      <trkpt lat="43.77274" lon="3.53423">
        <ele>509.276</ele>
        <time>2008-04-19T12:49:27Z</time>
      </trkpt>
      <trkpt lat="43.77274" lon="3.53419">
        <ele>508.935</ele>
        <time>2008-04-19T12:49:29Z</time>
      </trkpt>
      <trkpt lat="43.77272" lon="3.53403">
        <ele>509.326</ele>
        <time>2008-04-19T12:49:38Z</time>
      </trkpt>
      <trkpt lat="43.77271" lon="3.53389">
        <ele>510.768</ele>
        <time>2008-04-19T12:49:52Z</time>
      </trkpt>
      <trkpt lat="43.77271" lon="3.53382">
        <ele>511.936</ele>
        <time>2008-04-19T12:50:08Z</time>
      </trkpt>
      <trkpt lat="43.7727" lon="3.53376">
        <ele>512.112</ele>
        <time>2008-04-19T12:50:23Z</time>
      </trkpt>
      <trkpt lat="43.77269" lon="3.53374">
        <ele>512.182</ele>
        <time>2008-04-19T12:50:29Z</time>
      </trkpt>
      <trkpt lat="43.77263" lon="3.53352">
        <ele>512.707</ele>
        <time>2008-04-19T12:50:43Z</time>
      </trkpt>
      <trkpt lat="43.77251" lon="3.53324">
        <ele>513.667</ele>
        <time>2008-04-19T12:51:01Z</time>
      </trkpt>
      <trkpt lat="43.77248" lon="3.53294">
        <ele>514.321</ele>
        <time>2008-04-19T12:51:19Z</time>
      </trkpt>
      <trkpt lat="43.7725" lon="3.53272">
        <ele>512.81</ele>
        <time>2008-04-19T12:51:32Z</time>
      </trkpt>
      <trkpt lat="43.77249" lon="3.53268">
        <ele>513.894</ele>
        <time>2008-04-19T12:51:46Z</time>
      </trkpt>
      <trkpt lat="43.77249" lon="3.53266">
        <ele>513.549</ele>
        <time>2008-04-19T12:51:48Z</time>
      </trkpt>
      <trkpt lat="43.77249" lon="3.53267">
        <ele>513.601</ele>
        <time>2008-04-19T12:51:59Z</time>
      </trkpt>
      <trkpt lat="43.77246" lon="3.53261">
        <ele>513.102</ele>
        <time>2008-04-19T12:52:11Z</time>
      </trkpt>
      <trkpt lat="43.77244" lon="3.53254">
        <ele>512.258</ele>
        <time>2008-04-19T12:52:29Z</time>
      </trkpt>
      <trkpt lat="43.77241" lon="3.53249">
        <ele>511.706</ele>
        <time>2008-04-19T12:52:35Z</time>
      </trkpt>
      <trkpt lat="43.7724" lon="3.53242">
        <ele>511.467</ele>
        <time>2008-04-19T12:52:39Z</time>
      </trkpt>
      <trkpt lat="43.77229" lon="3.53219">
        <ele>510.837</ele>
        <time>2008-04-19T12:52:54Z</time>
      </trkpt>
      <trkpt lat="43.77228" lon="3.53218">
        <ele>510.234</ele>
        <time>2008-04-19T12:52:55Z</time>
      </trkpt>
      <trkpt lat="43.77223" lon="3.53205">
        <ele>509.765</ele>
        <time>2008-04-19T12:53:05Z</time>
      </trkpt>
      <trkpt lat="43.77212" lon="3.5319">
        <ele>509.151</ele>
        <time>2008-04-19T12:53:18Z</time>
      </trkpt>
      <trkpt lat="43.77209" lon="3.53184">
        <ele>508.683</ele>
        <time>2008-04-19T12:53:23Z</time>
      </trkpt>
      <trkpt lat="43.77203" lon="3.5318">
        <ele>507.86</ele>
        <time>2008-04-19T12:53:28Z</time>
      </trkpt>
      <trkpt lat="43.77186" lon="3.53183">
        <ele>506.354</ele>
        <time>2008-04-19T12:53:40Z</time>
      </trkpt>
      <trkpt lat="43.77177" lon="3.53188">
        <ele>503.976</ele>
        <time>2008-04-19T12:53:48Z</time>
      </trkpt>
      <trkpt lat="43.77168" lon="3.53177">
        <ele>502.82</ele>
        <time>2008-04-19T12:54:00Z</time>
      </trkpt>
      <trkpt lat="43.77154" lon="3.53157">
        <ele>501.189</ele>
        <time>2008-04-19T12:54:12Z</time>
      </trkpt>
      <trkpt lat="43.77145" lon="3.5315">
        <ele>500.427</ele>
        <time>2008-04-19T12:54:21Z</time>
      </trkpt>
      <trkpt lat="43.77135" lon="3.53146">
        <ele>500.219</ele>
        <time>2008-04-19T12:54:28Z</time>
      </trkpt>
      <trkpt lat="43.77131" lon="3.53145">
        <ele>499.7</ele>
        <time>2008-04-19T12:54:32Z</time>
      </trkpt>
      <trkpt lat="43.77115" lon="3.53141">
        <ele>498.934</ele>
        <time>2008-04-19T12:54:44Z</time>
      </trkpt>
      <trkpt lat="43.77112" lon="3.5314">
        <ele>498.415</ele>
        <time>2008-04-19T12:54:47Z</time>
      </trkpt>
      <trkpt lat="43.77098" lon="3.53136">
        <ele>496.263</ele>
        <time>2008-04-19T12:54:59Z</time>
      </trkpt>
      <trkpt lat="43.77087" lon="3.53137">
        <ele>495.233</ele>
        <time>2008-04-19T12:55:07Z</time>
      </trkpt>
      <trkpt lat="43.77078" lon="3.53141">
        <ele>494.394</ele>
        <time>2008-04-19T12:55:14Z</time>
      </trkpt>
      <trkpt lat="43.7707" lon="3.5314">
        <ele>493.812</ele>
        <time>2008-04-19T12:55:20Z</time>
      </trkpt>
      <trkpt lat="43.77063" lon="3.53143">
        <ele>493.175</ele>
        <time>2008-04-19T12:55:25Z</time>
      </trkpt>
      <trkpt lat="43.77057" lon="3.53146">
        <ele>492.817</ele>
        <time>2008-04-19T12:55:30Z</time>
      </trkpt>
      <trkpt lat="43.7704" lon="3.53153">
        <ele>491.75</ele>
        <time>2008-04-19T12:55:44Z</time>
      </trkpt>
      <trkpt lat="43.77031" lon="3.53134">
        <ele>490.285</ele>
        <time>2008-04-19T12:55:57Z</time>
      </trkpt>
      <trkpt lat="43.77026" lon="3.53119">
        <ele>489.899</ele>
        <time>2008-04-19T12:56:08Z</time>
      </trkpt>
      <trkpt lat="43.77016" lon="3.53106">
        <ele>489.954</ele>
        <time>2008-04-19T12:56:18Z</time>
      </trkpt>
      <trkpt lat="43.77012" lon="3.53102">
        <ele>489.658</ele>
        <time>2008-04-19T12:56:22Z</time>
      </trkpt>
      <trkpt lat="43.76997" lon="3.53093">
        <ele>490.437</ele>
        <time>2008-04-19T12:56:34Z</time>
      </trkpt>
      <trkpt lat="43.76989" lon="3.53085">
        <ele>490.13</ele>
        <time>2008-04-19T12:56:42Z</time>
      </trkpt>
      <trkpt lat="43.76983" lon="3.53083">
        <ele>490.142</ele>
        <time>2008-04-19T12:56:47Z</time>
      </trkpt>
      <trkpt lat="43.76972" lon="3.53073">
        <ele>490.459</ele>
        <time>2008-04-19T12:57:00Z</time>
      </trkpt>
      <trkpt lat="43.7697" lon="3.53068">
        <ele>491.193</ele>
        <time>2008-04-19T12:57:08Z</time>
      </trkpt>
      <trkpt lat="43.76967" lon="3.53066">
        <ele>490.315</ele>
        <time>2008-04-19T12:57:11Z</time>
      </trkpt>
      <trkpt lat="43.76962" lon="3.53072">
        <ele>490.189</ele>
        <time>2008-04-19T12:57:17Z</time>
      </trkpt>
      <trkpt lat="43.76959" lon="3.53082">
        <ele>490.459</ele>
        <time>2008-04-19T12:57:23Z</time>
      </trkpt>
      <trkpt lat="43.7696" lon="3.5309">
        <ele>490.301</ele>
        <time>2008-04-19T12:57:35Z</time>
      </trkpt>
      <trkpt lat="43.76959" lon="3.5309">
        <ele>490.26</ele>
        <time>2008-04-19T12:57:47Z</time>
      </trkpt>
      <trkpt lat="43.76956" lon="3.53103">
        <ele>489.236</ele>
        <time>2008-04-19T12:58:01Z</time>
      </trkpt>
      <trkpt lat="43.76956" lon="3.53105">
        <ele>488.131</ele>
        <time>2008-04-19T12:58:02Z</time>
      </trkpt>
      <trkpt lat="43.76948" lon="3.53115">
        <ele>486.652</ele>
        <time>2008-04-19T12:58:12Z</time>
      </trkpt>
      <trkpt lat="43.76944" lon="3.53115">
        <ele>485.721</ele>
        <time>2008-04-19T12:58:16Z</time>
      </trkpt>
      <trkpt lat="43.76935" lon="3.53116">
        <ele>485.361</ele>
        <time>2008-04-19T12:58:27Z</time>
      </trkpt>
      <trkpt lat="43.7693" lon="3.53118">
        <ele>484.798</ele>
        <time>2008-04-19T12:58:37Z</time>
      </trkpt>
      <trkpt lat="43.76918" lon="3.53119">
        <ele>484.09</ele>
        <time>2008-04-19T12:58:47Z</time>
      </trkpt>
      <trkpt lat="43.76914" lon="3.53117">
        <ele>484.505</ele>
        <time>2008-04-19T12:58:51Z</time>
      </trkpt>
      <trkpt lat="43.7691" lon="3.53117">
        <ele>484.948</ele>
        <time>2008-04-19T12:58:54Z</time>
      </trkpt>
      <trkpt lat="43.76902" lon="3.53122">
        <ele>483.926</ele>
        <time>2008-04-19T12:59:01Z</time>
      </trkpt>
      <trkpt lat="43.76896" lon="3.53131">
        <ele>483.32</ele>
        <time>2008-04-19T12:59:11Z</time>
      </trkpt>
      <trkpt lat="43.76893" lon="3.53135">
        <ele>483.743</ele>
        <time>2008-04-19T12:59:15Z</time>
      </trkpt>
      <trkpt lat="43.76882" lon="3.53137">
        <ele>483.617</ele>
        <time>2008-04-19T12:59:24Z</time>
      </trkpt>
      <trkpt lat="43.76879" lon="3.53138">
        <ele>483.009</ele>
        <time>2008-04-19T12:59:26Z</time>
      </trkpt>
      <trkpt lat="43.7687" lon="3.53148">
        <ele>483.124</ele>
        <time>2008-04-19T12:59:36Z</time>
      </trkpt>
      <trkpt lat="43.76868" lon="3.53148">
        <ele>482.417</ele>
        <time>2008-04-19T12:59:38Z</time>
      </trkpt>
      <trkpt lat="43.76856" lon="3.5316">
        <ele>482.256</ele>
        <time>2008-04-19T12:59:50Z</time>
      </trkpt>
      <trkpt lat="43.76849" lon="3.53164">
        <ele>482.558</ele>
        <time>2008-04-19T12:59:57Z</time>
      </trkpt>
      <trkpt lat="43.76836" lon="3.53162">
        <ele>482.399</ele>
        <time>2008-04-19T13:00:10Z</time>
      </trkpt>
      <trkpt lat="43.76833" lon="3.53162">
        <ele>482.251</ele>
        <time>2008-04-19T13:00:12Z</time>
      </trkpt>
      <trkpt lat="43.76831" lon="3.53163">
        <ele>482.101</ele>
        <time>2008-04-19T13:00:14Z</time>
      </trkpt>
      <trkpt lat="43.76818" lon="3.53175">
        <ele>480.376</ele>
        <time>2008-04-19T13:00:26Z</time>
      </trkpt>
      <trkpt lat="43.76813" lon="3.53188">
        <ele>480.423</ele>
        <time>2008-04-19T13:00:36Z</time>
      </trkpt>
      <trkpt lat="43.76812" lon="3.532">
        <ele>478.51</ele>
        <time>2008-04-19T13:00:45Z</time>
      </trkpt>
      <trkpt lat="43.76812" lon="3.53205">
        <ele>477.923</ele>
        <time>2008-04-19T13:00:48Z</time>
      </trkpt>
      <trkpt lat="43.76807" lon="3.53211">
        <ele>477.749</ele>
        <time>2008-04-19T13:00:55Z</time>
      </trkpt>
      <trkpt lat="43.76804" lon="3.53213">
        <ele>478.637</ele>
        <time>2008-04-19T13:00:58Z</time>
      </trkpt>
      <trkpt lat="43.76796" lon="3.53215">
        <ele>479.252</ele>
        <time>2008-04-19T13:01:06Z</time>
      </trkpt>
      <trkpt lat="43.76783" lon="3.53211">
        <ele>479.421</ele>
        <time>2008-04-19T13:01:17Z</time>
      </trkpt>
      <trkpt lat="43.76771" lon="3.53211">
        <ele>479.391</ele>
        <time>2008-04-19T13:01:29Z</time>
      </trkpt>
      <trkpt lat="43.76766" lon="3.53206">
        <ele>479.171</ele>
        <time>2008-04-19T13:01:34Z</time>
      </trkpt>
      <trkpt lat="43.76761" lon="3.53201">
        <ele>479.602</ele>
        <time>2008-04-19T13:01:40Z</time>
      </trkpt>
      <trkpt lat="43.76755" lon="3.53195">
        <ele>479.335</ele>
        <time>2008-04-19T13:01:45Z</time>
      </trkpt>
      <trkpt lat="43.76742" lon="3.53194">
        <ele>477.201</ele>
        <time>2008-04-19T13:01:55Z</time>
      </trkpt>
      <trkpt lat="43.76734" lon="3.53194">
        <ele>477.025</ele>
        <time>2008-04-19T13:02:01Z</time>
      </trkpt>
      <trkpt lat="43.76721" lon="3.53197">
        <ele>478.057</ele>
        <time>2008-04-19T13:02:12Z</time>
      </trkpt>
      <trkpt lat="43.76715" lon="3.53203">
        <ele>476.888</ele>
        <time>2008-04-19T13:02:17Z</time>
      </trkpt>
      <trkpt lat="43.76713" lon="3.53206">
        <ele>476.656</ele>
        <time>2008-04-19T13:02:19Z</time>
      </trkpt>
      <trkpt lat="43.76709" lon="3.53213">
        <ele>477.682</ele>
        <time>2008-04-19T13:02:23Z</time>
      </trkpt>
      <trkpt lat="43.76706" lon="3.53218">
        <ele>477.442</ele>
        <time>2008-04-19T13:02:27Z</time>
      </trkpt>
      <trkpt lat="43.76694" lon="3.53228">
        <ele>477.274</ele>
        <time>2008-04-19T13:02:39Z</time>
      </trkpt>
      <trkpt lat="43.76692" lon="3.5323">
        <ele>476.952</ele>
        <time>2008-04-19T13:02:41Z</time>
      </trkpt>
      <trkpt lat="43.76689" lon="3.53232">
        <ele>476.54</ele>
        <time>2008-04-19T13:02:43Z</time>
      </trkpt>
      <trkpt lat="43.76682" lon="3.53242">
        <ele>476.992</ele>
        <time>2008-04-19T13:02:51Z</time>
      </trkpt>
      <trkpt lat="43.76677" lon="3.53247">
        <ele>476.53</ele>
        <time>2008-04-19T13:02:56Z</time>
      </trkpt>
      <trkpt lat="43.76672" lon="3.53256">
        <ele>476.358</ele>
        <time>2008-04-19T13:03:02Z</time>
      </trkpt>
      <trkpt lat="43.76669" lon="3.53261">
        <ele>476.049</ele>
        <time>2008-04-19T13:03:08Z</time>
      </trkpt>
      <trkpt lat="43.76658" lon="3.53266">
        <ele>473.892</ele>
        <time>2008-04-19T13:03:17Z</time>
      </trkpt>
      <trkpt lat="43.7665" lon="3.53274">
        <ele>472.009</ele>
        <time>2008-04-19T13:03:25Z</time>
      </trkpt>
      <trkpt lat="43.76639" lon="3.53282">
        <ele>472.142</ele>
        <time>2008-04-19T13:03:34Z</time>
      </trkpt>
      <trkpt lat="43.76637" lon="3.53284">
        <ele>472.064</ele>
        <time>2008-04-19T13:03:36Z</time>
      </trkpt>
      <trkpt lat="43.76627" lon="3.53292">
        <ele>471.193</ele>
        <time>2008-04-19T13:03:47Z</time>
      </trkpt>
      <trkpt lat="43.76619" lon="3.53298">
        <ele>470.982</ele>
        <time>2008-04-19T13:03:54Z</time>
      </trkpt>
      <trkpt lat="43.76609" lon="3.53312">
        <ele>470.408</ele>
        <time>2008-04-19T13:04:05Z</time>
      </trkpt>
      <trkpt lat="43.76602" lon="3.53322">
        <ele>470.798</ele>
        <time>2008-04-19T13:04:13Z</time>
      </trkpt>
      <trkpt lat="43.76589" lon="3.53331">
        <ele>472.13</ele>
        <time>2008-04-19T13:04:24Z</time>
      </trkpt>
      <trkpt lat="43.76585" lon="3.53335">
        <ele>471.917</ele>
        <time>2008-04-19T13:04:28Z</time>
      </trkpt>
      <trkpt lat="43.76581" lon="3.53337">
        <ele>471.918</ele>
        <time>2008-04-19T13:04:31Z</time>
      </trkpt>
      <trkpt lat="43.76568" lon="3.53345">
        <ele>471.701</ele>
        <time>2008-04-19T13:04:41Z</time>
      </trkpt>
      <trkpt lat="43.76557" lon="3.53349">
        <ele>470.889</ele>
        <time>2008-04-19T13:04:50Z</time>
      </trkpt>
      <trkpt lat="43.76546" lon="3.53353">
        <ele>469.64</ele>
        <time>2008-04-19T13:04:59Z</time>
      </trkpt>
      <trkpt lat="43.76544" lon="3.53354">
        <ele>469.067</ele>
        <time>2008-04-19T13:05:01Z</time>
      </trkpt>
      <trkpt lat="43.76529" lon="3.53367">
        <ele>469.999</ele>
        <time>2008-04-19T13:05:15Z</time>
      </trkpt>
      <trkpt lat="43.76511" lon="3.53381">
        <ele>469.738</ele>
        <time>2008-04-19T13:05:30Z</time>
      </trkpt>
      <trkpt lat="43.76488" lon="3.53382">
        <ele>471.106</ele>
        <time>2008-04-19T13:05:47Z</time>
      </trkpt>
      <trkpt lat="43.76471" lon="3.53394">
        <ele>468.888</ele>
        <time>2008-04-19T13:06:06Z</time>
      </trkpt>
      <trkpt lat="43.7647" lon="3.53394">
        <ele>468.766</ele>
        <time>2008-04-19T13:06:07Z</time>
      </trkpt>
      <trkpt lat="43.76467" lon="3.53399">
        <ele>467.903</ele>
        <time>2008-04-19T13:06:18Z</time>
      </trkpt>
      <trkpt lat="43.76467" lon="3.534">
        <ele>467.632</ele>
        <time>2008-04-19T13:06:20Z</time>
      </trkpt>
      <trkpt lat="43.76456" lon="3.53432">
        <ele>467.156</ele>
        <time>2008-04-19T13:06:40Z</time>
      </trkpt>
      <trkpt lat="43.76446" lon="3.53463">
        <ele>466.582</ele>
        <time>2008-04-19T13:06:59Z</time>
      </trkpt>
      <trkpt lat="43.7643" lon="3.53488">
        <ele>466.387</ele>
        <time>2008-04-19T13:07:18Z</time>
      </trkpt>
      <trkpt lat="43.76411" lon="3.53504">
        <ele>466.897</ele>
        <time>2008-04-19T13:07:35Z</time>
      </trkpt>
      <trkpt lat="43.764" lon="3.53508">
        <ele>467.208</ele>
        <time>2008-04-19T13:07:49Z</time>
      </trkpt>
      <trkpt lat="43.76388" lon="3.53509">
        <ele>467.522</ele>
        <time>2008-04-19T13:08:04Z</time>
      </trkpt>
      <trkpt lat="43.76386" lon="3.53509">
        <ele>467.549</ele>
        <time>2008-04-19T13:08:15Z</time>
      </trkpt>
      <trkpt lat="43.76377" lon="3.5351">
        <ele>467.54</ele>
        <time>2008-04-19T13:08:28Z</time>
      </trkpt>
      <trkpt lat="43.76364" lon="3.53513">
        <ele>468.322</ele>
        <time>2008-04-19T13:08:48Z</time>
      </trkpt>
      <trkpt lat="43.76341" lon="3.53516">
        <ele>469.069</ele>
        <time>2008-04-19T13:09:06Z</time>
      </trkpt>
      <trkpt lat="43.76337" lon="3.53514">
        <ele>469.931</ele>
        <time>2008-04-19T13:09:26Z</time>
      </trkpt>
      <trkpt lat="43.76334" lon="3.5351">
        <ele>468.933</ele>
        <time>2008-04-19T13:09:47Z</time>
      </trkpt>
      <trkpt lat="43.76333" lon="3.53512">
        <ele>471.746</ele>
        <time>2008-04-19T13:10:17Z</time>
      </trkpt>
      <trkpt lat="43.76317" lon="3.53521">
        <ele>471.598</ele>
        <time>2008-04-19T13:10:37Z</time>
      </trkpt>
      <trkpt lat="43.76306" lon="3.53535">
        <ele>474.627</ele>
        <time>2008-04-19T13:10:53Z</time>
      </trkpt>
      <trkpt lat="43.76304" lon="3.53538">
        <ele>474.599</ele>
        <time>2008-04-19T13:11:08Z</time>
      </trkpt>
      <trkpt lat="43.76296" lon="3.53549">
        <ele>474.755</ele>
        <time>2008-04-19T13:11:23Z</time>
      </trkpt>
      <trkpt lat="43.76284" lon="3.53565">
        <ele>477.213</ele>
        <time>2008-04-19T13:11:40Z</time>
      </trkpt>
      <trkpt lat="43.76281" lon="3.53567">
        <ele>478.556</ele>
        <time>2008-04-19T13:11:43Z</time>
      </trkpt>
      <trkpt lat="43.76262" lon="3.53575">
        <ele>482.164</ele>
        <time>2008-04-19T13:12:01Z</time>
      </trkpt>
      <trkpt lat="43.7626" lon="3.53575">
        <ele>482.283</ele>
        <time>2008-04-19T13:12:02Z</time>
      </trkpt>
      <trkpt lat="43.76253" lon="3.53579">
        <ele>482.369</ele>
        <time>2008-04-19T13:12:16Z</time>
      </trkpt>
      <trkpt lat="43.7625" lon="3.5358">
        <ele>483.091</ele>
        <time>2008-04-19T13:12:20Z</time>
      </trkpt>
      <trkpt lat="43.76247" lon="3.53568">
        <ele>484.73</ele>
        <time>2008-04-19T13:12:28Z</time>
      </trkpt>
      <trkpt lat="43.76242" lon="3.53549">
        <ele>487.052</ele>
        <time>2008-04-19T13:12:41Z</time>
      </trkpt>
      <trkpt lat="43.76231" lon="3.53534">
        <ele>489.354</ele>
        <time>2008-04-19T13:12:54Z</time>
      </trkpt>
      <trkpt lat="43.7623" lon="3.53534">
        <ele>489.59</ele>
        <time>2008-04-19T13:12:55Z</time>
      </trkpt>
      <trkpt lat="43.76218" lon="3.53529">
        <ele>490.925</ele>
        <time>2008-04-19T13:13:04Z</time>
      </trkpt>
      <trkpt lat="43.76208" lon="3.53532">
        <ele>491.051</ele>
        <time>2008-04-19T13:13:11Z</time>
      </trkpt>
      <trkpt lat="43.76197" lon="3.53531">
        <ele>492.86</ele>
        <time>2008-04-19T13:13:23Z</time>
      </trkpt>
      <trkpt lat="43.76197" lon="3.53529">
        <ele>492.86</ele>
        <time>2008-04-19T13:13:24Z</time>
      </trkpt>
      <trkpt lat="43.76194" lon="3.53524">
        <ele>493.778</ele>
        <time>2008-04-19T13:13:28Z</time>
      </trkpt>
      <trkpt lat="43.76179" lon="3.53516">
        <ele>494.647</ele>
        <time>2008-04-19T13:13:42Z</time>
      </trkpt>
      <trkpt lat="43.76165" lon="3.53506">
        <ele>495.332</ele>
        <time>2008-04-19T13:13:56Z</time>
      </trkpt>
      <trkpt lat="43.76154" lon="3.53499">
        <ele>497.048</ele>
        <time>2008-04-19T13:14:06Z</time>
      </trkpt>
      <trkpt lat="43.7615" lon="3.53497">
        <ele>497.199</ele>
        <time>2008-04-19T13:14:08Z</time>
      </trkpt>
      <trkpt lat="43.76144" lon="3.53498">
        <ele>497.743</ele>
        <time>2008-04-19T13:14:13Z</time>
      </trkpt>
      <trkpt lat="43.76136" lon="3.53495">
        <ele>497.276</ele>
        <time>2008-04-19T13:14:19Z</time>
      </trkpt>
      <trkpt lat="43.76128" lon="3.53503">
        <ele>498.309</ele>
        <time>2008-04-19T13:14:28Z</time>
      </trkpt>
      <trkpt lat="43.76121" lon="3.53506">
        <ele>499.645</ele>
        <time>2008-04-19T13:14:35Z</time>
      </trkpt>
      <trkpt lat="43.76117" lon="3.53509">
        <ele>500.548</ele>
        <time>2008-04-19T13:14:39Z</time>
      </trkpt>
      <trkpt lat="43.76109" lon="3.53516">
        <ele>503.236</ele>
        <time>2008-04-19T13:14:48Z</time>
      </trkpt>
      <trkpt lat="43.76102" lon="3.53525">
        <ele>503.509</ele>
        <time>2008-04-19T13:14:56Z</time>
      </trkpt>
      <trkpt lat="43.76092" lon="3.53531">
        <ele>504.389</ele>
        <time>2008-04-19T13:15:04Z</time>
      </trkpt>
      <trkpt lat="43.76078" lon="3.53537">
        <ele>504.861</ele>
        <time>2008-04-19T13:15:15Z</time>
      </trkpt>
      <trkpt lat="43.76076" lon="3.5354">
        <ele>506.206</ele>
        <time>2008-04-19T13:15:18Z</time>
      </trkpt>
      <trkpt lat="43.76064" lon="3.53547">
        <ele>507.787</ele>
        <time>2008-04-19T13:15:30Z</time>
      </trkpt>
      <trkpt lat="43.76062" lon="3.53555">
        <ele>508.943</ele>
        <time>2008-04-19T13:15:34Z</time>
      </trkpt>
      <trkpt lat="43.76057" lon="3.53563">
        <ele>510.747</ele>
        <time>2008-04-19T13:15:42Z</time>
      </trkpt>
      <trkpt lat="43.76049" lon="3.53555">
        <ele>512.408</ele>
        <time>2008-04-19T13:15:55Z</time>
      </trkpt>
      <trkpt lat="43.76041" lon="3.53557">
        <ele>513.215</ele>
        <time>2008-04-19T13:16:04Z</time>
      </trkpt>
      <trkpt lat="43.76037" lon="3.53562">
        <ele>514.903</ele>
        <time>2008-04-19T13:16:10Z</time>
      </trkpt>
      <trkpt lat="43.76039" lon="3.53565">
        <ele>515.824</ele>
        <time>2008-04-19T13:16:12Z</time>
      </trkpt>
      <trkpt lat="43.76037" lon="3.53572">
        <ele>518.285</ele>
        <time>2008-04-19T13:16:18Z</time>
      </trkpt>
      <trkpt lat="43.76035" lon="3.53578">
        <ele>517.991</ele>
        <time>2008-04-19T13:16:23Z</time>
      </trkpt>
      <trkpt lat="43.76021" lon="3.53586">
        <ele>518.861</ele>
        <time>2008-04-19T13:16:38Z</time>
      </trkpt>
      <trkpt lat="43.7602" lon="3.53588">
        <ele>519.498</ele>
        <time>2008-04-19T13:16:51Z</time>
      </trkpt>
      <trkpt lat="43.76014" lon="3.5359">
        <ele>519.576</ele>
        <time>2008-04-19T13:16:56Z</time>
      </trkpt>
      <trkpt lat="43.7601" lon="3.53592">
        <ele>519.519</ele>
        <time>2008-04-19T13:17:00Z</time>
      </trkpt>
      <trkpt lat="43.76005" lon="3.53599">
        <ele>517.098</ele>
        <time>2008-04-19T13:17:11Z</time>
      </trkpt>
      <trkpt lat="43.75995" lon="3.53608">
        <ele>515.15</ele>
        <time>2008-04-19T13:17:23Z</time>
      </trkpt>
      <trkpt lat="43.75993" lon="3.53607">
        <ele>514.769</ele>
        <time>2008-04-19T13:17:37Z</time>
      </trkpt>
      <trkpt lat="43.75991" lon="3.53604">
        <ele>513.763</ele>
        <time>2008-04-19T13:17:53Z</time>
      </trkpt>
      <trkpt lat="43.75992" lon="3.53604">
        <ele>513.379</ele>
        <time>2008-04-19T13:18:11Z</time>
      </trkpt>
      <trkpt lat="43.75992" lon="3.53604">
        <ele>514.214</ele>
        <time>2008-04-19T13:18:34Z</time>
      </trkpt>
      <trkpt lat="43.75987" lon="3.5361">
        <ele>514.048</ele>
        <time>2008-04-19T13:18:48Z</time>
      </trkpt>
      <trkpt lat="43.75985" lon="3.53614">
        <ele>513.667</ele>
        <time>2008-04-19T13:18:52Z</time>
      </trkpt>
      <trkpt lat="43.75967" lon="3.53635">
        <ele>512.537</ele>
        <time>2008-04-19T13:19:11Z</time>
      </trkpt>
      <trkpt lat="43.75957" lon="3.53645">
        <ele>509.26</ele>
        <time>2008-04-19T13:19:22Z</time>
      </trkpt>
      <trkpt lat="43.75941" lon="3.53657">
        <ele>509.097</ele>
        <time>2008-04-19T13:19:36Z</time>
      </trkpt>
      <trkpt lat="43.75921" lon="3.53679">
        <ele>508.399</ele>
        <time>2008-04-19T13:19:56Z</time>
      </trkpt>
      <trkpt lat="43.7592" lon="3.5368">
        <ele>508.196</ele>
        <time>2008-04-19T13:19:57Z</time>
      </trkpt>
      <trkpt lat="43.759" lon="3.53692">
        <ele>507.092</ele>
        <time>2008-04-19T13:20:14Z</time>
      </trkpt>
      <trkpt lat="43.75883" lon="3.53699">
        <ele>506.336</ele>
        <time>2008-04-19T13:20:31Z</time>
      </trkpt>
      <trkpt lat="43.75882" lon="3.53701">
        <ele>506.47</ele>
        <time>2008-04-19T13:20:38Z</time>
      </trkpt>
      <trkpt lat="43.75881" lon="3.53701">
        <ele>506.762</ele>
        <time>2008-04-19T13:20:51Z</time>
      </trkpt>
      <trkpt lat="43.75874" lon="3.53705">
        <ele>506.537</ele>
        <time>2008-04-19T13:20:57Z</time>
      </trkpt>
      <trkpt lat="43.75859" lon="3.53705">
        <ele>507.728</ele>
        <time>2008-04-19T13:21:13Z</time>
      </trkpt>
      <trkpt lat="43.75853" lon="3.53698">
        <ele>509.826</ele>
        <time>2008-04-19T13:21:21Z</time>
      </trkpt>
      <trkpt lat="43.7584" lon="3.53702">
        <ele>510.563</ele>
        <time>2008-04-19T13:21:32Z</time>
      </trkpt>
      <trkpt lat="43.75835" lon="3.53714">
        <ele>513.161</ele>
        <time>2008-04-19T13:21:43Z</time>
      </trkpt>
      <trkpt lat="43.75828" lon="3.53723">
        <ele>513.354</ele>
        <time>2008-04-19T13:21:50Z</time>
      </trkpt>
      <trkpt lat="43.75822" lon="3.53728">
        <ele>513.941</ele>
        <time>2008-04-19T13:21:56Z</time>
      </trkpt>
      <trkpt lat="43.75817" lon="3.53734">
        <ele>516.579</ele>
        <time>2008-04-19T13:22:02Z</time>
      </trkpt>
      <trkpt lat="43.75816" lon="3.53734">
        <ele>515.898</ele>
        <time>2008-04-19T13:22:03Z</time>
      </trkpt>
      <trkpt lat="43.75813" lon="3.53734">
        <ele>517.087</ele>
        <time>2008-04-19T13:22:06Z</time>
      </trkpt>
      <trkpt lat="43.75803" lon="3.53731">
        <ele>519.322</ele>
        <time>2008-04-19T13:22:19Z</time>
      </trkpt>
      <trkpt lat="43.75799" lon="3.53715">
        <ele>519.953</ele>
        <time>2008-04-19T13:22:29Z</time>
      </trkpt>
      <trkpt lat="43.75797" lon="3.537">
        <ele>521.213</ele>
        <time>2008-04-19T13:22:37Z</time>
      </trkpt>
      <trkpt lat="43.75797" lon="3.53686">
        <ele>521.877</ele>
        <time>2008-04-19T13:22:47Z</time>
      </trkpt>
      <trkpt lat="43.75792" lon="3.53673">
        <ele>522.348</ele>
        <time>2008-04-19T13:22:57Z</time>
      </trkpt>
      <trkpt lat="43.75784" lon="3.53662">
        <ele>523.776</ele>
        <time>2008-04-19T13:23:08Z</time>
      </trkpt>
      <trkpt lat="43.75776" lon="3.53661">
        <ele>526.529</ele>
        <time>2008-04-19T13:23:21Z</time>
      </trkpt>
      <trkpt lat="43.75778" lon="3.53664">
        <ele>527.19</ele>
        <time>2008-04-19T13:23:23Z</time>
      </trkpt>
      <trkpt lat="43.75781" lon="3.53676">
        <ele>528.561</ele>
        <time>2008-04-19T13:23:33Z</time>
      </trkpt>
      <trkpt lat="43.75778" lon="3.53691">
        <ele>527.954</ele>
        <time>2008-04-19T13:23:44Z</time>
      </trkpt>
      <trkpt lat="43.75776" lon="3.53694">
        <ele>529.621</ele>
        <time>2008-04-19T13:23:54Z</time>
      </trkpt>
      <trkpt lat="43.75776" lon="3.53693">
        <ele>529.751</ele>
        <time>2008-04-19T13:23:55Z</time>
      </trkpt>
      <trkpt lat="43.75773" lon="3.53686">
        <ele>530.328</ele>
        <time>2008-04-19T13:24:01Z</time>
      </trkpt>
      <trkpt lat="43.75771" lon="3.53689">
        <ele>530.376</ele>
        <time>2008-04-19T13:24:04Z</time>
      </trkpt>
      <trkpt lat="43.7577" lon="3.53693">
        <ele>530.054</ele>
        <time>2008-04-19T13:24:07Z</time>
      </trkpt>
      <trkpt lat="43.75771" lon="3.53701">
        <ele>532.478</ele>
        <time>2008-04-19T13:24:13Z</time>
      </trkpt>
      <trkpt lat="43.75773" lon="3.53704">
        <ele>533.992</ele>
        <time>2008-04-19T13:24:15Z</time>
      </trkpt>
      <trkpt lat="43.75773" lon="3.53707">
        <ele>534.578</ele>
        <time>2008-04-19T13:24:17Z</time>
      </trkpt>
      <trkpt lat="43.75771" lon="3.53723">
        <ele>536.516</ele>
        <time>2008-04-19T13:24:27Z</time>
      </trkpt>
      <trkpt lat="43.75771" lon="3.53743">
        <ele>537.261</ele>
        <time>2008-04-19T13:24:41Z</time>
      </trkpt>
      <trkpt lat="43.75773" lon="3.53748">
        <ele>537.582</ele>
        <time>2008-04-19T13:24:53Z</time>
      </trkpt>
      <trkpt lat="43.7577" lon="3.5375">
        <ele>537.902</ele>
        <time>2008-04-19T13:24:57Z</time>
      </trkpt>
      <trkpt lat="43.75766" lon="3.53749">
        <ele>539.736</ele>
        <time>2008-04-19T13:25:07Z</time>
      </trkpt>
      <trkpt lat="43.75767" lon="3.53749">
        <ele>540.142</ele>
        <time>2008-04-19T13:25:19Z</time>
      </trkpt>
      <trkpt lat="43.75767" lon="3.53749">
        <ele>539.551</ele>
        <time>2008-04-19T13:25:36Z</time>
      </trkpt>
      <trkpt lat="43.75767" lon="3.5375">
        <ele>540.182</ele>
        <time>2008-04-19T13:26:27Z</time>
      </trkpt>
      <trkpt lat="43.75767" lon="3.53752">
        <ele>537.035</ele>
        <time>2008-04-19T13:26:59Z</time>
      </trkpt>
      <trkpt lat="43.75767" lon="3.53755">
        <ele>539.683</ele>
        <time>2008-04-19T13:27:24Z</time>
      </trkpt>
      <trkpt lat="43.75767" lon="3.53753">
        <ele>539.335</ele>
        <time>2008-04-19T13:27:40Z</time>
      </trkpt>
      <trkpt lat="43.75765" lon="3.53753">
        <ele>539.086</ele>
        <time>2008-04-19T13:28:01Z</time>
      </trkpt>
      <trkpt lat="43.75765" lon="3.5375">
        <ele>539.227</ele>
        <time>2008-04-19T13:28:15Z</time>
      </trkpt>
      <trkpt lat="43.75765" lon="3.53749">
        <ele>540.21</ele>
        <time>2008-04-19T13:28:38Z</time>
      </trkpt>
      <trkpt lat="43.75765" lon="3.53748">
        <ele>539.76</ele>
        <time>2008-04-19T13:29:47Z</time>
      </trkpt>
      <trkpt lat="43.75764" lon="3.53752">
        <ele>538.124</ele>
        <time>2008-04-19T13:30:50Z</time>
      </trkpt>
      <trkpt lat="43.75761" lon="3.53753">
        <ele>536.987</ele>
        <time>2008-04-19T13:30:55Z</time>
      </trkpt>
      <trkpt lat="43.7576" lon="3.53753">
        <ele>536.913</ele>
        <time>2008-04-19T13:31:09Z</time>
      </trkpt>
      <trkpt lat="43.75757" lon="3.53748">
        <ele>533.78</ele>
        <time>2008-04-19T13:32:25Z</time>
      </trkpt>
      <trkpt lat="43.75757" lon="3.53748">
        <ele>538.943</ele>
        <time>2008-04-19T13:32:26Z</time>
      </trkpt>
      <trkpt lat="43.75757" lon="3.53748">
        <ele>535.302</ele>
        <time>2008-04-19T13:32:27Z</time>
      </trkpt>
      <trkpt lat="43.75754" lon="3.53745">
        <ele>535.297</ele>
        <time>2008-04-19T13:32:40Z</time>
      </trkpt>
      <trkpt lat="43.75754" lon="3.53754">
        <ele>533.73</ele>
        <time>2008-04-19T13:32:52Z</time>
      </trkpt>
      <trkpt lat="43.75752" lon="3.53765">
        <ele>532.602</ele>
        <time>2008-04-19T13:33:01Z</time>
      </trkpt>
      <trkpt lat="43.75751" lon="3.53768">
        <ele>533.435</ele>
        <time>2008-04-19T13:33:04Z</time>
      </trkpt>
      <trkpt lat="43.75755" lon="3.53779">
        <ele>530.587</ele>
        <time>2008-04-19T13:33:12Z</time>
      </trkpt>
      <trkpt lat="43.75756" lon="3.53782">
        <ele>530.346</ele>
        <time>2008-04-19T13:33:14Z</time>
      </trkpt>
      <trkpt lat="43.75753" lon="3.53778">
        <ele>529.468</ele>
        <time>2008-04-19T13:33:19Z</time>
      </trkpt>
      <trkpt lat="43.75751" lon="3.53768">
        <ele>526.21</ele>
        <time>2008-04-19T13:33:27Z</time>
      </trkpt>
      <trkpt lat="43.75751" lon="3.53768">
        <ele>525.983</ele>
        <time>2008-04-19T13:33:28Z</time>
      </trkpt>
      <trkpt lat="43.7575" lon="3.53763">
        <ele>525.006</ele>
        <time>2008-04-19T13:33:33Z</time>
      </trkpt>
      <trkpt lat="43.75744" lon="3.53754">
        <ele>524.142</ele>
        <time>2008-04-19T13:33:41Z</time>
      </trkpt>
      <trkpt lat="43.75741" lon="3.53749">
        <ele>523.986</ele>
        <time>2008-04-19T13:33:44Z</time>
      </trkpt>
      <trkpt lat="43.7574" lon="3.53744">
        <ele>522.633</ele>
        <time>2008-04-19T13:33:49Z</time>
      </trkpt>
      <trkpt lat="43.75737" lon="3.53743">
        <ele>521.593</ele>
        <time>2008-04-19T13:33:54Z</time>
      </trkpt>
      <trkpt lat="43.75732" lon="3.53738">
        <ele>521.579</ele>
        <time>2008-04-19T13:34:01Z</time>
      </trkpt>
      <trkpt lat="43.75727" lon="3.53736">
        <ele>521.158</ele>
        <time>2008-04-19T13:34:06Z</time>
      </trkpt>
      <trkpt lat="43.75715" lon="3.53735">
        <ele>520.183</ele>
        <time>2008-04-19T13:34:15Z</time>
      </trkpt>
      <trkpt lat="43.75714" lon="3.53739">
        <ele>519.876</ele>
        <time>2008-04-19T13:34:18Z</time>
      </trkpt>
      <trkpt lat="43.75718" lon="3.53744">
        <ele>519.648</ele>
        <time>2008-04-19T13:34:23Z</time>
      </trkpt>
      <trkpt lat="43.75722" lon="3.53747">
        <ele>519.133</ele>
        <time>2008-04-19T13:34:29Z</time>
      </trkpt>
      <trkpt lat="43.75725" lon="3.53752">
        <ele>518.645</ele>
        <time>2008-04-19T13:34:33Z</time>
      </trkpt>
      <trkpt lat="43.75726" lon="3.53764">
        <ele>515.879</ele>
        <time>2008-04-19T13:34:41Z</time>
      </trkpt>
      <trkpt lat="43.75725" lon="3.53767">
        <ele>514.504</ele>
        <time>2008-04-19T13:34:44Z</time>
      </trkpt>
      <trkpt lat="43.75723" lon="3.53765">
        <ele>515.297</ele>
        <time>2008-04-19T13:34:50Z</time>
      </trkpt>
      <trkpt lat="43.75714" lon="3.53758">
        <ele>513.557</ele>
        <time>2008-04-19T13:35:00Z</time>
      </trkpt>
      <trkpt lat="43.75713" lon="3.53758">
        <ele>513.378</ele>
        <time>2008-04-19T13:35:01Z</time>
      </trkpt>
      <trkpt lat="43.75712" lon="3.53762">
        <ele>512.27</ele>
        <time>2008-04-19T13:35:05Z</time>
      </trkpt>
      <trkpt lat="43.75713" lon="3.53765">
        <ele>510.99</ele>
        <time>2008-04-19T13:35:07Z</time>
      </trkpt>
      <trkpt lat="43.75715" lon="3.53772">
        <ele>510.132</ele>
        <time>2008-04-19T13:35:11Z</time>
      </trkpt>
      <trkpt lat="43.75712" lon="3.53778">
        <ele>509.257</ele>
        <time>2008-04-19T13:35:16Z</time>
      </trkpt>
      <trkpt lat="43.75707" lon="3.5378">
        <ele>506.247</ele>
        <time>2008-04-19T13:35:21Z</time>
      </trkpt>
      <trkpt lat="43.75705" lon="3.53788">
        <ele>505.661</ele>
        <time>2008-04-19T13:35:26Z</time>
      </trkpt>
      <trkpt lat="43.75709" lon="3.53794">
        <ele>504.183</ele>
        <time>2008-04-19T13:35:31Z</time>
      </trkpt>
      <trkpt lat="43.75711" lon="3.53793">
        <ele>503.443</ele>
        <time>2008-04-19T13:35:33Z</time>
      </trkpt>
      <trkpt lat="43.75713" lon="3.53794">
        <ele>504.108</ele>
        <time>2008-04-19T13:35:35Z</time>
      </trkpt>
      <trkpt lat="43.75715" lon="3.53797">
        <ele>502.691</ele>
        <time>2008-04-19T13:35:38Z</time>
      </trkpt>
      <trkpt lat="43.75713" lon="3.53796">
        <ele>500.82</ele>
        <time>2008-04-19T13:35:42Z</time>
      </trkpt>
      <trkpt lat="43.75712" lon="3.53797">
        <ele>500.376</ele>
        <time>2008-04-19T13:35:43Z</time>
      </trkpt>
      <trkpt lat="43.75714" lon="3.538">
        <ele>499.222</ele>
        <time>2008-04-19T13:35:46Z</time>
      </trkpt>
      <trkpt lat="43.75718" lon="3.53802">
        <ele>497.845</ele>
        <time>2008-04-19T13:35:56Z</time>
      </trkpt>
      <trkpt lat="43.75713" lon="3.53802">
        <ele>496.832</ele>
        <time>2008-04-19T13:36:03Z</time>
      </trkpt>
      <trkpt lat="43.75719" lon="3.5381">
        <ele>493.727</ele>
        <time>2008-04-19T13:36:10Z</time>
      </trkpt>
      <trkpt lat="43.75723" lon="3.53817">
        <ele>493.272</ele>
        <time>2008-04-19T13:36:17Z</time>
      </trkpt>
      <trkpt lat="43.75722" lon="3.53818">
        <ele>492.671</ele>
        <time>2008-04-19T13:36:19Z</time>
      </trkpt>
      <trkpt lat="43.75711" lon="3.53818">
        <ele>490.418</ele>
        <time>2008-04-19T13:36:28Z</time>
      </trkpt>
      <trkpt lat="43.75711" lon="3.53822">
        <ele>489.596</ele>
        <time>2008-04-19T13:36:31Z</time>
      </trkpt>
      <trkpt lat="43.75717" lon="3.53835">
        <ele>486.54</ele>
        <time>2008-04-19T13:36:40Z</time>
      </trkpt>
      <trkpt lat="43.75717" lon="3.53837">
        <ele>486.537</ele>
        <time>2008-04-19T13:36:41Z</time>
      </trkpt>
      <trkpt lat="43.75716" lon="3.53837">
        <ele>487.369</ele>
        <time>2008-04-19T13:36:42Z</time>
      </trkpt>
      <trkpt lat="43.75705" lon="3.53826">
        <ele>485.287</ele>
        <time>2008-04-19T13:36:51Z</time>
      </trkpt>
      <trkpt lat="43.75702" lon="3.53828">
        <ele>483.959</ele>
        <time>2008-04-19T13:36:53Z</time>
      </trkpt>
      <trkpt lat="43.75707" lon="3.53839">
        <ele>483.295</ele>
        <time>2008-04-19T13:37:00Z</time>
      </trkpt>
      <trkpt lat="43.75707" lon="3.53847">
        <ele>481.802</ele>
        <time>2008-04-19T13:37:08Z</time>
      </trkpt>
      <trkpt lat="43.757" lon="3.53842">
        <ele>480.475</ele>
        <time>2008-04-19T13:37:15Z</time>
      </trkpt>
      <trkpt lat="43.75694" lon="3.53846">
        <ele>479.442</ele>
        <time>2008-04-19T13:37:19Z</time>
      </trkpt>
      <trkpt lat="43.75692" lon="3.53847">
        <ele>479.943</ele>
        <time>2008-04-19T13:37:21Z</time>
      </trkpt>
      <trkpt lat="43.7569" lon="3.53847">
        <ele>479.859</ele>
        <time>2008-04-19T13:37:23Z</time>
      </trkpt>
      <trkpt lat="43.75687" lon="3.53849">
        <ele>479.931</ele>
        <time>2008-04-19T13:37:26Z</time>
      </trkpt>
      <trkpt lat="43.75684" lon="3.5385">
        <ele>478.44</ele>
        <time>2008-04-19T13:37:29Z</time>
      </trkpt>
      <trkpt lat="43.75683" lon="3.53849">
        <ele>478.631</ele>
        <time>2008-04-19T13:37:30Z</time>
      </trkpt>
      <trkpt lat="43.75679" lon="3.53848">
        <ele>477.994</ele>
        <time>2008-04-19T13:37:35Z</time>
      </trkpt>
      <trkpt lat="43.75678" lon="3.53851">
        <ele>478.242</ele>
        <time>2008-04-19T13:37:37Z</time>
      </trkpt>
      <trkpt lat="43.75665" lon="3.53854">
        <ele>478.202</ele>
        <time>2008-04-19T13:37:48Z</time>
      </trkpt>
      <trkpt lat="43.75659" lon="3.53863">
        <ele>478.261</ele>
        <time>2008-04-19T13:37:57Z</time>
      </trkpt>
      <trkpt lat="43.75657" lon="3.53866">
        <ele>478.621</ele>
        <time>2008-04-19T13:37:59Z</time>
      </trkpt>
      <trkpt lat="43.75654" lon="3.53867">
        <ele>479.604</ele>
        <time>2008-04-19T13:38:02Z</time>
      </trkpt>
      <trkpt lat="43.75651" lon="3.5387">
        <ele>479.342</ele>
        <time>2008-04-19T13:38:05Z</time>
      </trkpt>
      <trkpt lat="43.75645" lon="3.53881">
        <ele>477.993</ele>
        <time>2008-04-19T13:38:12Z</time>
      </trkpt>
      <trkpt lat="43.75644" lon="3.53885">
        <ele>477.314</ele>
        <time>2008-04-19T13:38:15Z</time>
      </trkpt>
      <trkpt lat="43.75641" lon="3.53888">
        <ele>476.79</ele>
        <time>2008-04-19T13:38:19Z</time>
      </trkpt>
      <trkpt lat="43.75631" lon="3.53896">
        <ele>475.433</ele>
        <time>2008-04-19T13:38:32Z</time>
      </trkpt>
      <trkpt lat="43.75619" lon="3.539">
        <ele>475.714</ele>
        <time>2008-04-19T13:38:42Z</time>
      </trkpt>
      <trkpt lat="43.75612" lon="3.53904">
        <ele>474.498</ele>
        <time>2008-04-19T13:38:47Z</time>
      </trkpt>
      <trkpt lat="43.7561" lon="3.53906">
        <ele>473.375</ele>
        <time>2008-04-19T13:38:49Z</time>
      </trkpt>
      <trkpt lat="43.75599" lon="3.53914">
        <ele>471.714</ele>
        <time>2008-04-19T13:38:59Z</time>
      </trkpt>
      <trkpt lat="43.75597" lon="3.53916">
        <ele>472.091</ele>
        <time>2008-04-19T13:39:00Z</time>
      </trkpt>
      <trkpt lat="43.75597" lon="3.5393">
        <ele>471.681</ele>
        <time>2008-04-19T13:39:06Z</time>
      </trkpt>
      <trkpt lat="43.7559" lon="3.53942">
        <ele>469.387</ele>
        <time>2008-04-19T13:39:15Z</time>
      </trkpt>
      <trkpt lat="43.75588" lon="3.53944">
        <ele>472.011</ele>
        <time>2008-04-19T13:39:18Z</time>
      </trkpt>
      <trkpt lat="43.75579" lon="3.53944">
        <ele>468.116</ele>
        <time>2008-04-19T13:39:24Z</time>
      </trkpt>
      <trkpt lat="43.75574" lon="3.53944">
        <ele>466.107</ele>
        <time>2008-04-19T13:39:26Z</time>
      </trkpt>
      <trkpt lat="43.75575" lon="3.53954">
        <ele>463.542</ele>
        <time>2008-04-19T13:39:34Z</time>
      </trkpt>
      <trkpt lat="43.75569" lon="3.53957">
        <ele>459.583</ele>
        <time>2008-04-19T13:39:37Z</time>
      </trkpt>
      <trkpt lat="43.75567" lon="3.53958">
        <ele>460.541</ele>
        <time>2008-04-19T13:39:38Z</time>
      </trkpt>
      <trkpt lat="43.75565" lon="3.53971">
        <ele>459.184</ele>
        <time>2008-04-19T13:39:44Z</time>
      </trkpt>
      <trkpt lat="43.75559" lon="3.53983">
        <ele>457.032</ele>
        <time>2008-04-19T13:39:49Z</time>
      </trkpt>
      <trkpt lat="43.75553" lon="3.53996">
        <ele>455.754</ele>
        <time>2008-04-19T13:39:57Z</time>
      </trkpt>
      <trkpt lat="43.75544" lon="3.54008">
        <ele>454.522</ele>
        <time>2008-04-19T13:40:07Z</time>
      </trkpt>
      <trkpt lat="43.75545" lon="3.54014">
        <ele>453.493</ele>
        <time>2008-04-19T13:40:17Z</time>
      </trkpt>
      <trkpt lat="43.75545" lon="3.54017">
        <ele>451.71</ele>
        <time>2008-04-19T13:40:31Z</time>
      </trkpt>
      <trkpt lat="43.75546" lon="3.54016">
        <ele>451.019</ele>
        <time>2008-04-19T13:40:37Z</time>
      </trkpt>
      <trkpt lat="43.75546" lon="3.54016">
        <ele>452.286</ele>
        <time>2008-04-19T13:40:39Z</time>
      </trkpt>
      <trkpt lat="43.75544" lon="3.54021">
        <ele>451.468</ele>
        <time>2008-04-19T13:40:55Z</time>
      </trkpt>
      <trkpt lat="43.75542" lon="3.54023">
        <ele>451.088</ele>
        <time>2008-04-19T13:41:02Z</time>
      </trkpt>
      <trkpt lat="43.75533" lon="3.54034">
        <ele>449.186</ele>
        <time>2008-04-19T13:41:13Z</time>
      </trkpt>
      <trkpt lat="43.75532" lon="3.54041">
        <ele>447.972</ele>
        <time>2008-04-19T13:41:22Z</time>
      </trkpt>
      <trkpt lat="43.75528" lon="3.54047">
        <ele>446.252</ele>
        <time>2008-04-19T13:41:30Z</time>
      </trkpt>
      <trkpt lat="43.75527" lon="3.54049">
        <ele>445.086</ele>
        <time>2008-04-19T13:41:33Z</time>
      </trkpt>
      <trkpt lat="43.75522" lon="3.54048">
        <ele>444.974</ele>
        <time>2008-04-19T13:41:38Z</time>
      </trkpt>
      <trkpt lat="43.75517" lon="3.54041">
        <ele>444.614</ele>
        <time>2008-04-19T13:41:45Z</time>
      </trkpt>
      <trkpt lat="43.75514" lon="3.5404">
        <ele>444.721</ele>
        <time>2008-04-19T13:41:47Z</time>
      </trkpt>
      <trkpt lat="43.75507" lon="3.54049">
        <ele>445.23</ele>
        <time>2008-04-19T13:41:54Z</time>
      </trkpt>
      <trkpt lat="43.75497" lon="3.54064">
        <ele>444.663</ele>
        <time>2008-04-19T13:42:07Z</time>
      </trkpt>
      <trkpt lat="43.7549" lon="3.54074">
        <ele>444.123</ele>
        <time>2008-04-19T13:42:16Z</time>
      </trkpt>
      <trkpt lat="43.75486" lon="3.54086">
        <ele>443.03</ele>
        <time>2008-04-19T13:42:25Z</time>
      </trkpt>
      <trkpt lat="43.75487" lon="3.54099">
        <ele>443.494</ele>
        <time>2008-04-19T13:42:33Z</time>
      </trkpt>
      <trkpt lat="43.75483" lon="3.54105">
        <ele>442.727</ele>
        <time>2008-04-19T13:42:36Z</time>
      </trkpt>
      <trkpt lat="43.7548" lon="3.54117">
        <ele>441.747</ele>
        <time>2008-04-19T13:42:44Z</time>
      </trkpt>
      <trkpt lat="43.75479" lon="3.54123">
        <ele>441.256</ele>
        <time>2008-04-19T13:42:48Z</time>
      </trkpt>
      <trkpt lat="43.75478" lon="3.54129">
        <ele>440.272</ele>
        <time>2008-04-19T13:42:51Z</time>
      </trkpt>
      <trkpt lat="43.75478" lon="3.54138">
        <ele>440.508</ele>
        <time>2008-04-19T13:42:56Z</time>
      </trkpt>
      <trkpt lat="43.75481" lon="3.54149">
        <ele>438.773</ele>
        <time>2008-04-19T13:43:04Z</time>
      </trkpt>
      <trkpt lat="43.75483" lon="3.54157">
        <ele>438.635</ele>
        <time>2008-04-19T13:43:09Z</time>
      </trkpt>
      <trkpt lat="43.75486" lon="3.54158">
        <ele>437.524</ele>
        <time>2008-04-19T13:43:11Z</time>
      </trkpt>
      <trkpt lat="43.75487" lon="3.54152">
        <ele>437.48</ele>
        <time>2008-04-19T13:43:15Z</time>
      </trkpt>
      <trkpt lat="43.75487" lon="3.54144">
        <ele>436.67</ele>
        <time>2008-04-19T13:43:21Z</time>
      </trkpt>
      <trkpt lat="43.7549" lon="3.54126">
        <ele>435.871</ele>
        <time>2008-04-19T13:43:32Z</time>
      </trkpt>
      <trkpt lat="43.75496" lon="3.5411">
        <ele>435.356</ele>
        <time>2008-04-19T13:43:45Z</time>
      </trkpt>
      <trkpt lat="43.755" lon="3.54103">
        <ele>434.664</ele>
        <time>2008-04-19T13:43:52Z</time>
      </trkpt>
      <trkpt lat="43.75502" lon="3.541">
        <ele>434.062</ele>
        <time>2008-04-19T13:43:54Z</time>
      </trkpt>
      <trkpt lat="43.75512" lon="3.54091">
        <ele>432.114</ele>
        <time>2008-04-19T13:44:04Z</time>
      </trkpt>
      <trkpt lat="43.75514" lon="3.54092">
        <ele>431.188</ele>
        <time>2008-04-19T13:44:07Z</time>
      </trkpt>
      <trkpt lat="43.75529" lon="3.5409">
        <ele>431.016</ele>
        <time>2008-04-19T13:44:19Z</time>
      </trkpt>
      <trkpt lat="43.75539" lon="3.54082">
        <ele>430.111</ele>
        <time>2008-04-19T13:44:28Z</time>
      </trkpt>
      <trkpt lat="43.7555" lon="3.54072">
        <ele>428.578</ele>
        <time>2008-04-19T13:44:38Z</time>
      </trkpt>
      <trkpt lat="43.7556" lon="3.54062">
        <ele>428.075</ele>
        <time>2008-04-19T13:44:47Z</time>
      </trkpt>
      <trkpt lat="43.75566" lon="3.54059">
        <ele>427.531</ele>
        <time>2008-04-19T13:44:53Z</time>
      </trkpt>
      <trkpt lat="43.75579" lon="3.54055">
        <ele>425.535</ele>
        <time>2008-04-19T13:45:05Z</time>
      </trkpt>
      <trkpt lat="43.75586" lon="3.54051">
        <ele>425.349</ele>
        <time>2008-04-19T13:45:11Z</time>
      </trkpt>
      <trkpt lat="43.75589" lon="3.5405">
        <ele>424.731</ele>
        <time>2008-04-19T13:45:13Z</time>
      </trkpt>
      <trkpt lat="43.75602" lon="3.54047">
        <ele>422.599</ele>
        <time>2008-04-19T13:45:24Z</time>
      </trkpt>
      <trkpt lat="43.75614" lon="3.54044">
        <ele>422.013</ele>
        <time>2008-04-19T13:45:33Z</time>
      </trkpt>
      <trkpt lat="43.75624" lon="3.54054">
        <ele>420.593</ele>
        <time>2008-04-19T13:45:44Z</time>
      </trkpt>
      <trkpt lat="43.75619" lon="3.54069">
        <ele>418.63</ele>
        <time>2008-04-19T13:45:52Z</time>
      </trkpt>
      <trkpt lat="43.75616" lon="3.54078">
        <ele>418.609</ele>
        <time>2008-04-19T13:45:57Z</time>
      </trkpt>
      <trkpt lat="43.75611" lon="3.54092">
        <ele>418.006</ele>
        <time>2008-04-19T13:46:06Z</time>
      </trkpt>
      <trkpt lat="43.75603" lon="3.54101">
        <ele>417.158</ele>
        <time>2008-04-19T13:46:14Z</time>
      </trkpt>
      <trkpt lat="43.75605" lon="3.54109">
        <ele>417.007</ele>
        <time>2008-04-19T13:46:32Z</time>
      </trkpt>
      <trkpt lat="43.75608" lon="3.54104">
        <ele>416.498</ele>
        <time>2008-04-19T13:47:06Z</time>
      </trkpt>
      <trkpt lat="43.75607" lon="3.54108">
        <ele>416.883</ele>
        <time>2008-04-19T13:47:11Z</time>
      </trkpt>
      <trkpt lat="43.75603" lon="3.54115">
        <ele>414.936</ele>
        <time>2008-04-19T13:47:15Z</time>
      </trkpt>
      <trkpt lat="43.75598" lon="3.54131">
        <ele>414.139</ele>
        <time>2008-04-19T13:47:23Z</time>
      </trkpt>
      <trkpt lat="43.75589" lon="3.54142">
        <ele>412.244</ele>
        <time>2008-04-19T13:47:35Z</time>
      </trkpt>
      <trkpt lat="43.75587" lon="3.54148">
        <ele>411.546</ele>
        <time>2008-04-19T13:47:39Z</time>
      </trkpt>
      <trkpt lat="43.75587" lon="3.54155">
        <ele>411.247</ele>
        <time>2008-04-19T13:47:44Z</time>
      </trkpt>
      <trkpt lat="43.75588" lon="3.54156">
        <ele>410.208</ele>
        <time>2008-04-19T13:47:56Z</time>
      </trkpt>
      <trkpt lat="43.75586" lon="3.54161">
        <ele>411.309</ele>
        <time>2008-04-19T13:47:59Z</time>
      </trkpt>
      <trkpt lat="43.75585" lon="3.54169">
        <ele>410.124</ele>
        <time>2008-04-19T13:48:04Z</time>
      </trkpt>
      <trkpt lat="43.75583" lon="3.5418">
        <ele>408.721</ele>
        <time>2008-04-19T13:48:11Z</time>
      </trkpt>
      <trkpt lat="43.75581" lon="3.54184">
        <ele>408.453</ele>
        <time>2008-04-19T13:48:14Z</time>
      </trkpt>
      <trkpt lat="43.7558" lon="3.54188">
        <ele>408.145</ele>
        <time>2008-04-19T13:48:24Z</time>
      </trkpt>
      <trkpt lat="43.75582" lon="3.54188">
        <ele>409.519</ele>
        <time>2008-04-19T13:48:44Z</time>
      </trkpt>
      <trkpt lat="43.75582" lon="3.54187">
        <ele>408.392</ele>
        <time>2008-04-19T13:48:53Z</time>
      </trkpt>
      <trkpt lat="43.75581" lon="3.54189">
        <ele>407.933</ele>
        <time>2008-04-19T13:49:07Z</time>
      </trkpt>
      <trkpt lat="43.75579" lon="3.54193">
        <ele>407.781</ele>
        <time>2008-04-19T13:49:10Z</time>
      </trkpt>
      <trkpt lat="43.75575" lon="3.54201">
        <ele>408.466</ele>
        <time>2008-04-19T13:49:18Z</time>
      </trkpt>
      <trkpt lat="43.75574" lon="3.54202">
        <ele>408.361</ele>
        <time>2008-04-19T13:49:37Z</time>
      </trkpt>
      <trkpt lat="43.75575" lon="3.54207">
        <ele>409.371</ele>
        <time>2008-04-19T13:49:49Z</time>
      </trkpt>
      <trkpt lat="43.75574" lon="3.54221">
        <ele>405.507</ele>
        <time>2008-04-19T13:49:58Z</time>
      </trkpt>
      <trkpt lat="43.75575" lon="3.54225">
        <ele>402.096</ele>
        <time>2008-04-19T13:50:01Z</time>
      </trkpt>
      <trkpt lat="43.75575" lon="3.54226">
        <ele>407.608</ele>
        <time>2008-04-19T13:50:02Z</time>
      </trkpt>
      <trkpt lat="43.75575" lon="3.54227">
        <ele>404.579</ele>
        <time>2008-04-19T13:50:03Z</time>
      </trkpt>
      <trkpt lat="43.75576" lon="3.54233">
        <ele>404.841</ele>
        <time>2008-04-19T13:50:08Z</time>
      </trkpt>
      <trkpt lat="43.75569" lon="3.54253">
        <ele>404.906</ele>
        <time>2008-04-19T13:50:21Z</time>
      </trkpt>
      <trkpt lat="43.75569" lon="3.54256">
        <ele>404.6</ele>
        <time>2008-04-19T13:50:23Z</time>
      </trkpt>
      <trkpt lat="43.75568" lon="3.54261">
        <ele>404.302</ele>
        <time>2008-04-19T13:50:26Z</time>
      </trkpt>
      <trkpt lat="43.75566" lon="3.54269">
        <ele>403.091</ele>
        <time>2008-04-19T13:50:31Z</time>
      </trkpt>
      <trkpt lat="43.7556" lon="3.5428">
        <ele>401.456</ele>
        <time>2008-04-19T13:50:41Z</time>
      </trkpt>
      <trkpt lat="43.75559" lon="3.54285">
        <ele>401.497</ele>
        <time>2008-04-19T13:50:44Z</time>
      </trkpt>
      <trkpt lat="43.75558" lon="3.54291">
        <ele>402.16</ele>
        <time>2008-04-19T13:50:47Z</time>
      </trkpt>
      <trkpt lat="43.75558" lon="3.54295">
        <ele>401.499</ele>
        <time>2008-04-19T13:50:49Z</time>
      </trkpt>
      <trkpt lat="43.75553" lon="3.54309">
        <ele>399.923</ele>
        <time>2008-04-19T13:50:59Z</time>
      </trkpt>
      <trkpt lat="43.75552" lon="3.5432">
        <ele>397.972</ele>
        <time>2008-04-19T13:51:08Z</time>
      </trkpt>
      <trkpt lat="43.75549" lon="3.54322">
        <ele>397.166</ele>
        <time>2008-04-19T13:51:12Z</time>
      </trkpt>
      <trkpt lat="43.75545" lon="3.54323">
        <ele>396.897</ele>
        <time>2008-04-19T13:51:15Z</time>
      </trkpt>
      <trkpt lat="43.7554" lon="3.54327">
        <ele>396.015</ele>
        <time>2008-04-19T13:51:19Z</time>
      </trkpt>
      <trkpt lat="43.75537" lon="3.54331">
        <ele>394.854</ele>
        <time>2008-04-19T13:51:22Z</time>
      </trkpt>
      <trkpt lat="43.75532" lon="3.54329">
        <ele>394.145</ele>
        <time>2008-04-19T13:51:29Z</time>
      </trkpt>
      <trkpt lat="43.75531" lon="3.54322">
        <ele>393.527</ele>
        <time>2008-04-19T13:51:33Z</time>
      </trkpt>
      <trkpt lat="43.75528" lon="3.54315">
        <ele>393</ele>
        <time>2008-04-19T13:51:40Z</time>
      </trkpt>
      <trkpt lat="43.75521" lon="3.54313">
        <ele>392.605</ele>
        <time>2008-04-19T13:51:46Z</time>
      </trkpt>
      <trkpt lat="43.75508" lon="3.54314">
        <ele>392.987</ele>
        <time>2008-04-19T13:51:57Z</time>
      </trkpt>
      <trkpt lat="43.75508" lon="3.54313">
        <ele>393.444</ele>
        <time>2008-04-19T13:52:09Z</time>
      </trkpt>
      <trkpt lat="43.75507" lon="3.54311">
        <ele>393.026</ele>
        <time>2008-04-19T13:52:20Z</time>
      </trkpt>
      <trkpt lat="43.75497" lon="3.54317">
        <ele>393.618</ele>
        <time>2008-04-19T13:52:32Z</time>
      </trkpt>
      <trkpt lat="43.75497" lon="3.54317">
        <ele>392.691</ele>
        <time>2008-04-19T13:52:42Z</time>
      </trkpt>
      <trkpt lat="43.75485" lon="3.54319">
        <ele>393.823</ele>
        <time>2008-04-19T13:52:57Z</time>
      </trkpt>
      <trkpt lat="43.75478" lon="3.54317">
        <ele>393.782</ele>
        <time>2008-04-19T13:53:04Z</time>
      </trkpt>
      <trkpt lat="43.75476" lon="3.54317">
        <ele>394.185</ele>
        <time>2008-04-19T13:53:06Z</time>
      </trkpt>
      <trkpt lat="43.75468" lon="3.54326">
        <ele>393.393</ele>
        <time>2008-04-19T13:53:20Z</time>
      </trkpt>
      <trkpt lat="43.75467" lon="3.54326">
        <ele>393.839</ele>
        <time>2008-04-19T13:53:21Z</time>
      </trkpt>
      <trkpt lat="43.75454" lon="3.54315">
        <ele>393.019</ele>
        <time>2008-04-19T13:53:33Z</time>
      </trkpt>
      <trkpt lat="43.75444" lon="3.54311">
        <ele>392.396</ele>
        <time>2008-04-19T13:53:41Z</time>
      </trkpt>
      <trkpt lat="43.75442" lon="3.54311">
        <ele>392.165</ele>
        <time>2008-04-19T13:53:43Z</time>
      </trkpt>
      <trkpt lat="43.75435" lon="3.5431">
        <ele>390.467</ele>
        <time>2008-04-19T13:53:50Z</time>
      </trkpt>
      <trkpt lat="43.75425" lon="3.54312">
        <ele>390.389</ele>
        <time>2008-04-19T13:54:02Z</time>
      </trkpt>
      <trkpt lat="43.75423" lon="3.54313">
        <ele>390.564</ele>
        <time>2008-04-19T13:54:03Z</time>
      </trkpt>
      <trkpt lat="43.75418" lon="3.54314">
        <ele>390.889</ele>
        <time>2008-04-19T13:54:07Z</time>
      </trkpt>
      <trkpt lat="43.75412" lon="3.54314">
        <ele>391.125</ele>
        <time>2008-04-19T13:54:22Z</time>
      </trkpt>
      <trkpt lat="43.75405" lon="3.54309">
        <ele>391.599</ele>
        <time>2008-04-19T13:54:36Z</time>
      </trkpt>
      <trkpt lat="43.75393" lon="3.54295">
        <ele>391.425</ele>
        <time>2008-04-19T13:54:49Z</time>
      </trkpt>
      <trkpt lat="43.75392" lon="3.54291">
        <ele>391.119</ele>
        <time>2008-04-19T13:54:52Z</time>
      </trkpt>
      <trkpt lat="43.75394" lon="3.5427">
        <ele>392.534</ele>
        <time>2008-04-19T13:55:04Z</time>
      </trkpt>
      <trkpt lat="43.75396" lon="3.54262">
        <ele>392.462</ele>
        <time>2008-04-19T13:55:16Z</time>
      </trkpt>
      <trkpt lat="43.754" lon="3.54253">
        <ele>392.195</ele>
        <time>2008-04-19T13:55:26Z</time>
      </trkpt>
      <trkpt lat="43.75394" lon="3.54251">
        <ele>392.52</ele>
        <time>2008-04-19T13:55:49Z</time>
      </trkpt>
      <trkpt lat="43.75381" lon="3.54251">
        <ele>392.288</ele>
        <time>2008-04-19T13:56:21Z</time>
      </trkpt>
      <trkpt lat="43.7538" lon="3.54257">
        <ele>393.038</ele>
        <time>2008-04-19T13:56:27Z</time>
      </trkpt>
      <trkpt lat="43.75367" lon="3.54274">
        <ele>392.148</ele>
        <time>2008-04-19T13:56:33Z</time>
      </trkpt>
      <trkpt lat="43.7538" lon="3.54278">
        <ele>392.116</ele>
        <time>2008-04-19T13:56:43Z</time>
      </trkpt>
      <trkpt lat="43.75388" lon="3.54291">
        <ele>392.801</ele>
        <time>2008-04-19T13:56:54Z</time>
      </trkpt>
      <trkpt lat="43.75389" lon="3.54293">
        <ele>392.341</ele>
        <time>2008-04-19T13:56:56Z</time>
      </trkpt>
      <trkpt lat="43.75391" lon="3.54296">
        <ele>392.713</ele>
        <time>2008-04-19T13:56:58Z</time>
      </trkpt>
      <trkpt lat="43.754" lon="3.54304">
        <ele>392.054</ele>
        <time>2008-04-19T13:57:08Z</time>
      </trkpt>
      <trkpt lat="43.75408" lon="3.54313">
        <ele>392.322</ele>
        <time>2008-04-19T13:57:17Z</time>
      </trkpt>
      <trkpt lat="43.75419" lon="3.54316">
        <ele>392.596</ele>
        <time>2008-04-19T13:57:29Z</time>
      </trkpt>
      <trkpt lat="43.75422" lon="3.54316">
        <ele>392.494</ele>
        <time>2008-04-19T13:57:35Z</time>
      </trkpt>
      <trkpt lat="43.75419" lon="3.54321">
        <ele>392.072</ele>
        <time>2008-04-19T13:57:40Z</time>
      </trkpt>
      <trkpt lat="43.75419" lon="3.5432">
        <ele>391.253</ele>
        <time>2008-04-19T13:57:44Z</time>
      </trkpt>
      <trkpt lat="43.75413" lon="3.5432">
        <ele>391.115</ele>
        <time>2008-04-19T13:57:57Z</time>
      </trkpt>
      <trkpt lat="43.75413" lon="3.54321">
        <ele>389.35</ele>
        <time>2008-04-19T13:58:00Z</time>
      </trkpt>
      <trkpt lat="43.7541" lon="3.54322">
        <ele>389.324</ele>
        <time>2008-04-19T13:58:25Z</time>
      </trkpt>
      <trkpt lat="43.75404" lon="3.54324">
        <ele>388.497</ele>
        <time>2008-04-19T13:58:38Z</time>
      </trkpt>
      <trkpt lat="43.75402" lon="3.54325">
        <ele>388.548</ele>
        <time>2008-04-19T13:58:52Z</time>
      </trkpt>
      <trkpt lat="43.75393" lon="3.54322">
        <ele>387.533</ele>
        <time>2008-04-19T13:59:02Z</time>
      </trkpt>
      <trkpt lat="43.75388" lon="3.54319">
        <ele>387.985</ele>
        <time>2008-04-19T13:59:06Z</time>
      </trkpt>
      <trkpt lat="43.75384" lon="3.54316">
        <ele>387.01</ele>
        <time>2008-04-19T13:59:12Z</time>
      </trkpt>
      <trkpt lat="43.75374" lon="3.54322">
        <ele>386.82</ele>
        <time>2008-04-19T13:59:19Z</time>
      </trkpt>
      <trkpt lat="43.75367" lon="3.5433">
        <ele>386.844</ele>
        <time>2008-04-19T13:59:24Z</time>
      </trkpt>
      <trkpt lat="43.75363" lon="3.54334">
        <ele>386.564</ele>
        <time>2008-04-19T13:59:29Z</time>
      </trkpt>
      <trkpt lat="43.75359" lon="3.54335">
        <ele>386.256</ele>
        <time>2008-04-19T13:59:32Z</time>
      </trkpt>
      <trkpt lat="43.75355" lon="3.54337">
        <ele>387.545</ele>
        <time>2008-04-19T13:59:35Z</time>
      </trkpt>
      <trkpt lat="43.7534" lon="3.54346">
        <ele>386.536</ele>
        <time>2008-04-19T13:59:47Z</time>
      </trkpt>
      <trkpt lat="43.75327" lon="3.54363">
        <ele>387.702</ele>
        <time>2008-04-19T14:00:01Z</time>
      </trkpt>
      <trkpt lat="43.75318" lon="3.54377">
        <ele>388.178</ele>
        <time>2008-04-19T14:00:11Z</time>
      </trkpt>
      <trkpt lat="43.75316" lon="3.54377">
        <ele>388.214</ele>
        <time>2008-04-19T14:00:14Z</time>
      </trkpt>
      <trkpt lat="43.75304" lon="3.5438">
        <ele>389.095</ele>
        <time>2008-04-19T14:00:25Z</time>
      </trkpt>
      <trkpt lat="43.75293" lon="3.54389">
        <ele>389.063</ele>
        <time>2008-04-19T14:00:34Z</time>
      </trkpt>
      <trkpt lat="43.75278" lon="3.544">
        <ele>388.796</ele>
        <time>2008-04-19T14:00:45Z</time>
      </trkpt>
      <trkpt lat="43.75277" lon="3.54402">
        <ele>388.948</ele>
        <time>2008-04-19T14:00:46Z</time>
      </trkpt>
      <trkpt lat="43.75271" lon="3.54406">
        <ele>388.73</ele>
        <time>2008-04-19T14:00:51Z</time>
      </trkpt>
      <trkpt lat="43.75268" lon="3.54409">
        <ele>388.882</ele>
        <time>2008-04-19T14:00:55Z</time>
      </trkpt>
      <trkpt lat="43.75259" lon="3.54412">
        <ele>389.552</ele>
        <time>2008-04-19T14:01:02Z</time>
      </trkpt>
      <trkpt lat="43.75253" lon="3.54421">
        <ele>389.465</ele>
        <time>2008-04-19T14:01:08Z</time>
      </trkpt>
      <trkpt lat="43.75238" lon="3.54433">
        <ele>390.013</ele>
        <time>2008-04-19T14:01:20Z</time>
      </trkpt>
      <trkpt lat="43.75231" lon="3.54439">
        <ele>390.733</ele>
        <time>2008-04-19T14:01:26Z</time>
      </trkpt>
      <trkpt lat="43.75217" lon="3.54451">
        <ele>390.859</ele>
        <time>2008-04-19T14:01:39Z</time>
      </trkpt>
      <trkpt lat="43.7521" lon="3.54456">
        <ele>391.93</ele>
        <time>2008-04-19T14:01:44Z</time>
      </trkpt>
      <trkpt lat="43.75188" lon="3.54469">
        <ele>391.153</ele>
        <time>2008-04-19T14:02:05Z</time>
      </trkpt>
      <trkpt lat="43.75181" lon="3.5447">
        <ele>390.49</ele>
        <time>2008-04-19T14:02:09Z</time>
      </trkpt>
      <trkpt lat="43.75172" lon="3.5446">
        <ele>390.355</ele>
        <time>2008-04-19T14:02:20Z</time>
      </trkpt>
      <trkpt lat="43.75169" lon="3.54458">
        <ele>388.499</ele>
        <time>2008-04-19T14:02:23Z</time>
      </trkpt>
      <trkpt lat="43.75167" lon="3.54458">
        <ele>388.285</ele>
        <time>2008-04-19T14:02:25Z</time>
      </trkpt>
      <trkpt lat="43.75162" lon="3.54451">
        <ele>388.611</ele>
        <time>2008-04-19T14:02:30Z</time>
      </trkpt>
      <trkpt lat="43.75159" lon="3.54448">
        <ele>387.33</ele>
        <time>2008-04-19T14:02:33Z</time>
      </trkpt>
      <trkpt lat="43.75147" lon="3.54445">
        <ele>386.106</ele>
        <time>2008-04-19T14:02:43Z</time>
      </trkpt>
      <trkpt lat="43.75144" lon="3.5444">
        <ele>386.303</ele>
        <time>2008-04-19T14:02:47Z</time>
      </trkpt>
      <trkpt lat="43.75137" lon="3.54435">
        <ele>385.166</ele>
        <time>2008-04-19T14:02:58Z</time>
      </trkpt>
      <trkpt lat="43.75134" lon="3.54431">
        <ele>384.218</ele>
        <time>2008-04-19T14:03:08Z</time>
      </trkpt>
      <trkpt lat="43.75129" lon="3.54427">
        <ele>384.607</ele>
        <time>2008-04-19T14:03:34Z</time>
      </trkpt>
      <trkpt lat="43.75128" lon="3.54426">
        <ele>384.027</ele>
        <time>2008-04-19T14:03:36Z</time>
      </trkpt>
      <trkpt lat="43.7512" lon="3.54419">
        <ele>384.285</ele>
        <time>2008-04-19T14:03:44Z</time>
      </trkpt>
      <trkpt lat="43.75113" lon="3.54421">
        <ele>383.55</ele>
        <time>2008-04-19T14:03:49Z</time>
      </trkpt>
      <trkpt lat="43.75109" lon="3.54424">
        <ele>383.262</ele>
        <time>2008-04-19T14:03:52Z</time>
      </trkpt>
      <trkpt lat="43.75107" lon="3.54425">
        <ele>383.283</ele>
        <time>2008-04-19T14:03:55Z</time>
      </trkpt>
      <trkpt lat="43.75104" lon="3.54424">
        <ele>383.825</ele>
        <time>2008-04-19T14:03:58Z</time>
      </trkpt>
      <trkpt lat="43.75094" lon="3.54417">
        <ele>381.619</ele>
        <time>2008-04-19T14:04:08Z</time>
      </trkpt>
      <trkpt lat="43.75091" lon="3.54417">
        <ele>380.866</ele>
        <time>2008-04-19T14:04:10Z</time>
      </trkpt>
      <trkpt lat="43.75088" lon="3.54417">
        <ele>379.921</ele>
        <time>2008-04-19T14:04:13Z</time>
      </trkpt>
      <trkpt lat="43.75082" lon="3.54429">
        <ele>379.615</ele>
        <time>2008-04-19T14:04:28Z</time>
      </trkpt>
      <trkpt lat="43.75078" lon="3.54435">
        <ele>379.552</ele>
        <time>2008-04-19T14:05:42Z</time>
      </trkpt>
      <trkpt lat="43.75075" lon="3.54434">
        <ele>378.612</ele>
        <time>2008-04-19T14:05:50Z</time>
      </trkpt>
      <trkpt lat="43.75071" lon="3.54439">
        <ele>377.862</ele>
        <time>2008-04-19T14:05:56Z</time>
      </trkpt>
      <trkpt lat="43.75068" lon="3.5444">
        <ele>377.325</ele>
        <time>2008-04-19T14:05:59Z</time>
      </trkpt>
      <trkpt lat="43.75056" lon="3.54457">
        <ele>377.356</ele>
        <time>2008-04-19T14:06:13Z</time>
      </trkpt>
      <trkpt lat="43.75049" lon="3.54467">
        <ele>378.078</ele>
        <time>2008-04-19T14:06:24Z</time>
      </trkpt>
      <trkpt lat="43.7504" lon="3.54479">
        <ele>377.68</ele>
        <time>2008-04-19T14:06:35Z</time>
      </trkpt>
      <trkpt lat="43.75038" lon="3.54488">
        <ele>375.208</ele>
        <time>2008-04-19T14:06:45Z</time>
      </trkpt>
      <trkpt lat="43.75038" lon="3.54489">
        <ele>378.867</ele>
        <time>2008-04-19T14:06:46Z</time>
      </trkpt>
      <trkpt lat="43.75039" lon="3.54487">
        <ele>377.884</ele>
        <time>2008-04-19T14:06:47Z</time>
      </trkpt>
      <trkpt lat="43.75038" lon="3.54488">
        <ele>376.369</ele>
        <time>2008-04-19T14:06:53Z</time>
      </trkpt>
      <trkpt lat="43.75034" lon="3.54494">
        <ele>377.502</ele>
        <time>2008-04-19T14:07:03Z</time>
      </trkpt>
      <trkpt lat="43.75032" lon="3.54502">
        <ele>377.605</ele>
        <time>2008-04-19T14:07:07Z</time>
      </trkpt>
      <trkpt lat="43.75028" lon="3.54526">
        <ele>377.743</ele>
        <time>2008-04-19T14:07:18Z</time>
      </trkpt>
      <trkpt lat="43.75028" lon="3.54537">
        <ele>377.592</ele>
        <time>2008-04-19T14:07:27Z</time>
      </trkpt>
      <trkpt lat="43.75025" lon="3.54546">
        <ele>377.048</ele>
        <time>2008-04-19T14:07:32Z</time>
      </trkpt>
      <trkpt lat="43.7502" lon="3.54557">
        <ele>377.821</ele>
        <time>2008-04-19T14:07:47Z</time>
      </trkpt>
      <trkpt lat="43.75018" lon="3.54565">
        <ele>376.294</ele>
        <time>2008-04-19T14:08:22Z</time>
      </trkpt>
      <trkpt lat="43.75017" lon="3.54565">
        <ele>377.827</ele>
        <time>2008-04-19T14:08:35Z</time>
      </trkpt>
      <trkpt lat="43.75015" lon="3.54566">
        <ele>378.432</ele>
        <time>2008-04-19T14:08:52Z</time>
      </trkpt>
      <trkpt lat="43.75014" lon="3.54568">
        <ele>380.318</ele>
        <time>2008-04-19T14:08:54Z</time>
      </trkpt>
      <trkpt lat="43.75007" lon="3.54583">
        <ele>378.122</ele>
        <time>2008-04-19T14:09:07Z</time>
      </trkpt>
      <trkpt lat="43.74998" lon="3.54601">
        <ele>377.242</ele>
        <time>2008-04-19T14:09:22Z</time>
      </trkpt>
      <trkpt lat="43.74996" lon="3.54604">
        <ele>377.162</ele>
        <time>2008-04-19T14:09:26Z</time>
      </trkpt>
      <trkpt lat="43.74989" lon="3.54614">
        <ele>376.548</ele>
        <time>2008-04-19T14:09:35Z</time>
      </trkpt>
      <trkpt lat="43.74981" lon="3.54632">
        <ele>376.201</ele>
        <time>2008-04-19T14:09:46Z</time>
      </trkpt>
      <trkpt lat="43.74979" lon="3.54635">
        <ele>376.059</ele>
        <time>2008-04-19T14:09:48Z</time>
      </trkpt>
      <trkpt lat="43.74978" lon="3.54637">
        <ele>375.188</ele>
        <time>2008-04-19T14:09:50Z</time>
      </trkpt>
      <trkpt lat="43.74971" lon="3.54647">
        <ele>374.699</ele>
        <time>2008-04-19T14:09:57Z</time>
      </trkpt>
      <trkpt lat="43.7497" lon="3.5465">
        <ele>374.311</ele>
        <time>2008-04-19T14:09:59Z</time>
      </trkpt>
      <trkpt lat="43.74966" lon="3.54654">
        <ele>374.317</ele>
        <time>2008-04-19T14:10:03Z</time>
      </trkpt>
      <trkpt lat="43.74957" lon="3.54662">
        <ele>373.04</ele>
        <time>2008-04-19T14:10:14Z</time>
      </trkpt>
      <trkpt lat="43.74956" lon="3.54662">
        <ele>372.814</ele>
        <time>2008-04-19T14:10:16Z</time>
      </trkpt>
      <trkpt lat="43.74953" lon="3.54656">
        <ele>371.625</ele>
        <time>2008-04-19T14:10:23Z</time>
      </trkpt>
      <trkpt lat="43.7495" lon="3.54655">
        <ele>372.227</ele>
        <time>2008-04-19T14:10:35Z</time>
      </trkpt>
      <trkpt lat="43.74951" lon="3.54655">
        <ele>370.616</ele>
        <time>2008-04-19T14:10:46Z</time>
      </trkpt>
      <trkpt lat="43.74948" lon="3.54651">
        <ele>371.189</ele>
        <time>2008-04-19T14:11:07Z</time>
      </trkpt>
      <trkpt lat="43.74948" lon="3.5465">
        <ele>370.366</ele>
        <time>2008-04-19T14:11:12Z</time>
      </trkpt>
      <trkpt lat="43.74945" lon="3.54647">
        <ele>370.157</ele>
        <time>2008-04-19T14:11:15Z</time>
      </trkpt>
      <trkpt lat="43.74944" lon="3.54644">
        <ele>369.052</ele>
        <time>2008-04-19T14:11:17Z</time>
      </trkpt>
      <trkpt lat="43.74942" lon="3.54642">
        <ele>370.129</ele>
        <time>2008-04-19T14:11:19Z</time>
      </trkpt>
      <trkpt lat="43.74942" lon="3.5464">
        <ele>368.773</ele>
        <time>2008-04-19T14:11:21Z</time>
      </trkpt>
      <trkpt lat="43.74933" lon="3.5463">
        <ele>367.764</ele>
        <time>2008-04-19T14:11:31Z</time>
      </trkpt>
      <trkpt lat="43.74925" lon="3.54621">
        <ele>366.133</ele>
        <time>2008-04-19T14:11:42Z</time>
      </trkpt>
      <trkpt lat="43.74919" lon="3.54605">
        <ele>364.812</ele>
        <time>2008-04-19T14:11:53Z</time>
      </trkpt>
      <trkpt lat="43.74913" lon="3.54593">
        <ele>361.717</ele>
        <time>2008-04-19T14:12:05Z</time>
      </trkpt>
      <trkpt lat="43.74906" lon="3.54586">
        <ele>360.485</ele>
        <time>2008-04-19T14:12:13Z</time>
      </trkpt>
      <trkpt lat="43.74897" lon="3.54574">
        <ele>359.135</ele>
        <time>2008-04-19T14:12:23Z</time>
      </trkpt>
      <trkpt lat="43.74894" lon="3.54569">
        <ele>358.364</ele>
        <time>2008-04-19T14:12:27Z</time>
      </trkpt>
      <trkpt lat="43.74893" lon="3.54564">
        <ele>358.141</ele>
        <time>2008-04-19T14:12:30Z</time>
      </trkpt>
      <trkpt lat="43.7489" lon="3.5456">
        <ele>357.344</ele>
        <time>2008-04-19T14:12:33Z</time>
      </trkpt>
      <trkpt lat="43.74883" lon="3.54547">
        <ele>356.355</ele>
        <time>2008-04-19T14:12:42Z</time>
      </trkpt>
      <trkpt lat="43.74869" lon="3.54543">
        <ele>355.24</ele>
        <time>2008-04-19T14:12:54Z</time>
      </trkpt>
      <trkpt lat="43.74858" lon="3.54546">
        <ele>355.416</ele>
        <time>2008-04-19T14:13:02Z</time>
      </trkpt>
      <trkpt lat="43.74844" lon="3.54551">
        <ele>354.989</ele>
        <time>2008-04-19T14:13:13Z</time>
      </trkpt>
      <trkpt lat="43.74829" lon="3.54553">
        <ele>354.62</ele>
        <time>2008-04-19T14:13:24Z</time>
      </trkpt>
      <trkpt lat="43.74824" lon="3.54553">
        <ele>354.527</ele>
        <time>2008-04-19T14:13:30Z</time>
      </trkpt>
      <trkpt lat="43.74815" lon="3.54553">
        <ele>354.271</ele>
        <time>2008-04-19T14:13:37Z</time>
      </trkpt>
      <trkpt lat="43.74795" lon="3.54558">
        <ele>352.331</ele>
        <time>2008-04-19T14:13:52Z</time>
      </trkpt>
      <trkpt lat="43.74785" lon="3.54557">
        <ele>349.71</ele>
        <time>2008-04-19T14:14:03Z</time>
      </trkpt>
      <trkpt lat="43.74774" lon="3.54563">
        <ele>347.974</ele>
        <time>2008-04-19T14:14:14Z</time>
      </trkpt>
      <trkpt lat="43.74768" lon="3.54563">
        <ele>346.825</ele>
        <time>2008-04-19T14:14:20Z</time>
      </trkpt>
      <trkpt lat="43.74753" lon="3.54568">
        <ele>345.35</ele>
        <time>2008-04-19T14:14:31Z</time>
      </trkpt>
      <trkpt lat="43.74749" lon="3.5457">
        <ele>344.995</ele>
        <time>2008-04-19T14:14:34Z</time>
      </trkpt>
      <trkpt lat="43.74746" lon="3.54574">
        <ele>343.967</ele>
        <time>2008-04-19T14:14:38Z</time>
      </trkpt>
      <trkpt lat="43.74738" lon="3.54579">
        <ele>343.04</ele>
        <time>2008-04-19T14:14:48Z</time>
      </trkpt>
      <trkpt lat="43.74734" lon="3.54578">
        <ele>341.944</ele>
        <time>2008-04-19T14:15:00Z</time>
      </trkpt>
      <trkpt lat="43.74732" lon="3.54577">
        <ele>341.789</ele>
        <time>2008-04-19T14:15:02Z</time>
      </trkpt>
      <trkpt lat="43.74732" lon="3.54575">
        <ele>342.244</ele>
        <time>2008-04-19T14:15:04Z</time>
      </trkpt>
      <trkpt lat="43.7473" lon="3.54571">
        <ele>341.177</ele>
        <time>2008-04-19T14:15:08Z</time>
      </trkpt>
      <trkpt lat="43.74721" lon="3.54562">
        <ele>340.218</ele>
        <time>2008-04-19T14:15:19Z</time>
      </trkpt>
      <trkpt lat="43.74719" lon="3.54562">
        <ele>340.357</ele>
        <time>2008-04-19T14:15:21Z</time>
      </trkpt>
      <trkpt lat="43.74714" lon="3.5455">
        <ele>338.839</ele>
        <time>2008-04-19T14:15:30Z</time>
      </trkpt>
      <trkpt lat="43.74711" lon="3.54534">
        <ele>336.957</ele>
        <time>2008-04-19T14:15:42Z</time>
      </trkpt>
      <trkpt lat="43.74713" lon="3.54523">
        <ele>334.445</ele>
        <time>2008-04-19T14:15:55Z</time>
      </trkpt>
      <trkpt lat="43.74713" lon="3.5452">
        <ele>334.289</ele>
        <time>2008-04-19T14:16:00Z</time>
      </trkpt>
      <trkpt lat="43.74714" lon="3.54512">
        <ele>333.499</ele>
        <time>2008-04-19T14:16:09Z</time>
      </trkpt>
      <trkpt lat="43.74719" lon="3.54498">
        <ele>330.902</ele>
        <time>2008-04-19T14:16:22Z</time>
      </trkpt>
      <trkpt lat="43.74725" lon="3.54489">
        <ele>329.454</ele>
        <time>2008-04-19T14:16:30Z</time>
      </trkpt>
      <trkpt lat="43.74728" lon="3.54485">
        <ele>330.241</ele>
        <time>2008-04-19T14:16:34Z</time>
      </trkpt>
      <trkpt lat="43.74734" lon="3.5448">
        <ele>328.99</ele>
        <time>2008-04-19T14:16:39Z</time>
      </trkpt>
      <trkpt lat="43.74743" lon="3.5446">
        <ele>329.3</ele>
        <time>2008-04-19T14:16:52Z</time>
      </trkpt>
      <trkpt lat="43.74744" lon="3.54456">
        <ele>328.6</ele>
        <time>2008-04-19T14:16:55Z</time>
      </trkpt>
      <trkpt lat="43.74749" lon="3.54447">
        <ele>328.229</ele>
        <time>2008-04-19T14:17:01Z</time>
      </trkpt>
      <trkpt lat="43.74751" lon="3.54441">
        <ele>328.339</ele>
        <time>2008-04-19T14:17:06Z</time>
      </trkpt>
      <trkpt lat="43.74752" lon="3.54428">
        <ele>328.483</ele>
        <time>2008-04-19T14:17:12Z</time>
      </trkpt>
      <trkpt lat="43.74753" lon="3.54422">
        <ele>328.704</ele>
        <time>2008-04-19T14:17:16Z</time>
      </trkpt>
      <trkpt lat="43.74752" lon="3.54413">
        <ele>327.883</ele>
        <time>2008-04-19T14:17:21Z</time>
      </trkpt>
      <trkpt lat="43.74753" lon="3.54407">
        <ele>328.265</ele>
        <time>2008-04-19T14:17:24Z</time>
      </trkpt>
      <trkpt lat="43.74755" lon="3.54394">
        <ele>328.212</ele>
        <time>2008-04-19T14:17:32Z</time>
      </trkpt>
      <trkpt lat="43.74754" lon="3.54383">
        <ele>328.369</ele>
        <time>2008-04-19T14:17:38Z</time>
      </trkpt>
      <trkpt lat="43.74753" lon="3.5438">
        <ele>328.35</ele>
        <time>2008-04-19T14:17:40Z</time>
      </trkpt>
      <trkpt lat="43.74753" lon="3.54361">
        <ele>327.798</ele>
        <time>2008-04-19T14:17:53Z</time>
      </trkpt>
      <trkpt lat="43.74754" lon="3.54355">
        <ele>328.195</ele>
        <time>2008-04-19T14:17:57Z</time>
      </trkpt>
      <trkpt lat="43.74758" lon="3.54339">
        <ele>326.552</ele>
        <time>2008-04-19T14:18:06Z</time>
      </trkpt>
      <trkpt lat="43.74757" lon="3.54335">
        <ele>326.983</ele>
        <time>2008-04-19T14:18:08Z</time>
      </trkpt>
      <trkpt lat="43.74758" lon="3.5433">
        <ele>325.945</ele>
        <time>2008-04-19T14:18:11Z</time>
      </trkpt>
      <trkpt lat="43.74759" lon="3.5432">
        <ele>325.565</ele>
        <time>2008-04-19T14:18:17Z</time>
      </trkpt>
      <trkpt lat="43.74759" lon="3.54298">
        <ele>323.967</ele>
        <time>2008-04-19T14:18:31Z</time>
      </trkpt>
      <trkpt lat="43.74764" lon="3.54286">
        <ele>322.362</ele>
        <time>2008-04-19T14:18:41Z</time>
      </trkpt>
      <trkpt lat="43.74763" lon="3.54285">
        <ele>322.638</ele>
        <time>2008-04-19T14:18:42Z</time>
      </trkpt>
      <trkpt lat="43.74763" lon="3.5428">
        <ele>322.369</ele>
        <time>2008-04-19T14:18:47Z</time>
      </trkpt>
      <trkpt lat="43.74761" lon="3.54275">
        <ele>321.876</ele>
        <time>2008-04-19T14:18:58Z</time>
      </trkpt>
      <trkpt lat="43.74763" lon="3.54274">
        <ele>321.802</ele>
        <time>2008-04-19T14:19:01Z</time>
      </trkpt>
      <trkpt lat="43.74765" lon="3.54271">
        <ele>321.256</ele>
        <time>2008-04-19T14:19:03Z</time>
      </trkpt>
      <trkpt lat="43.74766" lon="3.5426">
        <ele>321.268</ele>
        <time>2008-04-19T14:19:09Z</time>
      </trkpt>
      <trkpt lat="43.74761" lon="3.54242">
        <ele>320.068</ele>
        <time>2008-04-19T14:19:19Z</time>
      </trkpt>
      <trkpt lat="43.7476" lon="3.54234">
        <ele>320.13</ele>
        <time>2008-04-19T14:19:24Z</time>
      </trkpt>
      <trkpt lat="43.74759" lon="3.54231">
        <ele>319.812</ele>
        <time>2008-04-19T14:19:26Z</time>
      </trkpt>
      <trkpt lat="43.74759" lon="3.54223">
        <ele>319.88</ele>
        <time>2008-04-19T14:19:30Z</time>
      </trkpt>
      <trkpt lat="43.74759" lon="3.54217">
        <ele>319.502</ele>
        <time>2008-04-19T14:19:34Z</time>
      </trkpt>
      <trkpt lat="43.74759" lon="3.54214">
        <ele>319.822</ele>
        <time>2008-04-19T14:19:36Z</time>
      </trkpt>
      <trkpt lat="43.74758" lon="3.54211">
        <ele>318.985</ele>
        <time>2008-04-19T14:19:39Z</time>
      </trkpt>
      <trkpt lat="43.74758" lon="3.54193">
        <ele>318.668</ele>
        <time>2008-04-19T14:19:51Z</time>
      </trkpt>
      <trkpt lat="43.74762" lon="3.54175">
        <ele>318.308</ele>
        <time>2008-04-19T14:20:03Z</time>
      </trkpt>
      <trkpt lat="43.74763" lon="3.54173">
        <ele>318.759</ele>
        <time>2008-04-19T14:20:05Z</time>
      </trkpt>
      <trkpt lat="43.74764" lon="3.5417">
        <ele>318.466</ele>
        <time>2008-04-19T14:20:07Z</time>
      </trkpt>
      <trkpt lat="43.74764" lon="3.54168">
        <ele>318.192</ele>
        <time>2008-04-19T14:20:09Z</time>
      </trkpt>
      <trkpt lat="43.74768" lon="3.54152">
        <ele>317.904</ele>
        <time>2008-04-19T14:20:21Z</time>
      </trkpt>
      <trkpt lat="43.74767" lon="3.54148">
        <ele>317.675</ele>
        <time>2008-04-19T14:20:24Z</time>
      </trkpt>
      <trkpt lat="43.74766" lon="3.54145">
        <ele>317.98</ele>
        <time>2008-04-19T14:20:26Z</time>
      </trkpt>
      <trkpt lat="43.74757" lon="3.54137">
        <ele>317.633</ele>
        <time>2008-04-19T14:20:36Z</time>
      </trkpt>
      <trkpt lat="43.74754" lon="3.54136">
        <ele>318.366</ele>
        <time>2008-04-19T14:20:38Z</time>
      </trkpt>
      <trkpt lat="43.74749" lon="3.54135">
        <ele>318.821</ele>
        <time>2008-04-19T14:20:43Z</time>
      </trkpt>
      <trkpt lat="43.74743" lon="3.54132">
        <ele>319.365</ele>
        <time>2008-04-19T14:20:48Z</time>
      </trkpt>
      <trkpt lat="43.7474" lon="3.54129">
        <ele>319.488</ele>
        <time>2008-04-19T14:20:52Z</time>
      </trkpt>
      <trkpt lat="43.74739" lon="3.54125">
        <ele>319.552</ele>
        <time>2008-04-19T14:20:54Z</time>
      </trkpt>
      <trkpt lat="43.74737" lon="3.54123">
        <ele>319.702</ele>
        <time>2008-04-19T14:20:56Z</time>
      </trkpt>
      <trkpt lat="43.74722" lon="3.5412">
        <ele>322.131</ele>
        <time>2008-04-19T14:21:09Z</time>
      </trkpt>
      <trkpt lat="43.74714" lon="3.54118">
        <ele>323.542</ele>
        <time>2008-04-19T14:21:15Z</time>
      </trkpt>
      <trkpt lat="43.74699" lon="3.54121">
        <ele>324.463</ele>
        <time>2008-04-19T14:21:29Z</time>
      </trkpt>
      <trkpt lat="43.74696" lon="3.5412">
        <ele>325.33</ele>
        <time>2008-04-19T14:21:32Z</time>
      </trkpt>
      <trkpt lat="43.74692" lon="3.54116">
        <ele>324.91</ele>
        <time>2008-04-19T14:21:34Z</time>
      </trkpt>
      <trkpt lat="43.74689" lon="3.54115">
        <ele>325.821</ele>
        <time>2008-04-19T14:21:37Z</time>
      </trkpt>
      <trkpt lat="43.74681" lon="3.54113">
        <ele>326.289</ele>
        <time>2008-04-19T14:21:42Z</time>
      </trkpt>
      <trkpt lat="43.74669" lon="3.54119">
        <ele>328.475</ele>
        <time>2008-04-19T14:21:53Z</time>
      </trkpt>
      <trkpt lat="43.74662" lon="3.5412">
        <ele>328.393</ele>
        <time>2008-04-19T14:21:59Z</time>
      </trkpt>
      <trkpt lat="43.74659" lon="3.54117">
        <ele>328.477</ele>
        <time>2008-04-19T14:22:01Z</time>
      </trkpt>
      <trkpt lat="43.74657" lon="3.54115">
        <ele>328.907</ele>
        <time>2008-04-19T14:22:03Z</time>
      </trkpt>
      <trkpt lat="43.74645" lon="3.54109">
        <ele>328.149</ele>
        <time>2008-04-19T14:22:14Z</time>
      </trkpt>
      <trkpt lat="43.7464" lon="3.54106">
        <ele>328.834</ele>
        <time>2008-04-19T14:22:18Z</time>
      </trkpt>
      <trkpt lat="43.74634" lon="3.54111">
        <ele>329.189</ele>
        <time>2008-04-19T14:22:24Z</time>
      </trkpt>
      <trkpt lat="43.74622" lon="3.5412">
        <ele>330.25</ele>
        <time>2008-04-19T14:22:35Z</time>
      </trkpt>
      <trkpt lat="43.74603" lon="3.54129">
        <ele>330.852</ele>
        <time>2008-04-19T14:22:50Z</time>
      </trkpt>
      <trkpt lat="43.74597" lon="3.54131">
        <ele>329.512</ele>
        <time>2008-04-19T14:22:56Z</time>
      </trkpt>
      <trkpt lat="43.74588" lon="3.54135">
        <ele>329.427</ele>
        <time>2008-04-19T14:23:02Z</time>
      </trkpt>
      <trkpt lat="43.74586" lon="3.54137">
        <ele>329.012</ele>
        <time>2008-04-19T14:23:04Z</time>
      </trkpt>
      <trkpt lat="43.74573" lon="3.54141">
        <ele>326.669</ele>
        <time>2008-04-19T14:23:17Z</time>
      </trkpt>
      <trkpt lat="43.74571" lon="3.54144">
        <ele>327.436</ele>
        <time>2008-04-19T14:23:21Z</time>
      </trkpt>
      <trkpt lat="43.74566" lon="3.54145">
        <ele>326.491</ele>
        <time>2008-04-19T14:23:25Z</time>
      </trkpt>
      <trkpt lat="43.74556" lon="3.54138">
        <ele>324.701</ele>
        <time>2008-04-19T14:23:36Z</time>
      </trkpt>
      <trkpt lat="43.74547" lon="3.54143">
        <ele>324.074</ele>
        <time>2008-04-19T14:23:43Z</time>
      </trkpt>
      <trkpt lat="43.74542" lon="3.54142">
        <ele>323.579</ele>
        <time>2008-04-19T14:23:47Z</time>
      </trkpt>
      <trkpt lat="43.74531" lon="3.54147">
        <ele>323.269</ele>
        <time>2008-04-19T14:23:56Z</time>
      </trkpt>
      <trkpt lat="43.74522" lon="3.54146">
        <ele>326.023</ele>
        <time>2008-04-19T14:24:08Z</time>
      </trkpt>
      <trkpt lat="43.74518" lon="3.54143">
        <ele>326.288</ele>
        <time>2008-04-19T14:24:20Z</time>
      </trkpt>
      <trkpt lat="43.74515" lon="3.54144">
        <ele>325.579</ele>
        <time>2008-04-19T14:24:32Z</time>
      </trkpt>
      <trkpt lat="43.74514" lon="3.5415">
        <ele>324.674</ele>
        <time>2008-04-19T14:24:51Z</time>
      </trkpt>
      <trkpt lat="43.74513" lon="3.5415">
        <ele>325.115</ele>
        <time>2008-04-19T14:24:52Z</time>
      </trkpt>
      <trkpt lat="43.74508" lon="3.54155">
        <ele>323.935</ele>
        <time>2008-04-19T14:25:00Z</time>
      </trkpt>
      <trkpt lat="43.74496" lon="3.54152">
        <ele>325.269</ele>
        <time>2008-04-19T14:25:11Z</time>
      </trkpt>
      <trkpt lat="43.74485" lon="3.54157">
        <ele>326.076</ele>
        <time>2008-04-19T14:25:21Z</time>
      </trkpt>
      <trkpt lat="43.7448" lon="3.54157">
        <ele>325.693</ele>
        <time>2008-04-19T14:25:25Z</time>
      </trkpt>
      <trkpt lat="43.74468" lon="3.54164">
        <ele>326.645</ele>
        <time>2008-04-19T14:25:36Z</time>
      </trkpt>
      <trkpt lat="43.74463" lon="3.54165">
        <ele>325.88</ele>
        <time>2008-04-19T14:25:41Z</time>
      </trkpt>
      <trkpt lat="43.74461" lon="3.54166">
        <ele>326.482</ele>
        <time>2008-04-19T14:25:43Z</time>
      </trkpt>
      <trkpt lat="43.74449" lon="3.54177">
        <ele>326.865</ele>
        <time>2008-04-19T14:25:55Z</time>
      </trkpt>
      <trkpt lat="43.74443" lon="3.54176">
        <ele>327.613</ele>
        <time>2008-04-19T14:26:01Z</time>
      </trkpt>
      <trkpt lat="43.74438" lon="3.54172">
        <ele>327.426</ele>
        <time>2008-04-19T14:26:06Z</time>
      </trkpt>
      <trkpt lat="43.7442" lon="3.54174">
        <ele>325.826</ele>
        <time>2008-04-19T14:26:20Z</time>
      </trkpt>
      <trkpt lat="43.74407" lon="3.5418">
        <ele>324.936</ele>
        <time>2008-04-19T14:26:33Z</time>
      </trkpt>
      <trkpt lat="43.74406" lon="3.5418">
        <ele>324.817</ele>
        <time>2008-04-19T14:26:35Z</time>
      </trkpt>
      <trkpt lat="43.74399" lon="3.54186">
        <ele>325.51</ele>
        <time>2008-04-19T14:26:42Z</time>
      </trkpt>
      <trkpt lat="43.74395" lon="3.54189">
        <ele>324.341</ele>
        <time>2008-04-19T14:26:55Z</time>
      </trkpt>
      <trkpt lat="43.74395" lon="3.5419">
        <ele>323.752</ele>
        <time>2008-04-19T14:27:03Z</time>
      </trkpt>
      <trkpt lat="43.74394" lon="3.54193">
        <ele>324.356</ele>
        <time>2008-04-19T14:27:30Z</time>
      </trkpt>
      <trkpt lat="43.74385" lon="3.54199">
        <ele>322.494</ele>
        <time>2008-04-19T14:27:40Z</time>
      </trkpt>
      <trkpt lat="43.7438" lon="3.54199">
        <ele>321.855</ele>
        <time>2008-04-19T14:27:44Z</time>
      </trkpt>
      <trkpt lat="43.74373" lon="3.54194">
        <ele>321.56</ele>
        <time>2008-04-19T14:27:51Z</time>
      </trkpt>
      <trkpt lat="43.74359" lon="3.54188">
        <ele>320.984</ele>
        <time>2008-04-19T14:28:02Z</time>
      </trkpt>
      <trkpt lat="43.74351" lon="3.54191">
        <ele>320.727</ele>
        <time>2008-04-19T14:28:09Z</time>
      </trkpt>
      <trkpt lat="43.74341" lon="3.542">
        <ele>319.899</ele>
        <time>2008-04-19T14:28:21Z</time>
      </trkpt>
      <trkpt lat="43.74335" lon="3.54206">
        <ele>319.45</ele>
        <time>2008-04-19T14:28:32Z</time>
      </trkpt>
      <trkpt lat="43.74339" lon="3.54221">
        <ele>319.77</ele>
        <time>2008-04-19T14:28:45Z</time>
      </trkpt>
      <trkpt lat="43.74326" lon="3.54227">
        <ele>319.66</ele>
        <time>2008-04-19T14:33:21Z</time>
      </trkpt>
      <trkpt lat="43.74311" lon="3.54235">
        <ele>317.446</ele>
        <time>2008-04-19T14:33:39Z</time>
      </trkpt>
      <trkpt lat="43.74298" lon="3.54244">
        <ele>316.01</ele>
        <time>2008-04-19T14:33:53Z</time>
      </trkpt>
      <trkpt lat="43.74286" lon="3.54257">
        <ele>312.556</ele>
        <time>2008-04-19T14:34:06Z</time>
      </trkpt>
      <trkpt lat="43.7428" lon="3.54265">
        <ele>314.151</ele>
        <time>2008-04-19T14:34:14Z</time>
      </trkpt>
      <trkpt lat="43.74279" lon="3.54268">
        <ele>311.665</ele>
        <time>2008-04-19T14:34:16Z</time>
      </trkpt>
      <trkpt lat="43.74278" lon="3.54269">
        <ele>311.949</ele>
        <time>2008-04-19T14:34:17Z</time>
      </trkpt>
      <trkpt lat="43.74276" lon="3.54271">
        <ele>311.734</ele>
        <time>2008-04-19T14:34:19Z</time>
      </trkpt>
      <trkpt lat="43.74274" lon="3.54275">
        <ele>311.448</ele>
        <time>2008-04-19T14:34:23Z</time>
      </trkpt>
      <trkpt lat="43.74271" lon="3.5428">
        <ele>310.11</ele>
        <time>2008-04-19T14:34:29Z</time>
      </trkpt>
      <trkpt lat="43.7427" lon="3.54283">
        <ele>310.045</ele>
        <time>2008-04-19T14:34:34Z</time>
      </trkpt>
      <trkpt lat="43.74265" lon="3.54292">
        <ele>308.304</ele>
        <time>2008-04-19T14:34:46Z</time>
      </trkpt>
      <trkpt lat="43.74255" lon="3.5431">
        <ele>306.038</ele>
        <time>2008-04-19T14:35:03Z</time>
      </trkpt>
      <trkpt lat="43.74251" lon="3.54321">
        <ele>305.133</ele>
        <time>2008-04-19T14:35:15Z</time>
      </trkpt>
      <trkpt lat="43.74249" lon="3.54327">
        <ele>303.99</ele>
        <time>2008-04-19T14:35:20Z</time>
      </trkpt>
      <trkpt lat="43.74245" lon="3.54332">
        <ele>303.437</ele>
        <time>2008-04-19T14:35:24Z</time>
      </trkpt>
      <trkpt lat="43.74239" lon="3.54342">
        <ele>303.112</ele>
        <time>2008-04-19T14:35:33Z</time>
      </trkpt>
      <trkpt lat="43.74233" lon="3.54355">
        <ele>301.152</ele>
        <time>2008-04-19T14:35:43Z</time>
      </trkpt>
      <trkpt lat="43.74233" lon="3.54356">
        <ele>301.032</ele>
        <time>2008-04-19T14:35:44Z</time>
      </trkpt>
      <trkpt lat="43.74231" lon="3.54365">
        <ele>300.706</ele>
        <time>2008-04-19T14:35:51Z</time>
      </trkpt>
      <trkpt lat="43.74228" lon="3.54379">
        <ele>299.125</ele>
        <time>2008-04-19T14:36:02Z</time>
      </trkpt>
      <trkpt lat="43.74221" lon="3.54386">
        <ele>297.621</ele>
        <time>2008-04-19T14:36:09Z</time>
      </trkpt>
      <trkpt lat="43.74217" lon="3.54393">
        <ele>296.804</ele>
        <time>2008-04-19T14:36:14Z</time>
      </trkpt>
      <trkpt lat="43.74209" lon="3.54405">
        <ele>293.795</ele>
        <time>2008-04-19T14:36:29Z</time>
      </trkpt>
      <trkpt lat="43.74207" lon="3.54409">
        <ele>293.145</ele>
        <time>2008-04-19T14:36:32Z</time>
      </trkpt>
      <trkpt lat="43.74205" lon="3.54412">
        <ele>293.792</ele>
        <time>2008-04-19T14:36:34Z</time>
      </trkpt>
      <trkpt lat="43.74203" lon="3.54413">
        <ele>293.201</ele>
        <time>2008-04-19T14:36:36Z</time>
      </trkpt>
      <trkpt lat="43.74199" lon="3.54423">
        <ele>291.944</ele>
        <time>2008-04-19T14:36:44Z</time>
      </trkpt>
      <trkpt lat="43.74194" lon="3.54422">
        <ele>290.007</ele>
        <time>2008-04-19T14:36:51Z</time>
      </trkpt>
      <trkpt lat="43.74193" lon="3.54421">
        <ele>289.55</ele>
        <time>2008-04-19T14:36:53Z</time>
      </trkpt>
      <trkpt lat="43.74198" lon="3.5441">
        <ele>288.213</ele>
        <time>2008-04-19T14:37:01Z</time>
      </trkpt>
      <trkpt lat="43.74202" lon="3.54403">
        <ele>287.149</ele>
        <time>2008-04-19T14:37:08Z</time>
      </trkpt>
      <trkpt lat="43.74202" lon="3.54399">
        <ele>286.678</ele>
        <time>2008-04-19T14:37:11Z</time>
      </trkpt>
      <trkpt lat="43.74201" lon="3.54389">
        <ele>286.773</ele>
        <time>2008-04-19T14:37:17Z</time>
      </trkpt>
      <trkpt lat="43.74198" lon="3.54375">
        <ele>286.853</ele>
        <time>2008-04-19T14:37:25Z</time>
      </trkpt>
      <trkpt lat="43.74195" lon="3.54365">
        <ele>285.372</ele>
        <time>2008-04-19T14:37:32Z</time>
      </trkpt>
      <trkpt lat="43.74195" lon="3.5435">
        <ele>284.539</ele>
        <time>2008-04-19T14:37:42Z</time>
      </trkpt>
      <trkpt lat="43.74195" lon="3.54335">
        <ele>284.038</ele>
        <time>2008-04-19T14:37:51Z</time>
      </trkpt>
      <trkpt lat="43.74195" lon="3.54333">
        <ele>283.237</ele>
        <time>2008-04-19T14:37:53Z</time>
      </trkpt>
      <trkpt lat="43.74194" lon="3.54327">
        <ele>282.78</ele>
        <time>2008-04-19T14:37:58Z</time>
      </trkpt>
      <trkpt lat="43.74193" lon="3.54319">
        <ele>282.888</ele>
        <time>2008-04-19T14:38:02Z</time>
      </trkpt>
      <trkpt lat="43.74193" lon="3.54316">
        <ele>282.144</ele>
        <time>2008-04-19T14:38:04Z</time>
      </trkpt>
      <trkpt lat="43.74193" lon="3.54312">
        <ele>281.921</ele>
        <time>2008-04-19T14:38:06Z</time>
      </trkpt>
      <trkpt lat="43.7419" lon="3.54303">
        <ele>281.538</ele>
        <time>2008-04-19T14:38:16Z</time>
      </trkpt>
      <trkpt lat="43.74187" lon="3.54301">
        <ele>280.785</ele>
        <time>2008-04-19T14:38:19Z</time>
      </trkpt>
      <trkpt lat="43.74175" lon="3.54309">
        <ele>279.144</ele>
        <time>2008-04-19T14:38:31Z</time>
      </trkpt>
      <trkpt lat="43.7417" lon="3.54317">
        <ele>277.146</ele>
        <time>2008-04-19T14:38:42Z</time>
      </trkpt>
      <trkpt lat="43.74166" lon="3.54327">
        <ele>276.764</ele>
        <time>2008-04-19T14:38:52Z</time>
      </trkpt>
      <trkpt lat="43.7416" lon="3.54332">
        <ele>276.088</ele>
        <time>2008-04-19T14:39:02Z</time>
      </trkpt>
      <trkpt lat="43.74159" lon="3.54334">
        <ele>276.261</ele>
        <time>2008-04-19T14:39:05Z</time>
      </trkpt>
      <trkpt lat="43.74151" lon="3.54338">
        <ele>273.632</ele>
        <time>2008-04-19T14:39:16Z</time>
      </trkpt>
      <trkpt lat="43.74152" lon="3.54333">
        <ele>272.897</ele>
        <time>2008-04-19T14:39:20Z</time>
      </trkpt>
      <trkpt lat="43.74151" lon="3.5433">
        <ele>272.827</ele>
        <time>2008-04-19T14:39:22Z</time>
      </trkpt>
      <trkpt lat="43.74151" lon="3.54315">
        <ele>271.5</ele>
        <time>2008-04-19T14:39:30Z</time>
      </trkpt>
      <trkpt lat="43.74147" lon="3.54314">
        <ele>270.334</ele>
        <time>2008-04-19T14:39:39Z</time>
      </trkpt>
      <trkpt lat="43.74144" lon="3.54317">
        <ele>269.605</ele>
        <time>2008-04-19T14:39:43Z</time>
      </trkpt>
      <trkpt lat="43.74142" lon="3.5432">
        <ele>268.448</ele>
        <time>2008-04-19T14:39:47Z</time>
      </trkpt>
      <trkpt lat="43.74141" lon="3.54321">
        <ele>268.834</ele>
        <time>2008-04-19T14:39:48Z</time>
      </trkpt>
      <trkpt lat="43.74134" lon="3.5433">
        <ele>266.489</ele>
        <time>2008-04-19T14:39:57Z</time>
      </trkpt>
      <trkpt lat="43.74134" lon="3.5433">
        <ele>266.27</ele>
        <time>2008-04-19T14:39:58Z</time>
      </trkpt>
      <trkpt lat="43.74132" lon="3.54325">
        <ele>265.451</ele>
        <time>2008-04-19T14:40:03Z</time>
      </trkpt>
      <trkpt lat="43.74133" lon="3.54318">
        <ele>264.791</ele>
        <time>2008-04-19T14:40:09Z</time>
      </trkpt>
      <trkpt lat="43.74127" lon="3.54314">
        <ele>263.115</ele>
        <time>2008-04-19T14:40:14Z</time>
      </trkpt>
      <trkpt lat="43.74124" lon="3.54318">
        <ele>262.36</ele>
        <time>2008-04-19T14:40:18Z</time>
      </trkpt>
      <trkpt lat="43.74122" lon="3.54325">
        <ele>262.46</ele>
        <time>2008-04-19T14:40:22Z</time>
      </trkpt>
      <trkpt lat="43.74118" lon="3.54336">
        <ele>261.258</ele>
        <time>2008-04-19T14:40:29Z</time>
      </trkpt>
      <trkpt lat="43.74114" lon="3.54344">
        <ele>260.29</ele>
        <time>2008-04-19T14:40:38Z</time>
      </trkpt>
      <trkpt lat="43.74113" lon="3.54346">
        <ele>259.993</ele>
        <time>2008-04-19T14:40:40Z</time>
      </trkpt>
      <trkpt lat="43.74108" lon="3.54359">
        <ele>256.838</ele>
        <time>2008-04-19T14:40:50Z</time>
      </trkpt>
      <trkpt lat="43.74107" lon="3.54361">
        <ele>256.745</ele>
        <time>2008-04-19T14:40:52Z</time>
      </trkpt>
      <trkpt lat="43.74098" lon="3.54373">
        <ele>254.379</ele>
        <time>2008-04-19T14:41:02Z</time>
      </trkpt>
      <trkpt lat="43.74095" lon="3.54376">
        <ele>253.816</ele>
        <time>2008-04-19T14:41:05Z</time>
      </trkpt>
      <trkpt lat="43.74092" lon="3.54377">
        <ele>253.568</ele>
        <time>2008-04-19T14:41:08Z</time>
      </trkpt>
      <trkpt lat="43.74089" lon="3.54382">
        <ele>251.969</ele>
        <time>2008-04-19T14:41:14Z</time>
      </trkpt>
      <trkpt lat="43.7409" lon="3.5439">
        <ele>251.47</ele>
        <time>2008-04-19T14:41:18Z</time>
      </trkpt>
      <trkpt lat="43.74087" lon="3.54397">
        <ele>251.138</ele>
        <time>2008-04-19T14:41:22Z</time>
      </trkpt>
      <trkpt lat="43.7409" lon="3.54406">
        <ele>251.393</ele>
        <time>2008-04-19T14:41:29Z</time>
      </trkpt>
      <trkpt lat="43.74087" lon="3.54424">
        <ele>251.183</ele>
        <time>2008-04-19T14:41:39Z</time>
      </trkpt>
      <trkpt lat="43.74086" lon="3.54429">
        <ele>250.655</ele>
        <time>2008-04-19T14:41:42Z</time>
      </trkpt>
      <trkpt lat="43.74079" lon="3.54441">
        <ele>250.747</ele>
        <time>2008-04-19T14:41:51Z</time>
      </trkpt>
      <trkpt lat="43.74078" lon="3.54441">
        <ele>251.047</ele>
        <time>2008-04-19T14:41:52Z</time>
      </trkpt>
      <trkpt lat="43.74069" lon="3.54444">
        <ele>251.495</ele>
        <time>2008-04-19T14:41:57Z</time>
      </trkpt>
      <trkpt lat="43.74055" lon="3.54444">
        <ele>251.158</ele>
        <time>2008-04-19T14:42:08Z</time>
      </trkpt>
      <trkpt lat="43.7404" lon="3.54453">
        <ele>249.462</ele>
        <time>2008-04-19T14:42:21Z</time>
      </trkpt>
      <trkpt lat="43.74033" lon="3.54469">
        <ele>250.091</ele>
        <time>2008-04-19T14:42:34Z</time>
      </trkpt>
      <trkpt lat="43.74029" lon="3.54482">
        <ele>249.703</ele>
        <time>2008-04-19T14:42:42Z</time>
      </trkpt>
      <trkpt lat="43.74029" lon="3.54494">
        <ele>249.02</ele>
        <time>2008-04-19T14:42:48Z</time>
      </trkpt>
      <trkpt lat="43.74029" lon="3.54506">
        <ele>248.033</ele>
        <time>2008-04-19T14:42:55Z</time>
      </trkpt>
      <trkpt lat="43.74028" lon="3.54513">
        <ele>248.188</ele>
        <time>2008-04-19T14:43:00Z</time>
      </trkpt>
      <trkpt lat="43.74025" lon="3.54528">
        <ele>247.955</ele>
        <time>2008-04-19T14:43:08Z</time>
      </trkpt>
      <trkpt lat="43.74025" lon="3.54539">
        <ele>247.295</ele>
        <time>2008-04-19T14:43:13Z</time>
      </trkpt>
      <trkpt lat="43.74024" lon="3.54552">
        <ele>246.15</ele>
        <time>2008-04-19T14:43:21Z</time>
      </trkpt>
      <trkpt lat="43.74023" lon="3.54555">
        <ele>246.061</ele>
        <time>2008-04-19T14:43:23Z</time>
      </trkpt>
      <trkpt lat="43.7402" lon="3.54571">
        <ele>245.475</ele>
        <time>2008-04-19T14:43:35Z</time>
      </trkpt>
      <trkpt lat="43.74025" lon="3.54581">
        <ele>245.424</ele>
        <time>2008-04-19T14:43:53Z</time>
      </trkpt>
      <trkpt lat="43.74027" lon="3.54583">
        <ele>244.872</ele>
        <time>2008-04-19T14:44:10Z</time>
      </trkpt>
      <trkpt lat="43.74025" lon="3.54584">
        <ele>244.451</ele>
        <time>2008-04-19T14:44:13Z</time>
      </trkpt>
      <trkpt lat="43.74016" lon="3.54589">
        <ele>243.311</ele>
        <time>2008-04-19T14:44:20Z</time>
      </trkpt>
      <trkpt lat="43.74007" lon="3.54599">
        <ele>241.48</ele>
        <time>2008-04-19T14:44:28Z</time>
      </trkpt>
      <trkpt lat="43.73995" lon="3.54615">
        <ele>240.333</ele>
        <time>2008-04-19T14:44:38Z</time>
      </trkpt>
      <trkpt lat="43.73989" lon="3.54622">
        <ele>240.161</ele>
        <time>2008-04-19T14:44:44Z</time>
      </trkpt>
      <trkpt lat="43.73988" lon="3.54625">
        <ele>239.819</ele>
        <time>2008-04-19T14:44:46Z</time>
      </trkpt>
      <trkpt lat="43.73984" lon="3.5463">
        <ele>239.081</ele>
        <time>2008-04-19T14:44:50Z</time>
      </trkpt>
      <trkpt lat="43.73981" lon="3.54633">
        <ele>238.405</ele>
        <time>2008-04-19T14:44:53Z</time>
      </trkpt>
      <trkpt lat="43.73979" lon="3.54636">
        <ele>238.411</ele>
        <time>2008-04-19T14:44:55Z</time>
      </trkpt>
      <trkpt lat="43.73965" lon="3.54652">
        <ele>238.418</ele>
        <time>2008-04-19T14:45:07Z</time>
      </trkpt>
      <trkpt lat="43.73961" lon="3.54656">
        <ele>238.075</ele>
        <time>2008-04-19T14:45:10Z</time>
      </trkpt>
      <trkpt lat="43.73952" lon="3.54664">
        <ele>237.615</ele>
        <time>2008-04-19T14:45:21Z</time>
      </trkpt>
      <trkpt lat="43.73951" lon="3.54661">
        <ele>239.214</ele>
        <time>2008-04-19T14:45:48Z</time>
      </trkpt>
      <trkpt lat="43.7395" lon="3.54662">
        <ele>238.44</ele>
        <time>2008-04-19T14:46:02Z</time>
      </trkpt>
      <trkpt lat="43.7395" lon="3.5466">
        <ele>239.791</ele>
        <time>2008-04-19T14:46:16Z</time>
      </trkpt>
      <trkpt lat="43.7395" lon="3.5466">
        <ele>239.886</ele>
        <time>2008-04-19T14:46:18Z</time>
      </trkpt>
      <trkpt lat="43.73953" lon="3.54666">
        <ele>237.766</ele>
        <time>2008-04-19T14:46:30Z</time>
      </trkpt>
      <trkpt lat="43.73951" lon="3.54669">
        <ele>238.213</ele>
        <time>2008-04-19T14:46:34Z</time>
      </trkpt>
      <trkpt lat="43.73938" lon="3.54685">
        <ele>237.309</ele>
        <time>2008-04-19T14:46:49Z</time>
      </trkpt>
      <trkpt lat="43.73932" lon="3.54692">
        <ele>236.156</ele>
        <time>2008-04-19T14:47:00Z</time>
      </trkpt>
      <trkpt lat="43.73927" lon="3.54704">
        <ele>236.057</ele>
        <time>2008-04-19T14:47:12Z</time>
      </trkpt>
      <trkpt lat="43.73925" lon="3.54707">
        <ele>236.181</ele>
        <time>2008-04-19T14:47:25Z</time>
      </trkpt>
      <trkpt lat="43.73926" lon="3.54704">
        <ele>237.052</ele>
        <time>2008-04-19T14:47:41Z</time>
      </trkpt>
      <trkpt lat="43.73915" lon="3.54715">
        <ele>237.173</ele>
        <time>2008-04-19T14:48:06Z</time>
      </trkpt>
      <trkpt lat="43.73911" lon="3.54722">
        <ele>237.981</ele>
        <time>2008-04-19T14:48:12Z</time>
      </trkpt>
      <trkpt lat="43.73908" lon="3.54726">
        <ele>237.413</ele>
        <time>2008-04-19T14:48:15Z</time>
      </trkpt>
      <trkpt lat="43.73902" lon="3.54735">
        <ele>238.307</ele>
        <time>2008-04-19T14:48:24Z</time>
      </trkpt>
      <trkpt lat="43.73902" lon="3.54733">
        <ele>239.676</ele>
        <time>2008-04-19T14:48:31Z</time>
      </trkpt>
      <trkpt lat="43.73898" lon="3.54737">
        <ele>238.842</ele>
        <time>2008-04-19T14:48:35Z</time>
      </trkpt>
      <trkpt lat="43.73889" lon="3.54743">
        <ele>242.859</ele>
        <time>2008-04-19T14:48:45Z</time>
      </trkpt>
      <trkpt lat="43.73889" lon="3.54743">
        <ele>243.578</ele>
        <time>2008-04-19T14:48:55Z</time>
      </trkpt>
      <trkpt lat="43.7389" lon="3.54743">
        <ele>243.135</ele>
        <time>2008-04-19T14:49:11Z</time>
      </trkpt>
      <trkpt lat="43.73889" lon="3.54745">
        <ele>243.261</ele>
        <time>2008-04-19T14:49:35Z</time>
      </trkpt>
      <trkpt lat="43.73889" lon="3.54746">
        <ele>243.062</ele>
        <time>2008-04-19T14:50:01Z</time>
      </trkpt>
      <trkpt lat="43.7389" lon="3.54744">
        <ele>243.208</ele>
        <time>2008-04-19T14:50:31Z</time>
      </trkpt>
      <trkpt lat="43.73891" lon="3.54745">
        <ele>243.507</ele>
        <time>2008-04-19T14:50:45Z</time>
      </trkpt>
      <trkpt lat="43.73892" lon="3.54744">
        <ele>241.861</ele>
        <time>2008-04-19T14:50:55Z</time>
      </trkpt>
      <trkpt lat="43.73893" lon="3.54744">
        <ele>241.639</ele>
        <time>2008-04-19T14:50:56Z</time>
      </trkpt>
      <trkpt lat="43.73895" lon="3.54744">
        <ele>239.096</ele>
        <time>2008-04-19T14:51:02Z</time>
      </trkpt>
      <trkpt lat="43.73896" lon="3.54746">
        <ele>239.515</ele>
        <time>2008-04-19T14:51:04Z</time>
      </trkpt>
      <trkpt lat="43.73899" lon="3.5475">
        <ele>238.271</ele>
        <time>2008-04-19T14:51:07Z</time>
      </trkpt>
      <trkpt lat="43.73899" lon="3.54756">
        <ele>236.258</ele>
        <time>2008-04-19T14:51:11Z</time>
      </trkpt>
      <trkpt lat="43.73897" lon="3.5476">
        <ele>236.12</ele>
        <time>2008-04-19T14:51:16Z</time>
      </trkpt>
      <trkpt lat="43.73885" lon="3.54772">
        <ele>234.061</ele>
        <time>2008-04-19T14:51:27Z</time>
      </trkpt>
      <trkpt lat="43.73878" lon="3.54779">
        <ele>231.672</ele>
        <time>2008-04-19T14:51:35Z</time>
      </trkpt>
      <trkpt lat="43.73869" lon="3.54786">
        <ele>230.458</ele>
        <time>2008-04-19T14:51:42Z</time>
      </trkpt>
      <trkpt lat="43.73858" lon="3.54798">
        <ele>228.375</ele>
        <time>2008-04-19T14:51:53Z</time>
      </trkpt>
      <trkpt lat="43.73857" lon="3.54801">
        <ele>228.369</ele>
        <time>2008-04-19T14:51:55Z</time>
      </trkpt>
      <trkpt lat="43.73852" lon="3.54813">
        <ele>226.577</ele>
        <time>2008-04-19T14:52:05Z</time>
      </trkpt>
      <trkpt lat="43.73847" lon="3.54823">
        <ele>225.712</ele>
        <time>2008-04-19T14:52:15Z</time>
      </trkpt>
      <trkpt lat="43.73843" lon="3.5483">
        <ele>224.574</ele>
        <time>2008-04-19T14:52:25Z</time>
      </trkpt>
      <trkpt lat="43.73841" lon="3.54837">
        <ele>223.782</ele>
        <time>2008-04-19T14:52:36Z</time>
      </trkpt>
      <trkpt lat="43.73837" lon="3.54846">
        <ele>222.428</ele>
        <time>2008-04-19T14:52:46Z</time>
      </trkpt>
      <trkpt lat="43.73831" lon="3.54855">
        <ele>221.179</ele>
        <time>2008-04-19T14:52:55Z</time>
      </trkpt>
      <trkpt lat="43.73828" lon="3.54862">
        <ele>220.66</ele>
        <time>2008-04-19T14:53:00Z</time>
      </trkpt>
      <trkpt lat="43.73822" lon="3.54871">
        <ele>218.594</ele>
        <time>2008-04-19T14:53:10Z</time>
      </trkpt>
      <trkpt lat="43.73814" lon="3.54882">
        <ele>216.703</ele>
        <time>2008-04-19T14:53:20Z</time>
      </trkpt>
      <trkpt lat="43.73809" lon="3.54886">
        <ele>215.7</ele>
        <time>2008-04-19T14:53:24Z</time>
      </trkpt>
      <trkpt lat="43.73808" lon="3.54891">
        <ele>214.158</ele>
        <time>2008-04-19T14:53:27Z</time>
      </trkpt>
      <trkpt lat="43.73797" lon="3.54905">
        <ele>213.457</ele>
        <time>2008-04-19T14:53:37Z</time>
      </trkpt>
      <trkpt lat="43.7379" lon="3.54898">
        <ele>212.069</ele>
        <time>2008-04-19T14:53:46Z</time>
      </trkpt>
      <trkpt lat="43.73787" lon="3.549">
        <ele>212.179</ele>
        <time>2008-04-19T14:54:03Z</time>
      </trkpt>
      <trkpt lat="43.73787" lon="3.54898">
        <ele>211.637</ele>
        <time>2008-04-19T14:54:04Z</time>
      </trkpt>
      <trkpt lat="43.73787" lon="3.54891">
        <ele>211.039</ele>
        <time>2008-04-19T14:54:13Z</time>
      </trkpt>
      <trkpt lat="43.73786" lon="3.54884">
        <ele>210.669</ele>
        <time>2008-04-19T14:54:22Z</time>
      </trkpt>
      <trkpt lat="43.73787" lon="3.54881">
        <ele>209.88</ele>
        <time>2008-04-19T14:54:31Z</time>
      </trkpt>
      <trkpt lat="43.73787" lon="3.54877">
        <ele>208.885</ele>
        <time>2008-04-19T14:54:41Z</time>
      </trkpt>
      <trkpt lat="43.73786" lon="3.54878">
        <ele>208.796</ele>
        <time>2008-04-19T14:54:50Z</time>
      </trkpt>
      <trkpt lat="43.73779" lon="3.5489">
        <ele>207.163</ele>
        <time>2008-04-19T14:55:00Z</time>
      </trkpt>
      <trkpt lat="43.73772" lon="3.54899">
        <ele>205.849</ele>
        <time>2008-04-19T14:55:07Z</time>
      </trkpt>
      <trkpt lat="43.73764" lon="3.54908">
        <ele>203.7</ele>
        <time>2008-04-19T14:55:14Z</time>
      </trkpt>
      <trkpt lat="43.73765" lon="3.54905">
        <ele>202.035</ele>
        <time>2008-04-19T14:55:23Z</time>
      </trkpt>
      <trkpt lat="43.73766" lon="3.54901">
        <ele>200.427</ele>
        <time>2008-04-19T14:55:28Z</time>
      </trkpt>
      <trkpt lat="43.73768" lon="3.54894">
        <ele>199.798</ele>
        <time>2008-04-19T14:55:35Z</time>
      </trkpt>
      <trkpt lat="43.73772" lon="3.54882">
        <ele>199.319</ele>
        <time>2008-04-19T14:55:47Z</time>
      </trkpt>
      <trkpt lat="43.73774" lon="3.54874">
        <ele>198.843</ele>
        <time>2008-04-19T14:56:00Z</time>
      </trkpt>
      <trkpt lat="43.73774" lon="3.54874">
        <ele>198.505</ele>
        <time>2008-04-19T14:56:01Z</time>
      </trkpt>
      <trkpt lat="43.73778" lon="3.54862">
        <ele>197.711</ele>
        <time>2008-04-19T14:56:12Z</time>
      </trkpt>
      <trkpt lat="43.7378" lon="3.5486">
        <ele>197.38</ele>
        <time>2008-04-19T14:56:16Z</time>
      </trkpt>
      <trkpt lat="43.73784" lon="3.54853">
        <ele>196.598</ele>
        <time>2008-04-19T14:56:22Z</time>
      </trkpt>
      <trkpt lat="43.73787" lon="3.54842">
        <ele>196.073</ele>
        <time>2008-04-19T14:56:30Z</time>
      </trkpt>
      <trkpt lat="43.73791" lon="3.54831">
        <ele>195.399</ele>
        <time>2008-04-19T14:56:41Z</time>
      </trkpt>
      <trkpt lat="43.73792" lon="3.54828">
        <ele>194.901</ele>
        <time>2008-04-19T14:56:45Z</time>
      </trkpt>
      <trkpt lat="43.73794" lon="3.54822">
        <ele>193.3</ele>
        <time>2008-04-19T14:56:49Z</time>
      </trkpt>
      <trkpt lat="43.73794" lon="3.54818">
        <ele>193.321</ele>
        <time>2008-04-19T14:56:51Z</time>
      </trkpt>
      <trkpt lat="43.73794" lon="3.54811">
        <ele>191.665</ele>
        <time>2008-04-19T14:56:55Z</time>
      </trkpt>
      <trkpt lat="43.73796" lon="3.54793">
        <ele>189.361</ele>
        <time>2008-04-19T14:57:06Z</time>
      </trkpt>
      <trkpt lat="43.73794" lon="3.54787">
        <ele>188.009</ele>
        <time>2008-04-19T14:57:11Z</time>
      </trkpt>
      <trkpt lat="43.73792" lon="3.54779">
        <ele>186.434</ele>
        <time>2008-04-19T14:57:15Z</time>
      </trkpt>
      <trkpt lat="43.7379" lon="3.54766">
        <ele>185.428</ele>
        <time>2008-04-19T14:57:21Z</time>
      </trkpt>
      <trkpt lat="43.73786" lon="3.54753">
        <ele>184.916</ele>
        <time>2008-04-19T14:57:29Z</time>
      </trkpt>
      <trkpt lat="43.73781" lon="3.54744">
        <ele>182.329</ele>
        <time>2008-04-19T14:57:34Z</time>
      </trkpt>
      <trkpt lat="43.73775" lon="3.54743">
        <ele>182.181</ele>
        <time>2008-04-19T14:57:44Z</time>
      </trkpt>
      <trkpt lat="43.73774" lon="3.54742">
        <ele>182.715</ele>
        <time>2008-04-19T14:57:50Z</time>
      </trkpt>
      <trkpt lat="43.73775" lon="3.54736">
        <ele>182.631</ele>
        <time>2008-04-19T14:57:55Z</time>
      </trkpt>
      <trkpt lat="43.73774" lon="3.54729">
        <ele>182.775</ele>
        <time>2008-04-19T14:58:08Z</time>
      </trkpt>
      <trkpt lat="43.73774" lon="3.5473">
        <ele>182.771</ele>
        <time>2008-04-19T14:58:15Z</time>
      </trkpt>
      <trkpt lat="43.73773" lon="3.54722">
        <ele>181.545</ele>
        <time>2008-04-19T14:58:27Z</time>
      </trkpt>
      <trkpt lat="43.73773" lon="3.54723">
        <ele>181.234</ele>
        <time>2008-04-19T14:58:56Z</time>
      </trkpt>
      <trkpt lat="43.7377" lon="3.54725">
        <ele>181.365</ele>
        <time>2008-04-19T14:59:09Z</time>
      </trkpt>
      <trkpt lat="43.73773" lon="3.54726">
        <ele>180.353</ele>
        <time>2008-04-19T14:59:27Z</time>
      </trkpt>
      <trkpt lat="43.73773" lon="3.54731">
        <ele>181.091</ele>
        <time>2008-04-19T14:59:37Z</time>
      </trkpt>
      <trkpt lat="43.73771" lon="3.54744">
        <ele>182.222</ele>
        <time>2008-04-19T14:59:51Z</time>
      </trkpt>
      <trkpt lat="43.73773" lon="3.54753">
        <ele>181.136</ele>
        <time>2008-04-19T15:00:03Z</time>
      </trkpt>
      <trkpt lat="43.73776" lon="3.54758">
        <ele>181.495</ele>
        <time>2008-04-19T15:00:09Z</time>
      </trkpt>
      <trkpt lat="43.73778" lon="3.54766">
        <ele>180.982</ele>
        <time>2008-04-19T15:00:14Z</time>
      </trkpt>
      <trkpt lat="43.73778" lon="3.54781">
        <ele>180.216</ele>
        <time>2008-04-19T15:00:22Z</time>
      </trkpt>
      <trkpt lat="43.73776" lon="3.54802">
        <ele>178.861</ele>
        <time>2008-04-19T15:00:37Z</time>
      </trkpt>
      <trkpt lat="43.73774" lon="3.54807">
        <ele>177.494</ele>
        <time>2008-04-19T15:00:40Z</time>
      </trkpt>
      <trkpt lat="43.73767" lon="3.54815">
        <ele>175.257</ele>
        <time>2008-04-19T15:00:52Z</time>
      </trkpt>
      <trkpt lat="43.73758" lon="3.54825">
        <ele>174.454</ele>
        <time>2008-04-19T15:01:03Z</time>
      </trkpt>
      <trkpt lat="43.73753" lon="3.54834">
        <ele>173.33</ele>
        <time>2008-04-19T15:01:11Z</time>
      </trkpt>
      <trkpt lat="43.73749" lon="3.54836">
        <ele>172.65</ele>
        <time>2008-04-19T15:01:16Z</time>
      </trkpt>
      <trkpt lat="43.73744" lon="3.54841">
        <ele>171.446</ele>
        <time>2008-04-19T15:01:21Z</time>
      </trkpt>
      <trkpt lat="43.73739" lon="3.54841">
        <ele>169.943</ele>
        <time>2008-04-19T15:01:30Z</time>
      </trkpt>
      <trkpt lat="43.73731" lon="3.54851">
        <ele>166.897</ele>
        <time>2008-04-19T15:01:42Z</time>
      </trkpt>
      <trkpt lat="43.73729" lon="3.54852">
        <ele>166.253</ele>
        <time>2008-04-19T15:01:44Z</time>
      </trkpt>
      <trkpt lat="43.73727" lon="3.54854">
        <ele>165.246</ele>
        <time>2008-04-19T15:01:52Z</time>
      </trkpt>
      <trkpt lat="43.7373" lon="3.54844">
        <ele>163.864</ele>
        <time>2008-04-19T15:02:01Z</time>
      </trkpt>
      <trkpt lat="43.73723" lon="3.5485">
        <ele>160.757</ele>
        <time>2008-04-19T15:02:09Z</time>
      </trkpt>
      <trkpt lat="43.73723" lon="3.54853">
        <ele>162.062</ele>
        <time>2008-04-19T15:02:12Z</time>
      </trkpt>
      <trkpt lat="43.73718" lon="3.54869">
        <ele>159.635</ele>
        <time>2008-04-19T15:02:24Z</time>
      </trkpt>
      <trkpt lat="43.73715" lon="3.54882">
        <ele>156.518</ele>
        <time>2008-04-19T15:03:00Z</time>
      </trkpt>
      <trkpt lat="43.7371" lon="3.54884">
        <ele>155.786</ele>
        <time>2008-04-19T15:03:19Z</time>
      </trkpt>
      <trkpt lat="43.73709" lon="3.54885">
        <ele>155.26</ele>
        <time>2008-04-19T15:03:20Z</time>
      </trkpt>
      <trkpt lat="43.73698" lon="3.5489">
        <ele>154.761</ele>
        <time>2008-04-19T15:03:31Z</time>
      </trkpt>
      <trkpt lat="43.73687" lon="3.54892">
        <ele>153.06</ele>
        <time>2008-04-19T15:03:41Z</time>
      </trkpt>
      <trkpt lat="43.73685" lon="3.54893">
        <ele>152.164</ele>
        <time>2008-04-19T15:03:43Z</time>
      </trkpt>
      <trkpt lat="43.73678" lon="3.54895">
        <ele>148.941</ele>
        <time>2008-04-19T15:03:49Z</time>
      </trkpt>
      <trkpt lat="43.73676" lon="3.54896">
        <ele>148.86</ele>
        <time>2008-04-19T15:03:50Z</time>
      </trkpt>
      <trkpt lat="43.73667" lon="3.549">
        <ele>147.138</ele>
        <time>2008-04-19T15:03:57Z</time>
      </trkpt>
      <trkpt lat="43.73661" lon="3.54904">
        <ele>146.27</ele>
        <time>2008-04-19T15:04:02Z</time>
      </trkpt>
      <trkpt lat="43.73648" lon="3.5491">
        <ele>144.729</ele>
        <time>2008-04-19T15:04:13Z</time>
      </trkpt>
      <trkpt lat="43.73634" lon="3.54907">
        <ele>143.29</ele>
        <time>2008-04-19T15:04:25Z</time>
      </trkpt>
      <trkpt lat="43.73625" lon="3.54904">
        <ele>142.205</ele>
        <time>2008-04-19T15:04:34Z</time>
      </trkpt>
      <trkpt lat="43.73621" lon="3.54899">
        <ele>141.79</ele>
        <time>2008-04-19T15:04:39Z</time>
      </trkpt>
      <trkpt lat="43.73615" lon="3.54892">
        <ele>140.83</ele>
        <time>2008-04-19T15:04:44Z</time>
      </trkpt>
      <trkpt lat="43.73611" lon="3.54888">
        <ele>140.515</ele>
        <time>2008-04-19T15:04:48Z</time>
      </trkpt>
      <trkpt lat="43.73609" lon="3.54888">
        <ele>138.591</ele>
        <time>2008-04-19T15:04:52Z</time>
      </trkpt>
      <trkpt lat="43.73603" lon="3.5488">
        <ele>137.668</ele>
        <time>2008-04-19T15:05:00Z</time>
      </trkpt>
      <trkpt lat="43.73596" lon="3.54876">
        <ele>135.521</ele>
        <time>2008-04-19T15:05:15Z</time>
      </trkpt>
      <trkpt lat="43.73591" lon="3.54878">
        <ele>135.285</ele>
        <time>2008-04-19T15:05:34Z</time>
      </trkpt>
      <trkpt lat="43.73584" lon="3.54881">
        <ele>133.815</ele>
        <time>2008-04-19T15:05:48Z</time>
      </trkpt>
      <trkpt lat="43.73572" lon="3.54887">
        <ele>133.013</ele>
        <time>2008-04-19T15:05:59Z</time>
      </trkpt>
      <trkpt lat="43.73563" lon="3.54891">
        <ele>131.637</ele>
        <time>2008-04-19T15:06:07Z</time>
      </trkpt>
      <trkpt lat="43.73564" lon="3.54889">
        <ele>131.223</ele>
        <time>2008-04-19T15:06:09Z</time>
      </trkpt>
      <trkpt lat="43.73569" lon="3.54887">
        <ele>130.224</ele>
        <time>2008-04-19T15:06:13Z</time>
      </trkpt>
      <trkpt lat="43.73575" lon="3.54884">
        <ele>129.545</ele>
        <time>2008-04-19T15:06:19Z</time>
      </trkpt>
      <trkpt lat="43.73582" lon="3.54877">
        <ele>128.587</ele>
        <time>2008-04-19T15:06:26Z</time>
      </trkpt>
      <trkpt lat="43.73585" lon="3.54873">
        <ele>128.858</ele>
        <time>2008-04-19T15:06:31Z</time>
      </trkpt>
      <trkpt lat="43.73591" lon="3.54865">
        <ele>127.357</ele>
        <time>2008-04-19T15:06:41Z</time>
      </trkpt>
      <trkpt lat="43.73592" lon="3.54864">
        <ele>127.191</ele>
        <time>2008-04-19T15:06:42Z</time>
      </trkpt>
      <trkpt lat="43.73594" lon="3.54855">
        <ele>127.031</ele>
        <time>2008-04-19T15:06:47Z</time>
      </trkpt>
      <trkpt lat="43.736" lon="3.54847">
        <ele>125.161</ele>
        <time>2008-04-19T15:06:57Z</time>
      </trkpt>
      <trkpt lat="43.73598" lon="3.54846">
        <ele>125.058</ele>
        <time>2008-04-19T15:07:01Z</time>
      </trkpt>
      <trkpt lat="43.73594" lon="3.54841">
        <ele>124.546</ele>
        <time>2008-04-19T15:07:08Z</time>
      </trkpt>
      <trkpt lat="43.73589" lon="3.54842">
        <ele>123.317</ele>
        <time>2008-04-19T15:07:11Z</time>
      </trkpt>
      <trkpt lat="43.73587" lon="3.54842">
        <ele>122.506</ele>
        <time>2008-04-19T15:07:13Z</time>
      </trkpt>
      <trkpt lat="43.73575" lon="3.54855">
        <ele>119.345</ele>
        <time>2008-04-19T15:07:27Z</time>
      </trkpt>
      <trkpt lat="43.73568" lon="3.54856">
        <ele>118.246</ele>
        <time>2008-04-19T15:07:36Z</time>
      </trkpt>
      <trkpt lat="43.73564" lon="3.54854">
        <ele>116.581</ele>
        <time>2008-04-19T15:07:43Z</time>
      </trkpt>
      <trkpt lat="43.73561" lon="3.54851">
        <ele>115.423</ele>
        <time>2008-04-19T15:07:48Z</time>
      </trkpt>
      <trkpt lat="43.7355" lon="3.54842">
        <ele>112.022</ele>
        <time>2008-04-19T15:07:58Z</time>
      </trkpt>
      <trkpt lat="43.7354" lon="3.54835">
        <ele>110.772</ele>
        <time>2008-04-19T15:08:07Z</time>
      </trkpt>
      <trkpt lat="43.73535" lon="3.54831">
        <ele>109.663</ele>
        <time>2008-04-19T15:08:13Z</time>
      </trkpt>
      <trkpt lat="43.73527" lon="3.54823">
        <ele>107.313</ele>
        <time>2008-04-19T15:08:22Z</time>
      </trkpt>
      <trkpt lat="43.73525" lon="3.54817">
        <ele>106.566</ele>
        <time>2008-04-19T15:08:26Z</time>
      </trkpt>
      <trkpt lat="43.73523" lon="3.54815">
        <ele>105.984</ele>
        <time>2008-04-19T15:08:28Z</time>
      </trkpt>
    </trkseg>
  </trk>
</gpx>